                ,  2.047,  2.194,  2.342,  2.490,  2.638,  2.785,  2.933,  3.081,  3.229,  3.376,  3.524,  3.672,  3.819,  3.967,  4.115,  4.263,  4.410,  4.558,  4.706,  4.853,  5.001,  5.149,  5.297,  5.444,  5.592,  5.740,  5.888,  6.035,  6.183,  6.331,  6.478,  6.626,  6.774,  6.922,  7.069,  7.217,  7.365,  7.512,  7.660,  7.808,  7.956,  8.103,  8.251,  8.399,  8.547,  8.694,  8.842,  8.990,  9.137,  9.285,  9.433,  9.581,  9.728,  9.876, 10.024, 10.171, 10.319, 10.467, 10.615, 10.762, 10.910, 11.058, 11.205, 11.353, 11.501, 11.649, 11.796, 11.944, 12.092, 12.240, 12.387, 12.535, 12.683, 12.830, 12.978, 13.126, 13.274, 13.421, 13.569, 13.717, 13.864, 14.012, 14.160, 14.308, 14.455, 14.603, 14.751, 14.899, 15.046, 15.194, 15.342, 15.489, 15.637, 15.785, 15.933, 16.080, 16.228, 16.376, 16.523, 16.671, 16.819, 16.967, 17.114, 17.262, 17.410, 17.557, 17.705, 17.853, 18.001, 18.148, 18.296, 18.444, 18.592, 18.739, 18.887, 19.035, 19.182, 19.330, 19.478, 19.626
2004/02/10 00:00,   -1.7,   -3.0,   -2.7,   -2.1,   -0.4,   -0.1,    0.6,  999.0,    3.7,    7.2,  999.0,    6.6,    6.9,    5.9,    4.6,    4.3,    3.7,    3.8,    2.4,    1.4,    1.6,    2.0,    2.1,    1.7,    0.7,    0.2,    1.2,    1.7,  999.0,   -1.8,   -2.9,   -4.5,   -5.1,   -5.0,   -5.6,   -5.0,   -5.5,   -6.0,   -5.5,   -5.4,   -6.9,   -8.0,   -9.3,  -10.6,  -10.8,   -9.2,   -8.3,   -6.3,   -6.2,   -4.5,   -3.5,   -3.5,   -3.9,   -5.0,   -4.8,   -5.1,   -5.4,   -5.2,   -4.7,   -3.7,   -4.0,   -4.2,   -3.5,   -3.4,   -4.6,   -4.5,   -3.8,   -4.4,   -4.8,   -6.7,   -9.6,  -11.7,  -13.8,  -15.9,  -18.2,  -20.1,  -22.8,  -25.2,  -28.7,  -32.0,  -35.1,  -39.6,  999.0,  999.0,  999.0,  999.0,  999.0,  -41.8,  -42.3,  -35.5,  -30.3,  -22.9,  -18.8,  -12.9,   -7.0,   -0.8,    4.0,    9.3,  999.0,  999.0,  999.0,  999.0,  999.0,  999.0,  999.0,  999.0,  999.0,  999.0,  999.0,  999.0,  999.0,  999.0,  999.0,  999.0,  999.0,  999.0,  999.0,  999.0,  999.0,  999.0
2004/02/10 00:10,   -1.9,   -2.9,   -1.9,   -1.4,    0.3,    1.4,    2.7,    4.3,    5.9,    6.6,    6.8,    6.6,    6.4,    5.8,    4.9,    4.0,    3.3,    3.6,    1.8,    1.4,    1.5,    2.0,    2.1,    1.1,    0.0,    0.4,    1.3,    1.4,   -0.5,   -2.3,   -3.4,   -4.6,   -5.3,   -5.1,   -5.3,   -5.1,   -5.7,   -6.2,   -5.4,   -5.9,   -7.6,   -8.9,  -10.3,  -11.0,  -10.9,   -9.3,   -8.4,   -6.7,   -6.4,   -4.7,   -3.5,   -3.6,   -4.2,   -4.7,   -5.2,   -5.3,   -5.6,   -5.4,   -5.0,   -3.9,   -4.4,   -4.4,   -3.4,   -4.1,   -5.6,   -4.9,   -4.5,   -5.6,   -5.9,   -7.5,  -10.0,  -12.1,  -13.5,  -15.1,  -17.7,  -19.4,  -22.6,  -24.8,  -28.4,  -31.8,  -34.8,  -37.3,  999.0,  999.0,  999.0,  999.0,  999.0,  -42.6,  -41.0,  -36.5,  -30.4,  -24.8,  -18.6,  -12.4,   -7.2,   -1.4,    3.4,    9.1,  999.0,  999.0,  999.0,  999.0,  999.0,  999.0,  999.0,  999.0,  999.0,  999.0,  999.0,  999.0,  999.0,  999.0,  999.0,  999.0,  999.0,  999.0,  999.0,  999.0,  999.0,  999.0
2004/02/10 00:20,   -1.5,   -1.8,   -1.3,   -0.3,    1.0,    2.3,    3.2,    4.7,    5.9,    5.9,    6.3,    6.0,    5.6,    5.0,    5.0,    3.4,    2.8,    3.1,    1.3,    1.3,    1.2,    2.1,    2.3,    0.6,   -0.8,    0.9,    1.4,    0.6,   -0.7,   -2.1,   -2.9,   -3.5,   -4.8,   -4.8,   -4.0,   -3.5,   -4.6,   -5.5,   -4.7,   -4.9,   -6.8,   -8.1,   -9.1,   -9.8,   -9.8,   -8.6,   -7.5,   -6.4,   -5.1,   -4.8,   -2.8,   -2.7,   -2.8,   -4.1,   -4.6,   -4.8,   -5.1,   -5.3,   -5.3,   -3.9,   -4.0,   -4.2,   -3.8,   -5.3,   -5.4,   -4.5,   -4.9,   -4.9,   -6.1,   -7.9,  -10.4,  -11.7,  -13.0,  -14.9,  -17.2,  -20.0,  -23.3,  -25.4,  -29.0,  -31.3,  -34.5,  -37.1,  -39.5,  999.0,  999.0,  999.0,  999.0,  999.0,  -40.5,  -37.3,  -30.4,  -25.7,  -19.7,  -13.7,   -7.3,   -2.4,    3.0,    8.9,   13.8,  999.0,  999.0,  999.0,  999.0,  999.0,  999.0,  999.0,  999.0,  999.0,  999.0,  999.0,  999.0,    6.8,  999.0,    4.5,  999.0,  999.0,  999.0,  999.0,  999.0,  999.0
2004/02/10 00:30,   -1.0,   -1.5,   -1.1,    0.4,    1.5,    2.4,    3.0,    4.4,    5.5,    5.4,    5.8,    5.5,    5.1,    5.2,    5.1,    3.7,    3.4,    3.5,    1.6,    1.6,    1.8,    2.2,    2.1,    0.5,  999.0,    0.9,    1.4,    0.8,   -0.5,   -1.8,   -2.9,   -4.6,   -5.3,   -5.0,   -4.4,   -4.1,   -5.1,   -5.5,   -5.3,   -4.9,   -7.5,   -8.5,   -9.5,  -10.5,   -9.9,   -8.5,   -8.2,   -7.1,   -5.6,   -4.9,   -3.5,   -3.9,   -4.6,   -5.4,   -5.4,   -5.8,   -5.5,   -6.0,   -5.9,   -4.7,   -4.6,   -4.7,   -4.9,   -5.9,   -5.6,   -3.4,   -3.8,   -6.0,   -7.3,   -9.4,  -11.3,  -12.2,  -12.8,  -16.0,  -18.9,  -21.1,  -24.5,  -26.3,  -29.3,  -32.3,  -35.3,  -38.3,  -41.5,  -47.7,  -42.3,  999.0,  999.0,  999.0,  -43.2,  -37.8,  -31.1,  -26.3,  -20.6,  -14.5,   -9.1,   -3.2,    1.9,    7.9,   12.1,  999.0,  999.0,  999.0,  999.0,  999.0,  999.0,  999.0,  999.0,  999.0,  999.0,  999.0,  999.0,  999.0,  999.0,  999.0,  999.0,  999.0,  999.0,  999.0,  999.0,  999.0
2004/02/10 00:40,   -0.7,   -1.5,   -1.6,    0.6,    1.4,    2.1,    3.3,    4.7,    6.0,    5.9,    6.0,    5.3,    5.1,    4.5,    4.2,    3.1,    3.5,    3.7,    2.4,    2.3,    2.3,    2.4,    2.2,    0.6,   -0.5,    0.5,    1.1,    0.7,   -0.9,   -2.6,   -3.6,   -5.9,   -5.4,   -5.0,   -4.1,   -4.7,   -5.6,   -6.2,   -6.0,   -5.6,   -7.4,   -8.6,   -9.7,  -10.3,   -9.8,   -8.1,   -7.9,   -6.6,   -5.3,   -4.3,   -2.9,   -3.3,   -4.2,   -5.1,   -5.4,   -5.4,   -5.4,   -5.6,   -5.8,   -4.7,   -4.9,   -5.0,   -5.1,   -5.5,   -6.1,   -4.5,   -5.3,   -6.2,   -7.0,   -9.0,  999.0,  -11.6,  -12.2,  -15.8,  -17.6,  -20.5,  -23.1,  -25.3,  -28.1,  -31.6,  -33.5,  -38.0,  -40.0,  999.0,  -43.0,  999.0,  999.0,  -41.0,  -41.4,  -37.7,  -31.7,  -25.9,  -20.1,  -15.1,   -8.5,   -0.3,    4.6,   10.4,   16.2,  999.0,  999.0,  999.0,  999.0,  999.0,  999.0,  999.0,  999.0,  999.0,  999.0,  999.0,  999.0,  999.0,  999.0,  999.0,  999.0,  999.0,  999.0,  999.0,  999.0,  999.0
2004/02/10 00:50,    0.2,   -0.7,   -1.1,    0.7,    1.3,    1.8,    3.7,    5.0,    5.5,    5.4,    5.6,    5.1,    5.1,    4.6,    4.3,    3.0,    2.9,    3.4,    2.6,    2.4,    1.9,    2.0,    2.4,    1.8,    0.1,    0.2,    1.4,    0.5,   -1.2,   -2.6,   -3.9,   -6.1,   -6.2,   -5.1,   -4.8,   -5.4,   -7.0,   -6.2,   -6.3,   -6.1,   -7.7,   -8.5,   -9.4,  -10.4,  -10.3,   -9.1,   -7.9,   -6.9,   -5.7,   -4.1,   -2.9,   -3.0,   -3.9,   -4.9,   -4.7,   -5.3,   -5.0,   -4.9,   -5.4,   -5.2,   -5.2,   -5.3,   -5.2,   -5.6,   -4.8,   -3.0,   -4.1,   -5.6,   -5.5,   -5.2,  999.0,  -11.0,  -12.2,  -14.8,  -16.7,  -19.9,  -22.0,  -24.4,  -27.3,  -30.1,  -32.1,  -35.1,  -37.3,  -39.1,  -39.3,  999.0,  999.0,  999.0,  -37.0,  -33.6,  -28.7,  -22.1,  -16.6,  -11.4,   -5.9,   -0.5,    6.0,   10.1,   13.6,   18.9,  999.0,  999.0,  999.0,  999.0,  999.0,  999.0,  999.0,  999.0,  999.0,  999.0,    2.1,  999.0,  999.0,  999.0,    0.8,  999.0,  999.0,   -7.4,  999.0,  999.0
2004/02/10 01:00,    0.5,   -0.2,   -0.3,    0.4,    1.6,    1.6,    3.7,    5.4,    5.4,    5.6,    5.9,    5.4,    5.6,    5.2,    5.0,    3.3,    2.8,    2.9,    2.5,    1.8,    1.5,    1.0,    1.3,    0.4,   -0.9,    0.1,    1.4,    0.3,   -1.5,   -2.9,   -3.8,   -5.3,   -6.2,   -4.4,   -5.1,   -5.7,   -7.1,   -6.8,   -5.7,   -6.0,   -7.2,   -7.9,   -9.1,  -10.2,   -9.6,   -9.4,   -7.7,   -7.1,   -5.8,   -3.1,   -2.8,   -3.2,   -4.0,   -4.9,   -4.8,   -5.2,   -4.7,   -4.9,   -5.4,   -5.0,   -5.1,   -4.8,   -5.3,   -4.6,   -2.9,   -3.2,   -5.1,   -5.5,   -6.3,   -7.5,   -8.2,  -10.7,  -12.7,  -14.6,  -17.5,  -20.1,  -21.4,  -24.5,  -27.3,  -29.8,  -32.1,  -33.4,  -35.9,  -39.5,  999.0,  999.0,  999.0,  -37.6,  -36.4,  -34.2,  -29.0,  -23.0,  -16.6,  -11.8,   -5.5,   -1.2,    3.2,    9.0,   14.2,  999.0,  999.0,  999.0,  999.0,  999.0,  999.0,  999.0,  999.0,  999.0,  999.0,  999.0,  999.0,  999.0,  999.0,  999.0,  999.0,  999.0,   -5.8,   -6.6,  999.0,  999.0
2004/02/10 01:10,    1.4,   -0.4,   -0.1,    0.9,    1.6,    2.0,    3.3,    5.0,    5.3,    5.6,    5.9,    5.6,    5.8,    5.0,    5.4,    4.6,    2.9,    2.7,    2.1,    1.7,    0.9,    1.3,    1.4,    0.5,   -0.1,    0.9,    1.4,    0.6,   -1.7,   -2.9,   -3.7,   -5.0,   -5.7,   -4.7,   -4.8,   -5.6,   -6.3,   -6.9,   -5.6,   -5.8,   -6.9,   -7.7,   -9.1,  -10.0,   -9.5,   -9.5,   -7.7,   -7.4,   -5.9,   -3.4,   -3.1,   -3.4,   -4.3,   -4.9,   -5.3,   -5.0,   -4.9,   -4.8,   -5.3,   -5.0,   -5.8,   -4.6,   -5.0,   -3.3,   -3.8,   -3.2,   -3.9,   -5.5,   -5.4,  999.0,  999.0,  -11.7,  -13.4,  -15.2,  -18.0,  -20.1,  -23.2,  -25.7,  -28.3,  -30.8,  -33.4,  -35.3,  -37.8,  -40.1,  999.0,  999.0,  999.0,  -38.1,  -37.7,  -35.2,  -29.9,  -23.9,  -17.6,  -13.1,   -5.3,   -1.1,    4.1,   10.8,  999.0,  999.0,  999.0,  999.0,  999.0,  999.0,  999.0,  999.0,  999.0,  999.0,  999.0,  999.0,  999.0,  999.0,  999.0,  999.0,  999.0,  999.0,   -5.3,   -6.5,  999.0,  999.0
2004/02/10 01:20,    0.0,   -0.9,   -0.7,  999.0,    0.6,    1.3,    2.7,    4.5,    5.0,    4.7,    5.3,    4.6,    5.6,    5.2,    5.9,    5.5,    3.6,    2.5,    3.0,    2.5,    1.6,    1.4,    1.8,    0.9,    0.8,    1.4,    1.4,    0.7,   -0.7,   -1.4,   -3.0,   -4.6,   -5.7,   -4.8,   -4.6,   -5.0,   -6.0,   -7.1,   -6.0,   -5.6,   -6.9,   -7.5,   -8.5,   -9.5,   -9.1,   -9.0,   -7.9,   -6.7,   -5.2,   -3.3,   -3.2,   -3.9,   -4.3,   -5.1,   -5.8,   -5.6,   -5.6,   -5.5,   -5.8,   -5.6,   -6.0,   -4.8,   -3.5,   -2.9,   -3.1,   -2.5,   -3.5,   -5.1,   -3.5,   -3.5,   -5.4,  -12.2,  -14.1,  -16.4,  -18.5,  -20.5,  -23.8,  -26.3,  -28.3,  -30.2,  -32.8,  -34.0,  999.0,  999.0,  999.0,  999.0,  999.0,  999.0,  -38.6,  -33.8,  -28.5,  -22.6,  -16.3,  -11.2,   -4.2,    1.5,  999.0,  999.0,  999.0,  999.0,  999.0,  999.0,  999.0,  999.0,  999.0,  999.0,  999.0,  999.0,  999.0,  999.0,  999.0,  999.0,  999.0,    3.8,  999.0,  999.0,   -3.8,   -6.2,   -8.2,  999.0
2004/02/10 01:30,   -0.2,   -0.9,   -0.7,    0.2,   -0.1,    1.3,    2.7,    4.1,    4.2,    4.3,    4.7,    4.0,    5.6,    5.5,    5.9,    5.7,    3.5,    2.5,    3.3,    2.8,    1.9,    2.0,    2.1,    1.6,    0.9,    1.4,    1.2,    1.1,   -0.3,   -0.9,   -3.2,   -4.6,   -5.4,   -4.7,   -4.0,   -4.0,   -4.9,   -6.4,   -5.6,   -5.1,   -6.4,   -7.1,   -8.3,   -8.9,   -8.6,   -8.4,   -7.7,   -6.2,   -4.5,   -3.0,   -3.0,   -3.9,   -4.5,   -4.9,   -5.6,   -6.0,   -6.1,   -5.9,   -6.2,   -5.7,   -5.9,   -5.6,   -3.2,   -2.7,  999.0,   -2.2,   -3.3,   -5.0,   -4.3,   -4.5,   -7.4,  -12.2,  -13.6,  -15.8,  -18.6,  -20.3,  -22.5,  -26.5,  -27.9,  -28.8,  -33.0,  -35.4,  999.0,  999.0,  999.0,  999.0,  999.0,  999.0,  -39.0,  -34.0,  -28.7,  -22.3,  -16.3,   -8.2,   -3.9,    1.3,    7.4,   13.1,   18.0,  999.0,  999.0,  999.0,  999.0,  999.0,  999.0,  999.0,  999.0,  999.0,  999.0,  999.0,  999.0,    9.6,  999.0,    4.8,  999.0,  999.0,   -3.3,   -5.2,   -7.9,  -10.3
2004/02/10 01:40,   -0.7,   -1.4,   -0.8,  999.0,    0.1,    2.2,    3.1,    4.8,    4.6,    4.5,    4.2,    4.1,    5.6,    5.6,    5.9,    5.1,    3.7,    3.0,    3.8,    3.6,    2.2,    2.2,    2.2,    1.5,    0.4,    0.9,    1.1,    0.7,   -0.1,   -0.5,   -2.5,   -3.7,   -4.6,   -4.5,   -3.8,   -4.3,   -5.6,   -6.1,   -6.3,   -6.2,   -6.0,   -6.8,   -7.8,   -8.3,   -8.6,   -7.7,   -7.6,   -6.1,   -4.1,   -2.8,   -3.0,   -3.9,   -4.3,   -4.7,   -5.3,   -5.6,   -5.6,   -5.2,   -5.2,   -5.4,   -5.1,   -5.3,   -3.4,   -3.0,   -2.9,   -2.8,   -3.0,   -5.3,   -5.0,   -8.0,   -9.1,  -12.5,  -14.0,  -16.4,  -18.9,  -20.7,  -22.5,  -25.6,  -27.2,  -29.5,  999.0,  999.0,  999.0,  999.0,  999.0,  999.0,  999.0,  999.0,  -36.3,  -33.1,  -28.1,  -21.6,  -15.9,   -8.5,   -3.4,    0.5,    5.9,   11.1,   15.6,  999.0,  999.0,  999.0,  999.0,  999.0,  999.0,  999.0,  999.0,  999.0,  999.0,  999.0,  999.0,  999.0,  999.0,  999.0,  999.0,  999.0,   -3.6,   -5.1,   -7.6,  -10.6
2004/02/10 01:50,   -2.3,   -1.3,   -0.5,   -0.0,   -0.2,    1.9,    3.1,    4.7,    4.7,    4.5,    4.2,    4.1,    5.2,    4.9,    5.8,    4.8,    3.5,    2.9,    3.5,    3.5,    1.6,    1.6,    2.1,    1.1,    0.7,    1.5,    1.1,    0.8,   -0.7,   -1.2,   -2.4,   -3.2,   -3.9,   -4.3,   -4.0,   -4.3,   -5.7,   -5.8,   -5.8,   -6.2,   -5.0,   -6.2,   -6.6,   -7.3,   -8.3,   -7.5,   -7.4,   -5.4,   -4.2,   -2.6,   -2.9,   -3.6,   -4.4,   -4.6,   -4.7,   -5.3,   -5.4,   -4.9,   -4.6,   -4.5,   -4.2,   -4.7,   -2.8,   -2.7,   -2.7,   -2.9,   -3.4,   -5.7,   -5.2,   -9.3,  -11.2,  -13.3,  -16.0,  -17.6,  -20.2,  -22.6,  -24.3,  -26.5,  -29.2,  -31.5,  -36.3,  999.0,  999.0,  999.0,  999.0,  999.0,  999.0,  -43.7,  -38.8,  -33.7,  -27.5,  -21.8,  -15.6,  -10.2,   -2.8,   -0.0,    5.2,   10.5,   15.2,  999.0,  999.0,  999.0,  999.0,  999.0,  999.0,  999.0,  999.0,  999.0,  999.0,  999.0,  999.0,    4.5,  999.0,  999.0,  999.0,    2.5,   -4.2,   -5.3,   -8.5,  -10.8
2004/02/10 02:00,   -1.3,   -1.4,   -0.8,    0.5,    0.4,    1.7,    3.1,    4.4,    4.6,    4.7,    4.1,    4.2,    5.4,    5.0,    5.5,    4.5,    3.4,    3.4,    4.7,    4.3,    2.3,    2.4,    2.7,    1.8,    1.3,    2.1,    1.7,    1.3,    0.1,   -0.7,   -1.6,   -2.0,   -2.9,   -3.7,   -3.6,   -4.4,   -4.5,   -4.7,   -5.3,   -5.7,   -5.0,   -5.9,   -6.8,   -7.5,   -8.3,   -8.4,   -7.3,   -6.3,   -4.4,   -3.0,   -2.9,   -3.7,   -4.6,   -4.9,   -5.4,   -5.4,   -5.5,   -4.9,   -4.5,   -4.4,   -4.1,   -4.6,   -2.7,   -1.8,   -2.6,   -2.0,   -3.0,   -5.2,   -5.1,   -6.9,   -8.3,  -12.9,  -15.2,  -16.8,  -19.1,  -22.4,  -25.0,  -26.7,  -30.2,  -33.3,  -36.4,  999.0,  999.0,  999.0,  999.0,  999.0,  999.0,  999.0,  -40.1,  -32.0,  -25.6,  -18.8,  -12.8,   -8.2,   -2.1,    1.1,    5.7,   11.3,   16.5,  999.0,  999.0,  999.0,  999.0,  999.0,  999.0,  999.0,  999.0,  999.0,  999.0,  999.0,  999.0,  999.0,  999.0,  999.0,    2.4,  999.0,   -4.7,   -5.0,   -7.2,  -10.1
2004/02/10 02:10,   -2.0,   -1.4,   -0.7,    0.1,    0.5,    1.8,    3.8,    4.5,    4.5,    4.4,    4.2,    5.2,    5.7,    5.1,    5.6,    4.2,    3.0,    3.6,    4.8,    4.4,    2.2,    2.1,    2.1,    1.6,    0.8,    1.5,    2.1,    1.8,    1.1,   -0.2,   -0.0,   -1.7,   -2.7,   -3.3,   -3.5,   -4.3,   -4.9,   -4.6,   -5.1,   -5.6,   -5.2,   -5.8,   -6.8,   -8.1,   -8.7,   -8.7,   -8.1,   -8.2,   -4.3,   -2.8,   -2.5,   -3.7,   -3.9,   -4.8,   -4.9,   -4.7,   -4.7,   -4.7,   -5.1,   -4.0,   -4.1,   -4.3,   -2.7,   -1.1,   -2.6,   -2.5,   -3.5,   -3.9,   -3.7,   -4.8,  999.0,  -12.6,  -15.1,  -16.8,  -19.2,  -22.6,  -24.0,  -27.1,  -29.4,  -32.4,  999.0,  999.0,  999.0,  999.0,  999.0,  999.0,  999.0,  999.0,  -32.1,  -29.0,  -22.7,  -14.3,  -11.1,   -6.5,   -1.2,    1.6,    6.7,   11.4,   15.8,  999.0,  999.0,  999.0,  999.0,  999.0,  999.0,  999.0,  999.0,  999.0,  999.0,  999.0,  999.0,  999.0,  999.0,  999.0,    2.9,  999.0,   -3.0,   -4.8,   -7.6,   -9.4
2004/02/10 02:20,   -1.9,  999.0,   -1.1,    0.3,    1.6,    2.9,    4.1,    4.6,    4.6,    4.3,    4.8,    5.4,    4.8,    4.9,    4.9,    3.8,    3.3,    4.0,    4.8,    4.5,    2.7,    2.2,    2.1,    1.6,    0.6,    1.4,    2.1,    2.4,    1.8,   -0.3,    0.1,   -1.3,   -2.4,   -3.4,   -3.6,   -3.7,   -4.3,   -4.8,   -5.0,   -5.0,   -4.8,   -5.5,   -6.6,   -7.2,   -8.2,   -8.5,   -8.1,   -7.5,   -4.4,   -2.7,   -2.8,   -3.9,   -4.4,   -5.0,   -4.8,   -4.7,   -4.3,   -4.5,   -5.1,   -4.1,   -4.1,   -4.1,   -1.1,   -1.1,   -2.2,   -2.8,   -4.1,   -4.3,   -6.1,   -8.8,   -8.6,  -13.9,  -16.2,  -18.2,  -20.4,  -23.1,  -25.5,  -27.5,  -29.5,  -32.0,  999.0,  999.0,  999.0,  999.0,  999.0,  999.0,  999.0,  -34.4,  -34.1,  -30.4,  -23.6,  -17.7,  -12.4,   -6.9,   -2.6,    0.4,    5.5,   10.2,   14.6,   20.3,  999.0,  999.0,  999.0,  999.0,  999.0,  999.0,  999.0,  999.0,  999.0,  999.0,  999.0,  999.0,  999.0,    6.2,    4.5,  999.0,   -3.0,   -5.8,   -7.6,   -9.6
2004/02/10 02:30,   -2.4,   -1.4,   -1.0,    1.0,    1.9,    3.5,    4.2,    4.5,    4.3,    4.1,    4.8,    5.7,    4.8,    5.1,    4.6,    3.4,    2.9,    4.1,    4.9,    4.0,    3.0,    2.9,    2.8,    2.5,    1.5,    1.1,    1.6,    1.8,    1.2,   -0.1,    0.2,   -0.8,   -1.5,   -2.6,   -2.9,   -2.9,   -4.1,   -4.5,   -5.2,   -5.4,   -5.1,   -5.2,   -6.4,   -6.9,   -7.9,   -8.9,   -9.4,   -8.2,   -5.6,   -3.7,   -3.3,   -4.2,   -4.9,   -5.2,   -5.2,   -4.9,   -4.6,   -4.4,   -4.7,   -3.8,   -3.9,   -4.1,   -1.2,   -1.4,   -2.1,   -3.1,   -3.5,   -3.4,   -7.1,   -9.9,  -11.9,  -14.5,  -16.4,  999.0,  -20.6,  -23.3,  -26.0,  -28.1,  -32.1,  999.0,  999.0,  999.0,  999.0,  999.0,  999.0,  999.0,  999.0,  -37.4,  -36.0,  -31.6,  -25.6,  -20.4,  -13.4,   -8.2,   -3.4,    0.1,    5.5,   10.7,   16.1,   20.8,  999.0,  999.0,  999.0,  999.0,  999.0,  999.0,  999.0,  999.0,  999.0,  999.0,  999.0,    7.5,    7.1,    5.8,  999.0,  999.0,   -3.7,   -5.6,   -8.0,   -9.1
2004/02/10 02:40,   -1.6,   -0.7,    0.0,    1.2,    2.1,    3.7,    3.9,    4.4,    3.6,    3.6,    5.4,    5.9,    5.5,    5.6,    4.3,    3.8,    2.6,    3.5,    4.4,    3.4,    3.2,    3.3,    3.0,    3.0,    1.8,    1.5,    1.8,    2.1,    1.7,    1.0,    0.5,   -0.4,   -1.1,   -1.9,   -2.0,   -2.8,   -3.5,   -3.5,   -4.3,   -5.1,   -5.0,   -4.8,   -5.1,   -5.5,   -6.0,   -8.4,   -8.3,   -8.3,   -6.6,   -4.6,   -3.4,   -4.1,   -4.7,   -5.2,   -5.1,   -5.1,   -4.8,   -4.8,   -4.9,   -3.3,   -4.3,   -4.0,   -1.4,   -1.3,   -2.6,   -3.4,   -3.5,   -4.3,   -7.2,   -9.5,  -10.9,  -14.3,  -16.4,  -19.4,  -20.3,  -23.9,  -26.4,  -29.2,  999.0,  999.0,  999.0,  999.0,  999.0,  999.0,  -38.5,  999.0,  999.0,  -36.3,  -34.6,  -29.4,  -24.8,  -19.1,  -13.8,   -8.5,   -4.4,    0.6,    5.6,   10.6,   15.9,   20.3,  999.0,  999.0,  999.0,  999.0,  999.0,  999.0,  999.0,  999.0,  999.0,  999.0,  999.0,  999.0,    6.9,  999.0,  999.0,  999.0,  999.0,   -4.6,   -6.5,   -8.4
2004/02/10 02:50,   -1.0,  999.0,    0.7,    1.8,    3.1,    4.1,    4.8,    4.6,    4.4,    5.7,    6.2,    6.9,    6.3,    5.6,    5.1,    3.2,    3.0,    3.7,    4.4,    3.2,    2.2,    2.7,    2.4,    1.8,    0.9,    0.9,    1.7,    2.5,    1.7,    1.1,    0.8,    0.5,   -0.4,   -1.2,   -1.4,   -1.7,   -2.8,   -3.0,   -2.5,   -3.4,   -4.4,   -4.4,   -3.8,   -3.9,   -4.1,   -5.2,   -4.6,   -7.0,   -7.1,   -4.4,   -3.3,   -3.8,   -4.7,   -5.1,   -5.2,   -5.5,   -5.1,   -5.5,   -5.4,   -4.5,   -4.8,   -4.1,   -1.3,   -1.1,   -2.7,   -3.1,   -2.3,   -5.9,   -8.7,  -10.6,  -12.7,  -15.8,  -18.0,  -20.2,  -22.9,  -24.7,  -26.8,  -29.1,  999.0,  999.0,  999.0,  -34.7,  999.0,  -36.5,  -40.6,  999.0,  999.0,  -38.8,  -36.2,  -29.7,  -23.8,  -18.0,  -13.3,   -8.2,   -3.1,    0.3,    5.0,   11.9,   16.2,   20.8,  999.0,  999.0,  999.0,  999.0,  999.0,  999.0,  999.0,  999.0,  999.0,  999.0,  999.0,    8.2,  999.0,    6.1,    3.8,  999.0,  999.0,   -4.3,   -5.8,   -7.9
2004/02/10 03:00,   -0.8,   -0.2,    1.7,    2.7,    4.2,    4.8,    4.4,    4.1,    4.5,    5.8,    6.2,    6.2,    6.2,    5.6,    5.1,    3.3,    3.6,    4.7,    5.1,    4.0,    2.8,    2.3,    2.6,    2.1,    0.9,    0.7,    1.3,    2.1,    1.7,    1.4,    0.6,   -0.0,   -0.7,   -1.2,   -2.4,   -2.3,   -2.9,   -3.5,   -2.8,   -3.3,   -3.8,   -3.9,   -3.9,   -4.3,   -4.0,   -2.9,   -4.6,   -6.4,   -7.4,   -4.9,   -3.9,   -4.4,   -5.3,   -5.7,   -5.4,   -5.8,   -5.4,   -5.6,   -6.2,   -4.9,   -4.7,   -3.4,   -0.6,   -0.7,   -1.9,   -3.3,   -3.3,   -5.3,   -8.7,  -11.2,  -14.1,  -16.9,  -19.4,  -22.3,  -24.1,  -26.3,  -28.5,  -30.8,  999.0,  999.0,  999.0,  999.0,  999.0,  -40.1,  -43.5,  999.0,  999.0,  -40.2,  -37.8,  -29.3,  -24.7,  -18.1,  -12.7,   -7.3,   -2.3,    2.1,    6.0,   12.3,   15.9,   22.1,  999.0,  999.0,  999.0,  999.0,  999.0,  999.0,  999.0,  999.0,  999.0,  999.0,   10.8,    8.8,    6.0,    6.0,    3.7,  999.0,  999.0,   -3.9,   -5.4,   -7.8
2004/02/10 03:10,   -0.7,  999.0,    1.9,    3.3,    4.5,    4.7,    4.0,    3.6,    4.4,    5.8,    5.4,    5.6,    5.0,    5.2,    4.6,    2.8,    3.5,    4.9,    5.4,    4.0,    3.2,    2.6,    2.6,    2.6,    2.1,    1.5,    2.0,    2.2,    1.4,    0.9,    0.0,   -0.0,   -0.6,   -1.4,   -2.4,   -2.1,   -2.3,   -2.4,   -1.8,   -1.4,   -1.8,   -1.5,   -3.0,   -4.1,   -4.0,   -3.3,   -3.8,   -5.7,   -6.6,   -5.5,   -4.9,   -5.6,   -6.4,   -5.9,   -6.1,   -6.1,   -5.9,   -6.5,   -6.8,   -6.0,   -5.7,   -4.7,   -0.7,   -1.0,   -1.2,   -2.4,   -3.9,   -4.9,   -8.7,  -11.3,  -14.1,  -16.3,  -19.2,  -21.4,  -23.5,  -25.9,  -27.6,  -30.1,  999.0,  999.0,  999.0,  999.0,  999.0,  -39.7,  -43.8,  999.0,  999.0,  -40.5,  -35.7,  -29.1,  -23.9,  -17.2,  -11.8,   -7.0,   -2.0,    2.8,    7.5,   12.1,   17.1,  999.0,  999.0,  999.0,  999.0,  999.0,  999.0,  999.0,  999.0,  999.0,  999.0,  999.0,  999.0,  999.0,    6.0,    5.3,    3.9,  999.0,  999.0,   -4.0,   -5.3,   -7.3
2004/02/10 03:20,  999.0,    0.5,    2.5,    4.5,    5.2,    4.9,    4.6,    3.8,    4.5,    5.6,    5.2,    5.6,    5.3,    5.5,    4.6,    2.5,    3.1,    4.3,    4.6,    3.5,    2.8,    2.2,    2.2,    2.7,    2.2,    1.2,    1.9,    2.6,    1.7,    1.0,    0.9,    0.2,   -0.8,   -2.5,   -2.2,   -2.4,   -2.3,   -2.2,   -1.6,   -1.1,   -1.4,   -2.3,   -3.0,   -3.4,   -2.8,   -2.6,   -2.6,   -3.5,   -4.2,   -4.4,   -3.9,   -4.6,   -5.2,   -4.9,   -5.0,   -5.4,   -5.6,   -6.9,   -6.9,   -6.7,   -6.6,   -5.8,   -0.3,   -0.8,   -0.5,   -1.1,   -2.4,   -5.4,   -6.9,   -9.3,  -12.0,  -14.1,  -16.4,  -19.2,  -20.8,  -23.4,  -26.5,  -28.5,  -29.3,  999.0,  999.0,  999.0,  999.0,  -36.3,  -39.7,  999.0,  -41.3,  -42.6,  -34.3,  -27.5,  -22.3,  -15.5,  -10.1,   -5.0,   -0.8,    4.4,    8.9,   13.5,   18.8,  999.0,   18.4,  999.0,  999.0,  999.0,  999.0,  999.0,  999.0,  999.0,  999.0,  999.0,  999.0,  999.0,    5.8,    5.2,    3.5,  999.0,  999.0,   -3.8,  999.0,  999.0
2004/02/10 03:30,  999.0,    0.3,    2.7,    4.7,    5.4,    4.8,    4.3,    3.8,    4.0,    3.9,    4.5,    5.3,    5.4,    5.4,    4.4,    2.5,    3.3,    4.2,    4.4,    3.3,    2.9,    2.7,    2.7,    3.4,    2.4,    1.5,    2.0,    3.0,    2.0,    1.6,    1.5,    1.1,    0.1,   -1.8,   -2.5,   -2.9,   -3.1,   -2.9,   -2.0,   -1.7,   -1.8,   -2.4,   -2.4,   -1.9,   -1.6,   -2.3,   -4.4,   -5.3,   -7.0,   -6.3,   -5.3,   -5.7,   -5.3,   -5.2,   -5.2,   -5.8,   -5.4,   -5.9,   -6.9,   -6.9,   -6.6,   -4.3,   -0.5,   -0.8,   -0.5,   -1.3,   -2.4,   -6.8,   -5.3,   -7.5,   -6.8,  -13.5,  -15.9,  -19.1,  -20.9,  -23.0,  -25.0,  -27.8,  -30.0,  -31.0,  999.0,  999.0,  -33.1,  -37.3,  -40.5,  -41.9,  -42.6,  -42.4,  -33.2,  -27.1,  -21.9,  -15.5,  -10.3,   -5.0,   -0.3,    5.7,   10.3,   15.1,   20.1,  999.0,  999.0,  999.0,  999.0,  999.0,  999.0,  999.0,  999.0,  999.0,  999.0,  999.0,  999.0,  999.0,    6.4,    4.9,    2.5,  999.0,  999.0,   -3.7,   -4.5,  999.0
2004/02/10 03:40,   -0.0,  999.0,    2.5,    4.9,    5.1,    4.5,    3.5,    3.3,    3.8,    3.7,    4.2,    4.4,    4.2,    4.2,    4.3,    2.9,    3.6,    4.5,    4.5,    3.3,    3.2,    2.5,    3.0,    3.1,    2.4,    1.4,    2.0,    1.9,    1.8,    1.3,    1.1,    0.6,   -0.3,   -0.7,   -1.3,   -1.6,   -1.3,   -1.7,   -1.2,   -1.6,   -1.3,   -1.6,   -1.8,   -2.7,   -2.9,   -2.0,   -3.6,   -4.7,   -6.3,   -7.7,   -6.2,   -5.8,   -6.2,   -5.3,   -5.2,   -5.6,   -5.2,   -5.5,   -6.7,   -6.9,   -6.8,   -4.8,   -0.1,   -0.2,   -0.3,   -2.6,   -4.6,   -7.3,   -4.6,   -7.9,   -8.6,  -13.7,  -16.0,  -18.4,  -20.9,  -23.6,  -25.2,  -27.6,  -29.9,  -32.6,  999.0,  999.0,  -33.5,  -38.3,  -40.9,  999.0,  -42.8,  -41.8,  -34.3,  -27.1,  -22.1,  -16.7,  -11.1,   -5.9,   -1.0,    4.9,    9.6,   14.7,  999.0,  999.0,  999.0,  999.0,  999.0,  999.0,  999.0,  999.0,  999.0,  999.0,  999.0,  999.0,  999.0,  999.0,  999.0,    5.0,    2.8,  999.0,  999.0,   -3.7,  999.0,  999.0
2004/02/10 03:50,   -0.2,    0.2,    3.3,    5.7,    5.7,    5.6,    4.4,    4.4,    4.8,    4.2,    4.2,    4.2,    3.9,    3.5,    3.3,    3.7,    3.8,    3.9,    3.1,    2.4,    2.4,    1.6,    2.4,    2.3,    1.6,    0.9,    1.5,    1.6,    1.7,    1.5,    1.7,    0.7,   -0.3,   -1.3,   -1.1,   -1.1,   -0.8,   -0.6,   -1.2,   -1.8,   -2.3,   -2.5,   -2.8,   -3.0,   -2.2,   -2.1,   -3.8,   -5.1,   -5.9,   -6.6,   -6.0,   -5.3,   -5.8,   -5.2,   -4.9,   -5.1,   -4.7,   -5.1,   -5.7,   -6.0,   -6.2,   -6.3,   -1.5,   -0.2,   -0.7,   -3.3,   -5.8,   -6.9,   -3.5,   -5.9,   -7.5,  -13.4,  -16.0,  -17.9,  -20.9,  -23.0,  -25.4,  -27.4,  -29.1,  -31.9,  999.0,  999.0,  -33.7,  -37.2,  -40.4,  999.0,  -42.7,  -40.6,  -33.9,  -27.9,  -22.3,  -16.0,  -10.7,   -5.6,   -0.8,    4.3,    8.6,   14.0,   19.5,  999.0,  999.0,  999.0,  999.0,  999.0,  999.0,  999.0,  999.0,  999.0,  999.0,  999.0,  999.0,  999.0,  999.0,    5.3,    3.2,  999.0,   -1.2,   -4.1,   -5.3,  999.0
2004/02/10 04:00,   -0.3,    0.3,    3.6,    6.2,    6.4,    5.9,    5.3,    5.0,    5.2,    4.2,    4.0,    4.1,    3.5,    2.8,    3.2,    2.1,    3.5,    3.7,    2.1,    2.7,    2.3,    2.4,    3.4,    2.3,    2.3,    0.7,    1.6,    1.7,    1.7,    1.0,    1.3,   -0.2,   -0.8,   -2.2,   -1.9,   -0.9,   -0.4,   -0.4,   -1.2,   -2.4,   -2.6,   -2.5,   -2.6,   -3.3,   -3.3,   -3.4,   -3.5,   -4.1,   -5.3,   -6.0,   -5.8,   -5.0,   -5.4,   -5.1,   -4.3,   -4.6,   -4.5,   -4.7,   -5.1,   -5.5,   -5.4,   -5.7,   -2.0,   -0.5,   -2.8,   -4.2,   -6.4,   -6.6,   -6.0,   -8.5,  -11.6,  -13.7,  -17.0,  -18.5,  -21.3,  -23.8,  -26.1,  -28.0,  999.0,  -29.5,  999.0,  999.0,  -32.7,  -36.7,  -40.5,  999.0,  -42.6,  -40.8,  -34.3,  -28.4,  -22.7,  -16.4,  -10.6,   -5.5,   -0.6,    4.4,    9.0,   13.9,  999.0,  999.0,  999.0,  999.0,  999.0,  999.0,  999.0,  999.0,  999.0,  999.0,  999.0,  999.0,  999.0,  999.0,  999.0,    5.7,    2.6,  999.0,  999.0,   -4.7,   -5.8,  999.0
2004/02/10 04:10,   -1.2,    0.1,    2.8,    6.0,    6.3,    6.1,    5.4,    4.4,    4.4,    3.6,    3.2,    2.6,    2.2,    2.7,    3.7,    1.9,    2.7,    3.9,    3.1,    3.8,    3.4,    4.4,    4.5,    3.2,    1.9,    0.7,    0.5,    0.6,    0.3,    0.2,    1.0,    0.2,   -0.5,   -1.2,   -1.6,   -1.2,   -0.6,   -0.5,   -0.5,   -1.4,   -0.5,   -0.9,   -1.5,   -2.2,   -2.3,   -2.5,   -2.7,   -2.4,   -3.4,   -4.3,   -4.3,   -4.1,   -4.5,   -4.6,   -3.9,   -3.9,   -4.1,   -4.1,   -4.6,   -4.9,   -5.0,   -5.1,   -1.3,   -2.5,   -3.8,   -4.3,   -6.0,   -4.9,   -6.3,   -7.4,   -9.0,  999.0,  -17.9,  999.0,  -22.5,  -24.2,  -25.8,  999.0,  999.0,  999.0,  999.0,  -32.3,  -35.7,  -38.9,  999.0,  999.0,  -46.2,  -41.2,  -35.1,  -28.7,  -23.2,  -16.9,  -11.2,   -5.6,   -0.2,    5.4,   11.0,   16.4,  999.0,  999.0,  999.0,  999.0,  999.0,  999.0,  999.0,  999.0,  999.0,  999.0,  999.0,  999.0,  999.0,  999.0,  999.0,    6.0,    2.6,  999.0,  999.0,   -4.5,  999.0,  999.0
2004/02/10 04:20,    2.3,    0.6,    3.3,    6.5,    6.9,    6.7,    6.3,    5.2,    4.9,    3.9,    3.6,    3.3,    2.8,    2.6,    3.1,    2.3,    2.6,    3.4,    3.0,    3.0,    2.3,    2.9,    3.0,    1.2,    0.4,   -0.3,    0.2,    0.8,    1.0,    1.2,    1.9,    1.3,    0.3,   -1.0,   -2.5,   -2.6,   -1.7,   -1.2,   -1.1,   -1.4,   -1.4,   -2.1,   -2.7,   -2.3,   -2.7,   -2.9,   -3.6,   -4.0,   -3.6,   -3.7,   -4.0,   -4.0,   -4.4,   -5.2,   -4.3,   -4.7,   -4.9,   -4.5,   -4.0,   -4.3,   -3.7,   -4.0,   -1.8,   -2.8,   -4.1,   -4.5,   -4.3,   -5.3,   -6.5,   -5.9,   -6.7,   -7.7,  999.0,  999.0,  -20.0,  -25.3,  -26.9,  -28.2,  -29.3,  999.0,  999.0,  -31.7,  -37.3,  -39.9,  999.0,  999.0,  -46.2,  -40.6,  -36.2,  -27.8,  -22.3,  -17.1,  -10.5,   -5.2,   -1.3,    6.2,   10.9,   16.3,  999.0,  999.0,  999.0,  999.0,  999.0,  999.0,  999.0,  999.0,  999.0,  999.0,  999.0,  999.0,  999.0,    8.1,    4.7,    4.2,    3.7,   -0.6,  999.0,   -4.0,   -4.4,   -7.7
2004/02/10 04:30,    3.0,    0.3,    2.2,    5.0,    6.0,    6.6,    5.7,    5.2,    4.8,    3.9,    3.3,    3.5,    3.1,    2.3,    1.9,    1.5,    2.0,    2.6,    2.7,    3.1,    2.6,    2.7,    2.4,    0.7,   -0.2,   -0.3,   -0.4,    0.8,    0.8,    0.7,    0.9,    1.0,    0.6,   -0.6,   -1.3,   -2.6,   -2.7,   -1.9,   -1.5,   -1.2,   -1.3,   -1.8,   -2.9,   -2.2,   -2.7,   -3.4,   -5.2,   -5.4,   -4.4,   -4.8,   -4.5,   -4.2,   -4.5,   -4.5,   -4.1,   -4.5,   -4.5,   -4.1,   -3.9,   -4.1,   -4.1,   -4.4,   -1.7,   -3.3,   -5.2,   -5.0,   -4.3,   -5.8,   -6.3,   -5.1,   -6.6,  999.0,  999.0,  -18.8,  -20.6,  -22.5,  -25.2,  -26.8,  -29.2,  999.0,  999.0,  -30.8,  -34.8,  -36.6,  999.0,  999.0,  -39.8,  -38.4,  -33.2,  -24.9,  -20.4,  -15.3,   -9.4,   -2.9,   -1.2,    5.4,   10.3,   14.5,  999.0,  999.0,  999.0,  999.0,  999.0,  999.0,  999.0,  999.0,  999.0,  999.0,  999.0,  999.0,  999.0,  999.0,  999.0,    4.9,    2.3,    0.6,  999.0,   -4.5,   -4.5,   -7.7
2004/02/10 04:40,   -1.9,   -1.0,    1.0,    3.8,    5.7,    6.7,    5.6,    4.9,    4.6,    3.6,    3.2,    2.6,    3.2,    3.3,    1.3,    1.4,    2.3,    2.6,    2.8,    3.0,    2.2,    3.0,    2.8,    1.2,    0.1,   -0.2,    1.2,  999.0,    1.0,    0.8,  999.0,    0.6,    0.3,   -1.1,   -3.1,   -3.5,   -3.5,   -1.6,   -1.0,   -1.4,   -1.8,   -2.4,   -4.3,   -3.1,   -3.2,   -4.2,   -5.7,   -5.8,   -4.6,   -5.0,   -3.7,   -4.1,   -4.5,   -3.6,   -4.0,   -3.8,   -3.8,   -3.8,   -3.9,   -4.4,   -5.2,   -6.0,   -4.1,   -5.3,   -5.1,   -4.6,   -3.6,   -5.3,   -5.3,   -5.8,   -6.7,  -15.4,  -18.6,  -20.1,  -22.0,  -23.8,  -26.1,  -27.6,  999.0,  999.0,  999.0,  -31.5,  -36.5,  999.0,  999.0,  999.0,  -41.4,  -41.2,  -34.0,  -26.5,  -20.1,  -14.7,   -9.0,   -3.4,    0.6,    6.9,   12.1,  999.0,  999.0,  999.0,  999.0,  999.0,  999.0,  999.0,  999.0,  999.0,  999.0,  999.0,  999.0,  999.0,  999.0,  999.0,    7.3,    5.5,    2.8,    1.6,  999.0,  999.0,   -5.3,  999.0
2004/02/10 04:50,   -2.5,   -1.3,    0.8,    4.4,    6.9,    7.5,    6.3,    6.1,    5.9,    4.1,    3.8,    2.5,    3.2,    3.8,    2.2,    2.3,    2.9,    3.3,    3.6,    4.4,    3.9,    2.8,    2.8,    2.0,    0.7,    0.6,    1.4,    1.4,    1.1,    0.8,    0.7,    0.4,   -0.7,   -2.4,   -4.6,   -4.1,   -3.7,   -1.7,   -1.1,   -2.0,   -2.8,   -3.9,   -2.7,   -3.0,   -3.9,   -5.4,   -6.2,   -6.1,   -4.4,   -4.7,   -2.7,   -3.6,   -3.7,   -3.5,   -3.6,   -3.6,   -4.1,   -4.0,   -4.2,   -5.2,   -5.7,   -5.8,   -3.1,   -3.7,   -3.1,   -3.9,   -1.8,   -4.7,   -5.0,   -5.6,  999.0,  -16.1,  -18.5,  -20.9,  -22.6,  -23.5,  999.0,  -27.2,  999.0,  999.0,  999.0,  -30.1,  -35.0,  -38.9,  999.0,  999.0,  -42.1,  -42.1,  -32.6,  -25.8,  -20.5,  -15.5,   -9.4,   -3.3,    0.3,    5.3,   11.1,   16.0,  999.0,  999.0,  999.0,  999.0,  999.0,  999.0,  999.0,  999.0,  999.0,   14.9,  999.0,  999.0,  999.0,  999.0,    7.3,    6.1,    3.3,    1.9,  999.0,   -3.9,   -5.1,   -7.4
2004/02/10 05:00,   -2.5,   -2.1,    0.9,    4.8,    7.7,    8.0,    6.4,    6.1,    6.3,    4.3,    3.8,    2.8,    3.1,    3.0,    1.7,    2.1,    2.5,    2.7,    3.3,    4.3,    2.9,    1.9,    1.6,    0.5,   -0.7,    0.2,    0.8,    1.2,    1.0,    0.5,    0.8,   -0.1,   -1.1,   -2.8,   -4.1,   -4.0,   -2.9,   -0.9,   -0.7,   -2.2,   -3.0,   -2.9,   -3.2,   -3.4,   -4.4,   -5.1,   -5.5,   -5.4,   -4.8,   -3.7,   -3.1,   -4.4,   -3.3,   -3.2,   -3.7,   -4.0,   -4.2,   -4.5,   -5.0,   -5.4,   -5.4,   -4.9,   -2.7,   -3.0,   -2.5,   -4.4,   -1.4,   -4.2,   -4.7,   -5.6,   -7.3,  -16.4,  -18.3,  -20.9,  -23.0,  999.0,  -24.7,  -28.5,  999.0,  999.0,  999.0,  -29.6,  -34.7,  -36.6,  -40.4,  999.0,  -41.5,  -40.8,  -33.6,  -25.7,  -20.1,  -15.3,  -10.0,   -4.0,    0.4,    5.2,   10.5,   16.3,   18.6,  999.0,  999.0,  999.0,  999.0,  999.0,  999.0,  999.0,  999.0,  999.0,   16.3,  999.0,  999.0,  999.0,    8.4,    6.5,    3.4,    1.9,  999.0,  999.0,   -4.1,   -7.0
2004/02/10 05:10,   -3.1,   -2.9,   -1.0,    4.1,    7.2,    8.1,    6.6,    6.2,    6.4,    5.2,    3.9,    3.6,    3.3,    3.0,    2.3,    2.5,    1.8,    2.2,    3.1,    2.9,    2.6,    1.6,    1.5,    0.5,    0.0,    0.5,    1.0,    0.4,    0.8,    0.6,    0.0,   -0.2,   -0.5,   -1.9,   -2.7,   -2.7,   -1.8,    0.6,    0.2,   -2.1,   -2.7,   -2.0,   -2.4,   -3.3,   -3.8,   -4.4,   -5.2,   -5.1,   -4.1,   -3.6,   -4.6,   -4.4,   -3.7,   -3.5,   -3.9,   -3.7,   -4.5,   -4.9,   -5.1,   -4.9,   -5.1,   -4.6,   -2.2,   -2.6,   -3.0,   -3.6,   -0.9,   -4.1,   -3.8,   -5.0,   -6.8,  -17.1,  -19.2,  -21.8,  -22.9,  999.0,  999.0,  999.0,  999.0,  999.0,  -27.0,  -31.1,  -36.2,  -37.8,  -41.8,  999.0,  -42.2,  -42.3,  -35.9,  -28.3,  -22.2,  -16.1,  -10.9,   -4.1,    0.2,    5.3,   10.5,   16.0,  999.0,  999.0,  999.0,  999.0,  999.0,  999.0,  999.0,  999.0,  999.0,  999.0,  999.0,  999.0,  999.0,  999.0,    8.4,  999.0,  999.0,    1.0,  999.0,  999.0,   -4.4,   -6.4
2004/02/10 05:20,   -3.8,   -3.0,   -2.0,    3.5,    6.3,    7.9,    6.9,    6.4,    6.7,    5.6,    5.0,    4.5,    3.9,    3.6,    3.2,    2.8,    2.6,    2.3,    2.4,    2.1,    1.9,    2.0,    1.7,    1.4,    1.0,    1.0,    0.3,    0.3,   -0.2,   -0.5,   -0.4,   -0.6,   -1.3,   -2.1,   -3.5,   -3.3,   -2.7,    0.5,    0.5,   -1.5,   -2.4,   -1.8,   -2.0,   -3.2,   -3.9,   -4.7,   -5.2,   -5.1,   -3.4,   -3.7,   -5.1,   -3.9,   -3.1,   -3.1,   -3.3,   -3.7,   -4.4,   -4.7,   -4.8,   -4.3,   -4.6,   -4.0,   -1.6,   -1.6,   -2.9,   -3.0,   -2.2,   -5.7,   -4.0,   -5.3,   -6.7,  -16.6,  -18.8,  -20.5,  -22.4,  999.0,  999.0,  999.0,  999.0,  999.0,  -28.3,  -32.6,  999.0,  -37.2,  -42.1,  999.0,  -43.9,  -42.4,  -34.7,  -28.4,  -21.9,  -15.6,  -10.1,   -3.1,    1.0,    7.0,   11.4,   16.8,  999.0,  999.0,  999.0,  999.0,  999.0,  999.0,  999.0,  999.0,  999.0,  999.0,  999.0,  999.0,  999.0,  999.0,  999.0,  999.0,  999.0,    0.7,   -2.6,  999.0,   -4.2,   -5.9
2004/02/10 05:30,   -3.3,   -2.4,   -2.3,    1.0,    5.4,    7.8,    7.3,    7.3,    7.0,    6.3,    6.0,    5.7,    5.3,    5.0,    3.8,    3.2,    2.8,    2.7,    2.4,    1.4,    0.7,    1.4,    1.2,    0.5,    0.4,    0.1,    0.0,    0.7,    0.1,    0.1,   -0.0,   -0.1,   -0.8,   -2.3,   -2.6,   -3.0,   -2.4,    0.8,    0.4,   -1.2,   -2.3,   -2.3,   -2.3,   -3.3,   -3.4,   -4.3,   -5.2,   -5.3,   -4.0,   -2.4,   -3.7,   -3.9,   -3.1,   -2.3,   -2.4,   -2.7,   -3.7,   -4.1,   -4.4,   -4.2,   -3.9,   -3.5,   -0.7,   -1.2,   -2.0,   -2.3,   -2.6,   -6.5,   -4.8,   -4.9,   -6.4,  999.0,  -18.4,  -20.7,  -21.4,  -24.0,  999.0,  999.0,  999.0,  999.0,  -30.5,  999.0,  999.0,  -36.7,  -43.2,  999.0,  -43.3,  -40.9,  -34.5,  -26.4,  -20.0,  -15.2,   -9.3,   -4.3,    0.8,    7.4,   12.1,  999.0,  999.0,  999.0,  999.0,  999.0,  999.0,  999.0,  999.0,  999.0,  999.0,   16.8,   11.6,  999.0,  999.0,  999.0,    1.8,  999.0,  999.0,    1.4,  999.0,  999.0,   -4.2,   -5.6
2004/02/10 05:40,   -3.1,   -3.1,   -3.2,   -1.7,    4.2,    7.1,    7.1,    6.7,    6.2,    5.5,    5.3,    5.4,    5.1,    4.8,    4.2,    4.2,    3.4,    3.3,    3.3,    2.1,    1.5,    1.6,    1.5,    0.8,    0.5,   -0.2,    0.4,    0.9,    0.8,    0.5,    0.5,    0.3,   -1.2,   -2.6,   -2.8,   -2.8,   -2.2,   -0.2,   -0.1,   -1.2,   -2.0,   -1.9,   -2.7,   -3.6,   -4.2,   -4.5,   -5.3,   -5.2,   -3.7,   -2.7,   -3.5,   -4.1,   -3.0,   -2.6,   -2.5,   -2.5,   -3.5,   -4.2,   -4.1,   -3.8,   -4.1,   -3.8,   -2.2,   -1.5,   -1.3,   -2.9,   -2.3,   -6.2,   -5.9,   -5.5,   -6.1,  999.0,  999.0,  999.0,  999.0,  999.0,  999.0,  999.0,  999.0,  -27.5,  -30.3,  -34.2,  -37.1,  -37.8,  999.0,  999.0,  -43.0,  -39.1,  -32.1,  -25.0,  -17.8,  -13.1,   -7.6,   -3.3,    2.2,    7.8,   12.5,   17.5,  999.0,  999.0,  999.0,  999.0,  999.0,  999.0,  999.0,  999.0,  999.0,   16.4,   18.3,  999.0,  999.0,  999.0,  999.0,  999.0,    5.3,    1.8,  999.0,  999.0,   -4.3,   -5.6
2004/02/10 05:50,   -2.5,   -3.8,   -4.8,   -3.8,    1.8,    6.4,    6.2,    6.1,    5.6,    4.6,    5.1,    5.0,    5.1,    4.8,    4.4,    4.4,    3.3,    3.1,    3.0,    1.9,    1.6,    2.0,    2.0,    0.8,    0.1,    0.2,    0.7,    0.8,    0.8,    0.6,    0.5,    0.4,   -1.1,   -2.2,   -2.5,   -2.6,   -1.8,   -1.4,   -0.4,   -1.1,   -1.0,   -1.5,   -3.1,   -4.3,   -4.5,   -5.4,   -6.0,   -6.2,   -4.0,   -3.0,   -4.1,   -4.7,   -3.7,   -3.5,   -3.1,   -3.1,   -3.8,   -4.4,   -4.6,   -5.2,   -5.3,   -4.5,   -3.1,   -2.6,   -1.2,   -2.6,   -4.0,   -6.9,   -5.7,   -6.1,   -7.5,   -8.1,  -19.0,  999.0,  999.0,  999.0,  999.0,  999.0,  999.0,  -28.1,  -31.1,  -35.2,  -38.9,  999.0,  999.0,  -41.2,  -41.2,  -39.4,  -31.0,  -24.6,  -17.4,  -12.3,   -7.0,   -2.5,    2.8,    7.1,   11.3,  999.0,  999.0,  999.0,  999.0,  999.0,  999.0,  999.0,  999.0,  999.0,  999.0,  999.0,   18.1,  999.0,  999.0,  999.0,    9.2,    6.1,    5.2,  999.0,  999.0,  999.0,   -4.1,   -5.9
2004/02/10 06:00,   -4.0,   -3.5,   -1.9,   -2.0,    2.6,    4.9,    5.2,    5.2,    4.9,    4.9,    5.1,    5.3,    5.5,    4.7,    4.0,    4.1,    3.0,    2.8,    2.6,    2.0,    2.6,    2.3,    2.4,    0.6,   -0.4,    0.1,    1.3,    1.0,    1.7,    1.2,    0.8,    0.7,   -0.7,   -2.2,   -2.8,   -2.7,   -1.8,   -1.4,   -0.7,   -0.9,   -0.6,   -1.4,   -3.1,   -3.9,   -4.3,   -5.3,   -6.0,   -6.3,   -3.1,   -2.9,   -4.7,   -4.6,   -3.5,   -3.1,   -2.6,   -3.4,   -3.9,   -4.5,   -4.6,   -4.6,   -4.5,   -4.2,   -3.8,   -3.3,   -1.9,   -3.6,   -5.6,   -7.3,   -6.5,   -6.5,   -7.9,  999.0,  999.0,  999.0,  999.0,  999.0,  -24.1,  -25.4,  999.0,  -28.6,  -31.0,  -35.6,  -40.0,  999.0,  999.0,  999.0,  -43.0,  -37.5,  -30.4,  -23.9,  -17.7,  -13.1,   -7.8,   -3.4,    1.1,    5.2,    9.4,   14.7,  999.0,  999.0,  999.0,  999.0,  999.0,  999.0,  999.0,  999.0,  999.0,  999.0,  999.0,  999.0,  999.0,  999.0,  999.0,    7.0,  999.0,    2.7,  999.0,   -2.8,   -3.8,   -5.6
2004/02/10 06:10,   -4.4,   -2.4,   -2.0,   -1.0,    2.8,    5.5,    6.0,    5.1,    4.5,    4.7,    4.7,    5.1,    5.4,    4.4,    3.6,    3.0,    2.6,    2.1,    1.5,    2.5,    3.4,    3.0,    2.9,    1.4,   -0.2,   -0.1,    1.1,    1.5,    1.2,    1.1,    1.1,    0.2,   -1.4,   -1.6,   -1.6,   -1.0,   -0.3,   -0.6,   -0.7,   -0.9,  999.0,   -1.1,   -2.6,   -3.4,   -4.0,   -4.5,   -5.2,   -5.5,   -2.6,   -2.3,   -4.0,   -3.5,   -2.7,   -2.4,   -1.7,   -3.0,   -3.6,   -4.3,   -4.6,   -4.4,   -4.2,   -4.6,   -3.5,   -2.7,   -3.7,   -4.0,   -7.0,   -8.8,   -7.5,   -7.2,  999.0,  999.0,  -19.4,  999.0,  999.0,  999.0,  -24.4,  -25.8,  -27.7,  -28.5,  -31.8,  -35.3,  -38.3,  999.0,  999.0,  999.0,  -42.3,  -39.0,  -31.4,  -24.9,  -19.0,  -13.4,   -8.6,   -3.6,    0.4,    4.8,    8.3,   13.1,   20.1,  999.0,  999.0,  999.0,  999.0,  999.0,  999.0,  999.0,  999.0,  999.0,  999.0,  999.0,  999.0,  999.0,    7.6,  999.0,    3.6,    2.7,  999.0,  999.0,   -3.6,   -5.3
2004/02/10 06:20,   -3.8,   -2.6,   -2.3,   -1.1,    2.1,    4.8,    5.6,    4.6,    4.5,    4.6,    5.2,    5.8,    6.0,    5.2,    4.3,    3.2,    2.5,    0.7,    0.2,    2.5,    4.1,    3.9,    3.4,    3.1,    1.6,    0.3,    0.9,    1.3,    1.5,    1.1,    1.1,    0.6,   -1.3,   -1.1,   -0.8,   -0.0,    0.4,   -0.5,   -0.7,   -0.5,    0.3,   -1.2,   -3.1,   -3.9,   -4.9,   -5.4,   -5.6,   -4.7,   -2.5,   -3.4,   -4.1,   -3.2,   -2.2,   -2.0,   -1.8,   -2.9,   -3.7,   -4.1,   -3.5,   -3.5,   -4.3,   -4.9,   -2.7,   -2.1,   -3.2,   -3.9,   -7.6,   -9.2,   -6.2,   -7.3,  999.0,  999.0,  999.0,  999.0,  999.0,  999.0,  -25.4,  -26.2,  -27.1,  -29.7,  -32.0,  -34.8,  -38.0,  -42.6,  999.0,  -40.9,  -41.7,  -40.0,  -31.5,  -24.6,  -19.9,  -14.6,   -9.5,   -4.7,   -0.2,    4.4,    9.2,   13.7,   17.8,  999.0,  999.0,  999.0,  999.0,  999.0,  999.0,   15.2,  999.0,   15.5,  999.0,  999.0,  999.0,  999.0,  999.0,  999.0,    3.6,  999.0,  999.0,  999.0,   -4.1,   -5.2
2004/02/10 06:30,   -4.5,   -2.1,   -1.8,   -0.6,    2.0,    4.6,    4.7,    3.8,    3.7,    3.8,    4.0,    4.9,    5.3,    5.2,    4.9,    4.2,    3.6,    2.2,    0.2,    1.3,    2.6,    3.8,    2.8,    3.1,    2.4,    0.9,    1.0,    1.6,    1.6,    1.4,    1.2,    0.6,   -1.1,   -1.5,   -0.3,    0.6,    0.9,    0.0,   -0.4,   -0.7,    0.5,   -1.0,   -3.5,   -4.3,   -5.8,   -6.3,   -6.3,   -4.9,   -2.8,   -3.8,   -4.6,   -3.4,   -2.5,   -2.3,   -2.5,   -3.3,   -4.1,   -4.3,   -3.6,   -4.2,   -5.1,   -4.3,   -2.6,   -2.5,   -3.7,   -4.2,   -7.5,   -9.2,   -6.3,   -7.7,   -7.5,  -10.1,  999.0,  999.0,  999.0,  -23.0,  -26.8,  999.0,  -27.5,  -30.6,  -33.4,  -36.4,  -40.4,  999.0,  -44.4,  -41.8,  -44.3,  -41.2,  -34.4,  -26.8,  -22.4,  -16.1,  -11.8,   -5.9,   -3.4,    3.0,    8.9,   13.2,   17.7,  999.0,  999.0,  999.0,  999.0,  999.0,  999.0,  999.0,  999.0,   16.0,   18.2,  999.0,  999.0,  999.0,  999.0,  999.0,  999.0,    2.9,  999.0,  999.0,  999.0,   -4.3
2004/02/10 06:40,   -4.1,   -2.2,   -1.3,   -0.5,    2.5,    4.6,    5.3,    4.6,    4.1,    4.9,    3.9,    4.1,    4.3,    4.4,    4.3,    3.4,    1.5,    0.9,   -0.4,   -0.1,    2.2,    2.9,    2.5,    2.5,    2.3,    1.8,    2.0,    2.4,    2.2,    1.9,    1.1,    0.9,   -0.8,   -1.3,    0.3,    0.4,    0.5,   -0.4,   -0.7,   -1.1,    0.4,   -0.7,   -3.0,   -5.0,   -6.2,   -6.2,   -6.1,   -4.4,   -3.2,   -3.6,   -3.9,   -2.7,   -2.6,   -2.2,   -2.5,   -3.7,   -4.0,   -4.3,   -4.5,   -4.6,   -5.2,  999.0,   -2.4,   -1.5,   -3.3,   -3.6,   -7.0,   -6.3,   -5.8,   -6.8,   -0.0,  999.0,  999.0,  999.0,  999.0,  999.0,  999.0,  999.0,  -27.5,  -29.8,  -32.4,  -35.6,  -39.4,  -41.1,  999.0,  -42.2,  -42.4,  -37.3,  -30.5,  -23.5,  -19.2,  -13.5,   -9.9,   -4.4,   -1.1,    4.2,    8.8,   13.0,   19.5,  999.0,  999.0,  999.0,  999.0,  999.0,  999.0,  999.0,  999.0,   16.3,  999.0,  999.0,  999.0,  999.0,  999.0,  999.0,    2.0,  999.0,  999.0,  999.0,  999.0,   -4.9
2004/02/10 06:50,   -4.3,   -2.8,   -2.3,   -1.6,    1.4,    5.0,    5.9,    4.5,    4.4,    5.0,    4.3,    4.0,    4.2,    4.7,    4.4,    3.8,    2.6,    1.7,    1.2,    1.7,    3.6,    3.9,    3.5,    3.5,    3.4,    2.8,    2.4,    2.8,    1.6,    1.1,    0.8,    0.6,   -0.4,   -0.5,    1.0,   -0.9,   -1.3,   -2.0,   -2.0,   -0.5,    0.9,   -1.6,   -3.4,   -5.9,   -6.6,   -6.1,   -6.4,   -3.9,   -3.4,   -3.9,   -3.4,   -2.4,   -2.6,   -1.5,   -2.2,   -3.4,   -4.3,   -4.8,   -5.2,   -5.2,   -5.3,   -4.8,   -3.4,   -1.3,   -2.9,   -3.5,   -5.7,   -6.9,   -5.6,   -6.9,   -0.2,  999.0,  999.0,  -10.3,  -10.9,  999.0,  -24.8,  -26.5,  -27.3,  -29.4,  -31.1,  -34.8,  -38.5,  999.0,  -42.0,  -42.8,  -43.6,  -38.1,  -31.3,  -24.3,  -19.9,  -14.1,   -9.7,   -4.5,   -0.6,    3.7,    8.0,   13.2,   19.4,  999.0,  999.0,  999.0,  999.0,  999.0,  999.0,  999.0,  999.0,   16.0,   17.5,  999.0,  999.0,  999.0,    8.1,    4.6,    2.4,    1.9,  999.0,  999.0,  999.0,   -3.8
2004/02/10 07:00,   -4.6,   -2.3,   -1.3,   -1.5,    0.8,    4.2,    5.8,    3.7,    3.7,    4.6,    3.5,    3.7,    3.9,    4.3,    4.4,    3.6,    2.5,    1.2,    0.2,    1.2,    3.3,    3.6,    3.7,    4.0,    3.9,    3.2,    2.3,    2.4,    1.2,    0.8,    0.3,    0.7,   -0.5,    0.2,    0.7,   -1.4,   -2.4,   -3.0,   -3.3,   -1.1,   -0.1,   -2.3,   -4.2,   -6.4,   -6.6,   -6.7,   -7.1,   -4.1,   -4.1,   -4.9,   -3.8,   -3.3,   -3.1,   -2.4,   -3.0,   -4.0,   -5.0,   -4.3,   -4.9,   -6.5,   -6.6,   -5.0,   -5.2,   -0.5,   -2.8,   -4.8,   -5.3,   -6.3,   -5.6,   -7.0,   -7.4,  999.0,  999.0,  999.0,  999.0,  999.0,  -24.3,  -26.5,  -27.9,  -29.3,  -31.2,  -34.8,  -39.3,  -39.1,  -42.3,  -43.0,  -43.7,  -38.2,  -31.9,  -24.9,  -20.0,  -14.9,  -10.1,   -5.6,   -1.4,    3.8,    9.0,   13.6,   18.4,  999.0,  999.0,  999.0,  999.0,  999.0,  999.0,  999.0,   17.2,   15.7,  999.0,  999.0,  999.0,  999.0,  999.0,  999.0,  999.0,  999.0,  999.0,  999.0,  999.0,   -4.3
2004/02/10 07:10,   -4.0,   -2.3,   -1.0,   -1.1,    1.4,    4.0,    5.7,    4.0,    3.7,    4.3,    3.1,    3.3,    3.7,    3.7,    3.9,    3.7,    2.2,    1.2,   -0.2,   -0.1,    2.7,    2.9,    3.0,    3.6,    3.3,    2.5,    2.3,    3.2,    2.0,    0.8,    0.2,    0.2,   -1.0,   -0.3,   -1.0,   -1.9,   -2.5,   -3.3,   -3.5,   -0.8,   -1.0,   -2.9,   -5.7,   -7.1,   -6.7,   -6.3,   -6.8,   -3.4,   -3.7,   -4.6,   -3.4,   -3.3,   -2.5,   -1.8,   -2.7,   -3.8,   -4.2,   -4.0,   -4.8,   -6.2,  999.0,  999.0,   -4.9,   -1.2,   -3.6,   -6.0,   -4.6,   -5.4,   -5.9,   -7.4,   -6.9,  999.0,  999.0,  999.0,  999.0,  999.0,  -23.4,  999.0,  -27.7,  -29.9,  -31.8,  -35.5,  -39.0,  -40.0,  999.0,  -41.0,  -43.1,  -37.7,  -32.0,  -26.6,  -18.6,  -14.3,   -9.6,   -4.8,   -0.6,    4.0,    8.1,   12.9,   17.2,  999.0,  999.0,  999.0,  999.0,  999.0,  999.0,  999.0,  999.0,   15.6,  999.0,  999.0,  999.0,  999.0,  999.0,  999.0,    4.8,    3.2,  999.0,  999.0,  999.0,   -4.5
2004/02/10 07:20,   -3.8,   -2.4,   -0.5,   -0.8,    1.3,    4.3,    6.1,    4.9,    3.7,    4.2,    3.6,    3.8,    4.0,    4.2,    3.6,    3.6,    2.5,    1.8,    0.1,    0.4,    2.8,    3.3,    3.6,    3.9,    3.6,    3.0,    3.0,    3.7,    2.1,   -0.1,   -0.6,   -0.7,   -1.7,   -1.3,   -1.5,   -1.7,   -2.6,   -2.9,   -2.6,   -0.0,   -1.1,   -3.2,   -5.8,   -6.6,   -6.4,   -5.6,   -5.8,   -3.4,   -4.1,   -4.8,   -3.6,   -3.5,   -3.4,   -2.5,   -2.7,   -3.8,   -4.2,   -4.4,   -5.0,   -5.9,   -6.1,   -6.9,   -5.0,   -3.9,   -4.9,   -6.1,   -5.3,   -4.7,   -6.3,   -7.2,   -8.3,  999.0,  999.0,  -21.0,  -22.5,  -24.4,  999.0,  -25.4,  -28.5,  -31.4,  -32.7,  -37.7,  -39.8,  -41.7,  999.0,  -43.0,  -47.2,  -38.7,  -32.0,  -26.1,  -20.7,  -14.7,   -9.6,   -4.5,   -0.5,    3.2,    7.1,   11.5,   16.6,  999.0,  999.0,  999.0,  999.0,  999.0,  999.0,  999.0,  999.0,   15.7,   16.5,  999.0,  999.0,  999.0,  999.0,    5.7,    4.8,    4.2,  999.0,  999.0,  999.0,   -4.5
2004/02/10 07:30,   -4.3,   -2.3,   -0.9,   -1.1,    0.7,    3.7,    5.7,    5.3,    3.4,    3.7,    4.0,    3.3,    3.6,    3.6,    3.2,    3.3,    1.9,    1.5,    0.8,    1.6,    2.7,    3.2,    3.2,    3.5,    3.3,    2.6,    2.2,    2.6,    1.7,    0.1,   -0.1,   -0.5,   -1.3,   -1.0,   -1.4,   -1.5,   -2.8,   -3.3,   -2.9,   -0.5,   -1.7,   -3.9,   -6.6,   -7.0,   -7.1,   -6.7,   -6.2,   -3.7,   -4.8,   -5.3,   -4.0,   -4.0,   -4.1,   -3.2,   -2.7,   -3.7,   -4.1,   -4.6,   -5.3,   -5.4,   -5.6,   -6.8,   -6.2,   -4.8,   -4.6,   -5.7,   -5.4,   -5.2,   -6.2,   -7.2,   -8.5,  999.0,  999.0,  999.0,  999.0,  999.0,  999.0,  999.0,  -29.2,  -31.4,  -33.6,  -38.3,  999.0,  -41.8,  999.0,  -42.5,  -46.1,  -40.8,  -32.7,  -26.7,  -21.0,  -15.2,   -9.9,   -5.5,   -0.4,    3.2,    8.6,   12.8,   17.6,  999.0,  999.0,  999.0,  999.0,  999.0,  999.0,  999.0,   13.2,   16.9,  999.0,  999.0,  999.0,  999.0,  999.0,    6.1,    4.8,  999.0,  999.0,  999.0,   -2.7,   -4.2
2004/02/10 07:40,   -5.6,   -2.4,   -0.8,   -1.3,    0.5,    3.2,    5.0,    5.3,    3.1,    3.3,    3.7,    2.9,    3.0,    3.1,    2.9,    3.1,    2.2,    1.8,    0.8,    1.3,    3.0,    3.3,    3.7,    3.7,    2.9,    2.2,    1.6,    2.1,    2.0,    0.0,   -0.5,   -0.5,   -1.3,   -0.8,  999.0,   -1.6,   -3.1,   -3.1,   -2.9,   -0.7,   -2.6,   -4.7,   -6.8,   -7.2,   -7.3,   -7.2,   -6.8,   -3.8,   -5.1,   -5.1,   -4.1,   -3.8,   -3.8,   -3.2,   -3.1,   -4.1,   -4.5,   -5.2,   -6.0,  999.0,  999.0,   -6.2,   -6.4,   -4.7,   -4.8,   -4.6,   -6.3,   -8.8,   -6.5,   -7.1,   -8.0,  999.0,  -20.9,  -22.3,  -24.7,  999.0,  999.0,  999.0,  999.0,  -29.9,  -33.1,  -36.7,  -39.7,  -41.5,  999.0,  -41.4,  -44.0,  -40.7,  -31.7,  -26.0,  -19.9,  -14.1,   -9.6,   -6.2,   -0.5,    4.1,    9.6,   14.3,   18.7,  999.0,  999.0,  999.0,  999.0,  999.0,  999.0,  999.0,   15.0,  999.0,  999.0,  999.0,  999.0,  999.0,  999.0,    6.6,    5.4,  999.0,  999.0,  999.0,  999.0,   -4.7
2004/02/10 07:50,   -4.8,   -3.1,   -0.7,   -0.7,    0.4,    3.5,    5.6,    5.5,    3.4,    3.4,    3.4,    2.7,    2.6,    2.8,    2.9,    3.0,    2.1,    1.9,    1.3,    2.2,    3.0,    3.2,    3.9,    3.4,    2.2,    1.6,    1.8,    1.5,    1.8,   -0.4,   -0.4,   -0.7,   -1.5,   -0.9,  999.0,   -1.5,   -2.5,   -3.0,   -2.9,   -0.9,   -2.9,   -5.2,   -6.5,   -6.7,   -7.0,   -6.6,   -5.6,   -3.5,   -4.7,   -4.5,   -3.9,   -3.9,   -3.0,   -2.8,   -2.8,   -3.8,   -4.7,   -5.5,   -6.0,   -6.0,   -5.6,   -5.8,   -6.2,   -3.9,   -4.5,   -5.4,   -6.3,  -10.0,   -6.3,   -7.4,   -8.4,  -18.1,  -20.7,  -22.1,  999.0,  999.0,  999.0,  999.0,  -26.2,  -28.1,  -31.9,  -36.2,  -39.7,  -42.1,  999.0,  -41.5,  -42.7,  -38.8,  -30.2,  -25.3,  -19.5,  -13.9,   -9.5,   -4.8,    0.3,    5.0,   10.6,   15.4,  999.0,  999.0,  999.0,  999.0,  999.0,  999.0,  999.0,  999.0,  999.0,  999.0,  999.0,  999.0,  999.0,  999.0,  999.0,  999.0,    4.7,    4.3,  999.0,  999.0,   -1.5,   -5.4
2004/02/10 08:00,  999.0,  999.0,  999.0,  999.0,  999.0,  999.0,  999.0,  999.0,  999.0,  999.0,  999.0,  999.0,  999.0,  999.0,  999.0,  999.0,  999.0,  999.0,  999.0,  999.0,  999.0,  999.0,  999.0,  999.0,  999.0,  999.0,  999.0,  999.0,  999.0,  999.0,  999.0,  999.0,  999.0,  999.0,  999.0,  999.0,  999.0,  999.0,  999.0,  999.0,  999.0,  999.0,  999.0,  999.0,  999.0,  999.0,  999.0,  999.0,  999.0,  999.0,  999.0,  999.0,  999.0,  999.0,  999.0,  999.0,  999.0,  999.0,  999.0,  999.0,  999.0,  999.0,  999.0,  999.0,  999.0,  999.0,  999.0,  999.0,  999.0,  999.0,  999.0,  999.0,  999.0,  999.0,  999.0,  999.0,  999.0,  999.0,  999.0,  999.0,  999.0,  999.0,  999.0,  999.0,  999.0,  999.0,  999.0,  999.0,  999.0,  999.0,  999.0,  999.0,  999.0,  999.0,  999.0,  999.0,  999.0,  999.0,  999.0,  999.0,  999.0,  999.0,  999.0,  999.0,  999.0,  999.0,  999.0,  999.0,  999.0,  999.0,  999.0,  999.0,  999.0,  999.0,  999.0,  999.0,  999.0,  999.0,  999.0,  999.0
2004/02/10 08:10,   -4.6,   -3.1,   -1.6,   -0.7,    2.1,    3.7,    5.6,    4.7,    3.2,    3.7,    3.2,    2.1,    1.5,    2.0,    2.2,    1.7,    1.2,    1.4,    1.5,    2.3,    3.1,    3.6,    4.3,    2.4,    1.8,    0.4,   -0.3,    0.2,    0.2,    0.1,    0.3,   -1.2,   -2.7,   -1.9,   -2.0,   -2.4,   -3.2,   -3.7,   -3.0,   -2.9,   -3.5,   -6.7,   -6.9,   -6.9,   -6.9,   -6.7,   -3.7,   -4.0,   -4.6,   -4.0,   -4.5,   -4.8,   -4.5,   -4.0,   -4.1,   -5.1,   -6.0,   -6.9,   -7.0,   -6.9,   -5.8,   -5.9,   -5.7,   -3.5,   -4.5,   -3.9,   -3.6,   -5.2,   -5.4,   -6.3,   -7.3,  -18.9,  -21.3,  999.0,  999.0,  999.0,  999.0,  999.0,  999.0,  -27.7,  -30.6,  -34.3,  -36.0,  -38.9,  -45.3,  999.0,  -40.6,  -42.7,  -30.9,  -25.8,  -19.8,  -12.9,   -8.2,   -3.3,    0.3,    4.5,    9.5,   13.9,  999.0,  999.0,  999.0,  999.0,  999.0,  999.0,  999.0,  999.0,   14.7,  999.0,   14.4,  999.0,  999.0,  999.0,  999.0,  999.0,  999.0,  999.0,  999.0,  999.0,   -2.0,   -4.8
2004/02/10 08:20,   -4.7,   -2.9,   -2.4,   -0.8,    2.5,    4.6,    5.5,    4.2,    3.5,    3.9,    3.5,    2.7,    2.7,    3.0,    2.8,    1.9,    1.4,    1.6,    2.0,    1.9,    2.0,    2.4,    2.8,    2.0,    1.0,    0.3,   -0.6,    0.2,    0.3,    0.3,    0.3,   -1.5,   -3.2,   -2.1,   -2.5,   -2.9,   -4.1,   -3.7,   -2.6,   -3.1,   -5.5,   -7.1,   -7.3,   -7.4,   -7.4,   -7.4,   -4.2,   -3.9,   -4.0,   -3.8,   -4.3,   -4.3,   -4.5,   -4.3,   -4.4,   -5.5,   -6.2,   -6.6,   -6.7,   -6.3,   -6.0,   -6.1,   -5.9,   -3.3,   -4.9,   -5.8,   -5.3,   -5.6,   -4.7,   -6.1,  999.0,  -18.1,  -20.4,  -21.7,  999.0,  999.0,  999.0,  999.0,  999.0,  -27.1,  -31.6,  -34.3,  -36.3,  -39.7,  999.0,  999.0,  -41.8,  -38.3,  -33.1,  -25.2,  -20.1,  -13.7,   -8.5,   -4.1,   -0.1,    4.5,    9.4,   14.2,  999.0,  999.0,  999.0,  999.0,  999.0,  999.0,  999.0,  999.0,  999.0,  999.0,  999.0,  999.0,  999.0,  999.0,  999.0,  999.0,  999.0,  999.0,  999.0,  999.0,   -2.4,   -4.6
2004/02/10 08:30,  999.0,  999.0,  999.0,  999.0,  999.0,  999.0,  999.0,  999.0,  999.0,  999.0,  999.0,  999.0,  999.0,  999.0,  999.0,  999.0,  999.0,  999.0,  999.0,  999.0,  999.0,  999.0,  999.0,  999.0,  999.0,  999.0,  999.0,  999.0,  999.0,  999.0,  999.0,  999.0,  999.0,  999.0,  999.0,  999.0,  999.0,  999.0,  999.0,  999.0,  999.0,  999.0,  999.0,  999.0,  999.0,  999.0,  999.0,  999.0,  999.0,  999.0,  999.0,  999.0,  999.0,  999.0,  999.0,  999.0,  999.0,  999.0,  999.0,  999.0,  999.0,  999.0,  999.0,  999.0,  999.0,  999.0,  999.0,  999.0,  999.0,  999.0,  999.0,  999.0,  999.0,  999.0,  999.0,  999.0,  999.0,  999.0,  999.0,  999.0,  999.0,  999.0,  999.0,  999.0,  999.0,  999.0,  999.0,  999.0,  999.0,  999.0,  999.0,  999.0,  999.0,  999.0,  999.0,  999.0,  999.0,  999.0,  999.0,  999.0,  999.0,  999.0,  999.0,  999.0,  999.0,  999.0,  999.0,  999.0,  999.0,  999.0,  999.0,  999.0,  999.0,  999.0,  999.0,  999.0,  999.0,  999.0,  999.0,  999.0
2004/02/10 08:40,  999.0,  999.0,  999.0,  999.0,  999.0,  999.0,  999.0,  999.0,  999.0,  999.0,  999.0,  999.0,  999.0,  999.0,  999.0,  999.0,  999.0,  999.0,  999.0,  999.0,  999.0,  999.0,  999.0,  999.0,  999.0,  999.0,  999.0,  999.0,  999.0,  999.0,  999.0,  999.0,  999.0,  999.0,  999.0,  999.0,  999.0,  999.0,  999.0,  999.0,  999.0,  999.0,  999.0,  999.0,  999.0,  999.0,  999.0,  999.0,  999.0,  999.0,  999.0,  999.0,  999.0,  999.0,  999.0,  999.0,  999.0,  999.0,  999.0,  999.0,  999.0,  999.0,  999.0,  999.0,  999.0,  999.0,  999.0,  999.0,  999.0,  999.0,  999.0,  999.0,  999.0,  999.0,  999.0,  999.0,  999.0,  999.0,  999.0,  999.0,  999.0,  999.0,  999.0,  999.0,  999.0,  999.0,  999.0,  999.0,  999.0,  999.0,  999.0,  999.0,  999.0,  999.0,  999.0,  999.0,  999.0,  999.0,  999.0,  999.0,  999.0,  999.0,  999.0,  999.0,  999.0,  999.0,  999.0,  999.0,  999.0,  999.0,  999.0,  999.0,  999.0,  999.0,  999.0,  999.0,  999.0,  999.0,  999.0,  999.0
2004/02/10 08:50,   -6.7,   -5.6,   -4.5,   -2.2,   -0.7,    3.5,    4.7,    4.5,    2.8,    3.2,    2.6,    1.6,    1.6,    2.0,    2.3,    2.5,    2.0,    2.4,    2.3,    3.1,    3.1,    3.1,    3.8,    2.0,   -0.1,   -1.8,   -1.7,   -1.0,   -0.3,    0.0,   -1.0,   -2.4,   -2.5,   -2.0,   -2.4,   -3.3,   -3.8,   -3.3,   -2.6,   -3.2,   -6.4,   -7.9,   -8.1,   -7.8,   -8.3,   -8.1,   -6.2,   -4.1,   -4.5,   -4.3,   -5.5,   -5.4,   -6.0,   -6.0,   -5.6,   -6.0,   -6.4,   -6.1,   -6.0,   -5.8,   -6.3,   -6.3,   -4.7,   -2.4,   -5.0,   -4.1,   -3.8,   -4.1,   -5.2,   -5.9,   -7.1,   -8.4,  999.0,  999.0,  999.0,  999.0,  999.0,  -24.3,  -26.6,  -28.4,  -32.3,  -35.2,  -38.8,  -41.9,  999.0,  999.0,  -43.6,  -41.3,  -32.8,  -26.2,  -20.0,  -13.5,   -8.7,   -3.5,    0.4,    4.1,    8.6,   13.5,   20.3,  999.0,  999.0,  999.0,  999.0,  999.0,  999.0,  999.0,  999.0,   13.4,  999.0,  999.0,  999.0,   12.1,  999.0,  999.0,  999.0,  999.0,  999.0,  999.0,  999.0,   -7.9
2004/02/10 09:00,   -6.3,   -5.4,   -4.7,   -2.0,   -0.2,    3.5,    4.9,    5.1,    3.1,    3.3,    3.0,    1.6,    1.6,    2.2,    2.4,    2.3,    1.9,    2.6,    2.4,    3.1,    3.2,    3.5,    3.9,    1.7,   -0.9,   -2.2,   -1.9,   -0.8,   -0.3,    0.1,   -0.8,   -2.2,   -2.3,   -2.0,   -2.3,   -3.4,   -3.5,   -3.0,   -2.2,   -2.8,   -5.7,   -7.1,   -7.3,   -7.7,   -8.1,   -7.4,   -6.5,   -3.6,   -3.9,   -4.1,   -5.2,   -5.4,   -5.6,   -5.8,   -5.8,   -6.0,   -6.5,   -6.2,   -6.3,   -6.2,   -6.4,   -5.9,   -2.3,   -0.7,   -2.9,   -2.6,   -2.5,   -3.7,   -4.4,   -5.3,   -6.5,   -7.6,  999.0,  999.0,  999.0,  999.0,  999.0,  -23.9,  -26.5,  -29.2,  -29.5,  -34.4,  -39.2,  -41.5,  999.0,  999.0,  -39.9,  -39.0,  -30.9,  -25.5,  -19.6,  -13.7,   -9.9,   -3.1,    0.9,    4.8,    9.8,   14.8,  999.0,  999.0,  999.0,  999.0,  999.0,  999.0,  999.0,  999.0,  999.0,  999.0,   16.1,  999.0,  999.0,    8.9,  999.0,    7.2,    5.3,  999.0,  999.0,  999.0,  999.0,  999.0
2004/02/10 09:10,   -5.1,   -5.1,   -3.9,   -1.7,    1.4,    3.9,    5.3,    5.4,    3.5,    3.3,    3.0,    1.9,    1.9,    2.1,    2.0,    1.8,    1.7,    2.1,    2.3,    3.1,    3.0,    3.3,    3.6,    0.9,   -1.7,   -2.4,   -1.6,   -1.3,   -0.7,   -0.7,   -0.6,   -2.2,   -2.1,   -2.4,   -3.1,   -4.8,   -3.7,   -3.3,   -2.3,   -2.9,   -6.0,   -7.2,   -7.3,   -7.5,   -8.0,   -6.7,   -5.5,   -3.4,   -3.6,   -4.2,   -5.3,   -5.5,   -5.4,   -5.7,   -5.7,   -6.1,   -6.7,   -6.4,   -6.5,   -6.7,   -6.5,  999.0,   -0.3,   -0.3,   -1.8,   -2.6,   -2.7,   -4.0,   -4.3,   -5.1,   -5.9,   -7.8,  999.0,  999.0,  999.0,  999.0,  999.0,  -22.6,  -24.4,  -28.4,  -29.0,  -33.5,  -36.0,  -38.5,  -42.3,  999.0,  -37.1,  -34.6,  -28.7,  -22.7,  -17.6,  -12.1,   -7.1,   -2.8,    2.3,    7.5,   10.8,   17.1,   20.4,  999.0,  999.0,  999.0,  999.0,   20.6,  999.0,  999.0,  999.0,  999.0,   15.6,  999.0,  999.0,  999.0,    7.1,    7.7,    3.7,  999.0,  999.0,  999.0,   -4.7,  999.0
2004/02/10 09:20,   -4.7,   -4.4,   -3.3,   -1.6,    1.5,    3.8,    5.1,    5.3,    3.3,    2.8,    2.4,    1.6,    1.9,    2.1,    1.7,    0.9,    0.7,    1.3,    1.8,    2.8,    2.7,    3.4,    3.5,    1.8,   -1.1,   -2.7,   -2.1,   -1.7,   -1.0,   -0.9,   -1.2,   -2.3,   -1.8,   -2.5,   -3.7,   -5.3,   -3.5,   -3.2,   -2.4,   -3.6,   -6.1,   -7.0,   -6.7,   -7.2,   -7.3,   -5.6,   -3.7,   -3.3,   -3.8,   -4.7,   -5.7,   -5.7,   -5.8,   -6.0,   -6.0,   -6.3,   -6.8,   -6.1,   -5.7,   -5.8,   -6.0,  999.0,   -0.3,   -1.9,   -1.0,   -1.2,   -2.0,   -3.3,   -4.2,   -5.0,   -5.9,  999.0,  999.0,  999.0,  999.0,  -18.5,  -21.2,  -21.8,  -24.3,  -28.5,  999.0,  -31.6,  -34.5,  -38.5,  -42.6,  999.0,  -38.7,  -37.1,  -31.0,  -23.8,  -17.8,  -13.4,   -7.8,   -3.4,   -0.4,    3.3,    8.7,   14.3,   18.4,   20.9,  999.0,  999.0,  999.0,  999.0,  999.0,  999.0,  999.0,  999.0,  999.0,  999.0,  999.0,  999.0,    7.8,    6.5,  999.0,  999.0,  999.0,  999.0,   -3.3,   -8.8
2004/02/10 09:30,   -6.6,   -3.2,   -2.8,   -1.5,    3.0,    4.2,    5.7,    5.6,    3.8,    3.5,    3.2,    2.4,    2.4,    2.7,    2.3,    0.8,    0.6,    1.2,    1.7,    2.5,    2.5,    3.0,    3.0,    1.1,   -0.8,   -2.4,   -2.4,   -1.8,   -1.5,   -1.8,   -2.3,   -2.7,   -2.6,   -3.4,   -4.9,   -6.1,   -3.9,   -3.2,   -3.1,   -4.8,   -6.9,   -7.1,   -7.1,   -7.6,   -7.4,   -5.9,   -3.7,   -3.7,   -4.2,   -5.3,   -5.6,   -5.8,   -6.1,   -6.4,   -6.4,   -6.5,   -6.0,   -5.9,   -5.1,   -5.8,   -4.2,   -3.8,   -1.0,   -1.2,   -1.0,   -0.3,   -0.7,   -2.9,   -4.1,   -4.8,   -6.1,  999.0,  999.0,  999.0,  999.0,  -20.6,  -22.3,  -23.2,  -27.0,  -29.7,  999.0,  -34.9,  -38.1,  -43.0,  -43.7,  999.0,  -42.1,  -42.1,  -34.2,  -27.9,  -21.2,  -15.0,  -10.4,   -3.8,    0.3,    3.9,    8.7,   14.1,   18.8,   19.2,  999.0,  999.0,  999.0,  999.0,  999.0,  999.0,   12.8,  999.0,  999.0,   15.2,  999.0,  999.0,  999.0,  999.0,    5.4,    4.3,  999.0,  999.0,  999.0,   -4.5
2004/02/10 09:40,   -1.7,   -2.7,   -2.6,   -2.1,    3.2,    4.6,    6.2,    5.8,    3.7,    3.5,    3.5,    2.6,    2.5,    2.6,    1.7,    1.2,    0.4,    0.9,    1.4,    2.2,    2.7,    2.9,    2.7,    1.4,   -1.1,   -1.9,   -2.6,   -2.9,   -2.1,   -1.8,   -2.4,   -2.9,   -2.8,   -3.5,   -5.0,   -6.0,   -4.0,   -3.5,   -3.4,   -5.8,   -7.2,   -7.7,   -7.5,   -7.9,   -7.8,   -7.0,   -4.4,   -3.3,   -3.6,   -4.9,   -5.4,   -5.6,   -5.6,   -6.1,   -6.2,   -6.2,   -6.3,   -5.8,   -5.0,   -5.4,   -4.5,  999.0,   -1.5,   -0.8,   -1.0,   -0.6,   -0.7,   -2.7,   -4.5,   -5.2,   -6.0,  999.0,  -17.7,  999.0,  -19.9,  -21.6,  -22.4,  -24.2,  -27.3,  -30.6,  999.0,  999.0,  -39.6,  999.0,  999.0,  999.0,  -46.6,  -42.5,  -35.5,  -28.5,  -21.8,  -15.2,  -10.5,   -2.9,    2.0,    6.8,   11.3,   16.4,   20.0,  999.0,  999.0,  999.0,  999.0,  999.0,  999.0,  999.0,  999.0,  999.0,  999.0,  999.0,  999.0,  999.0,  999.0,  999.0,  999.0,  999.0,  999.0,  999.0,  999.0,  999.0
2004/02/10 09:50,   -0.0,   -2.8,   -2.5,   -2.2,    3.1,    4.6,    6.2,    5.8,    4.2,    3.9,    3.6,    2.7,    2.5,    2.3,    1.7,    0.9,    0.6,    0.6,    1.3,    2.2,    2.8,    3.3,    3.3,    2.1,    0.0,   -1.9,   -2.9,   -2.9,   -1.5,   -1.4,   -2.2,   -3.0,  999.0,   -2.9,   -4.4,   -5.5,   -4.0,   -3.6,  999.0,   -6.2,   -7.2,   -7.7,   -7.3,   -7.8,   -8.2,   -7.5,   -5.1,   -3.8,   -3.8,   -4.2,   -4.7,   -4.6,   -5.0,   -6.0,   -6.6,   -7.0,   -7.5,   -7.4,   -6.4,   -6.2,   -5.7,   -6.7,   -1.8,   -0.4,   -1.5,   -2.1,   -1.2,   -1.9,   -3.6,   -4.7,   -5.8,  999.0,  999.0,  999.0,  999.0,  -20.1,  -22.2,  -23.2,  -26.1,  -30.0,  -31.6,  999.0,  -36.4,  -40.4,  999.0,  999.0,  -40.2,  -36.3,  -29.9,  -23.2,  -16.7,  -11.5,   -7.4,   -2.3,    3.2,    8.4,   13.4,  999.0,  999.0,  999.0,  999.0,  999.0,  999.0,  999.0,  999.0,  999.0,  999.0,  999.0,  999.0,  999.0,  999.0,  999.0,  999.0,  999.0,  999.0,  999.0,  999.0,  999.0,  999.0,  999.0
2004/02/10 10:00,    0.0,   -2.3,    2.4,  999.0,    3.6,    4.8,    7.1,    6.1,    4.7,    4.3,    4.3,    3.3,    2.4,    2.6,    2.0,    1.2,    0.5,    0.5,    1.0,    1.9,    2.9,    3.4,    3.9,    2.5,    0.6,   -1.9,   -2.8,   -2.7,   -0.6,   -1.7,   -2.9,   -3.5,   -2.9,   -3.4,   -4.8,   -5.8,   -4.2,   -3.9,   -4.0,   -6.4,   -7.4,   -8.3,   -7.3,   -7.8,   -9.0,   -7.6,   -6.5,   -4.5,   -4.1,   -4.6,   -5.2,   -5.2,   -6.5,   -7.4,   -8.6,   -9.3,   -9.7,   -9.7,   -9.7,   -7.4,   -6.8,   -6.7,   -3.9,   -1.6,   -3.1,   -3.0,   -2.5,   -3.8,   -3.8,   -4.6,   -5.3,  999.0,  -14.5,  999.0,  999.0,  -19.6,  -20.5,  -22.2,  -25.3,  999.0,  999.0,  999.0,  -33.2,  -37.7,  999.0,  999.0,  -35.7,  -33.4,  -24.5,  -19.3,  -14.0,   -8.8,   -4.2,   -1.8,    3.5,    8.3,   12.5,   16.9,   20.8,  999.0,  999.0,  999.0,  999.0,  999.0,  999.0,  999.0,  999.0,  999.0,  999.0,  999.0,  999.0,  999.0,  999.0,  999.0,  999.0,  999.0,  999.0,  999.0,  999.0,  999.0
2004/02/10 10:10,   -0.0,   -2.4,  999.0,   -1.5,    2.1,    3.9,    5.4,    5.1,    4.4,    4.6,    5.0,    3.6,    2.9,    2.6,    1.8,    0.9,    0.3,    0.4,    0.7,    2.1,    3.0,    3.7,    4.2,    2.9,    0.4,   -1.9,   -2.3,   -2.3,   -0.9,   -1.8,   -2.7,   -3.4,   -2.8,   -3.9,   -4.9,   -6.2,   -4.4,   -4.1,   -4.0,   -6.4,   -7.4,   -8.4,   -7.6,   -8.1,   -8.5,   -7.6,   -7.1,   -4.8,   -4.5,   -4.5,   -5.4,   -6.0,   -7.6,   -8.9,   -9.3,  -10.3,  -10.1,  -10.0,   -9.9,   -8.2,   -6.7,   -6.3,   -2.5,   -3.1,   -3.2,   -2.5,   -2.7,   -3.7,   -4.0,   -4.5,   -5.0,  -12.1,  -14.2,  -14.6,  -16.4,  999.0,  -20.9,  -21.9,  -24.5,  -27.2,  999.0,  999.0,  -35.0,  -39.1,  999.0,  999.0,  -38.3,  -36.7,  -25.6,  -20.5,  -14.2,   -9.9,   -5.3,   -1.6,    3.0,    7.3,   11.6,   15.1,  999.0,  999.0,  999.0,  999.0,  999.0,  999.0,  999.0,  999.0,  999.0,  999.0,  999.0,  999.0,  999.0,  999.0,  999.0,  999.0,    9.0,  999.0,  999.0,    0.8,   -1.7,  999.0
2004/02/10 10:20,    0.0,   -1.3,  999.0,   -1.6,    1.6,    3.2,    4.8,    5.9,    4.1,    4.3,    4.8,    3.9,  999.0,    2.6,    2.1,    0.9,    0.4,    0.4,    1.2,    2.5,    3.2,    3.7,    4.0,    1.9,    0.0,   -2.3,   -2.8,   -2.3,   -1.5,   -1.7,   -2.6,   -3.2,   -2.5,   -4.7,   -5.1,   -5.9,   -3.9,   -3.7,   -3.9,   -6.3,   -7.5,   -8.3,   -7.3,   -7.7,   -8.0,   -7.8,   -7.2,   -4.8,   -4.6,   -4.5,   -5.4,   -6.4,   -8.1,   -9.1,   -9.2,  -10.1,  -10.5,   -9.9,   -9.7,   -9.0,   -4.9,   -5.5,   -1.4,   -1.8,   -2.5,   -1.6,   -1.6,   -1.9,   -3.2,   -4.2,   -5.1,  999.0,  -13.8,  999.0,  999.0,  999.0,  -19.7,  -21.1,  -23.9,  -26.8,  999.0,  -31.7,  -36.5,  -41.0,  999.0,  999.0,  -39.2,  -36.4,  -27.8,  -22.1,  -15.5,  -10.8,   -5.8,   -1.1,    3.0,    7.2,   10.8,   14.7,  999.0,  999.0,  999.0,  999.0,  999.0,  999.0,  999.0,  999.0,  999.0,  999.0,  999.0,  999.0,  999.0,  999.0,  999.0,    8.2,  999.0,  999.0,  999.0,  999.0,   -5.1,  999.0
2004/02/10 10:30,   -6.7,   -4.7,   -2.6,   -1.2,    1.2,    3.4,    4.6,    6.4,    4.2,    4.5,    5.3,    4.3,    3.9,    2.3,    1.9,    1.2,    0.6,    0.7,    1.2,    2.7,    3.2,    4.1,    4.1,    1.8,   -0.0,   -2.2,   -2.6,   -2.3,   -1.4,   -1.9,   -2.6,   -2.9,   -2.6,   -5.5,   -5.4,   -5.7,   -3.8,   -3.2,   -3.8,   -6.4,   -7.7,   -8.5,   -7.8,   -7.7,   -8.3,   -7.9,   -7.8,   -4.6,   -4.4,   -4.6,   -5.8,   -7.1,   -8.2,   -9.2,   -9.8,  -10.2,  -11.1,  -10.7,  -10.6,  999.0,  999.0,   -4.4,   -2.2,   -1.4,   -2.5,   -2.0,   -1.3,   -0.7,   -3.4,   -4.1,   -4.8,  -12.3,  -14.8,  -16.1,  999.0,  999.0,  999.0,  -21.4,  -24.0,  -26.3,  999.0,  -32.1,  -36.6,  -41.5,  999.0,  -36.8,  -39.3,  -34.5,  -27.9,  -22.0,  -15.2,  -10.1,   -4.7,   -0.7,    3.4,    8.5,   12.1,   16.2,  999.0,  999.0,  999.0,  999.0,  999.0,  999.0,  999.0,  999.0,   14.0,  999.0,   13.6,  999.0,  999.0,  999.0,  999.0,    7.4,  999.0,  999.0,  999.0,   -2.1,   -6.3,  999.0
2004/02/10 10:40,   -3.9,   -3.2,   -1.5,    0.0,    1.4,    3.3,    4.2,    6.1,    3.5,    3.7,    4.9,    3.6,    2.9,    1.8,    1.5,    0.8,    0.4,    0.7,    1.0,    2.7,    3.5,    4.1,    4.4,    2.7,    0.3,   -1.6,   -2.5,   -2.3,   -1.9,   -2.0,   -2.4,   -3.1,   -2.7,   -4.7,   -4.5,   -4.9,   -3.0,  999.0,   -3.8,   -6.4,   -8.1,   -8.9,   -7.8,   -8.1,   -8.6,   -7.9,   -8.3,   -6.4,   -4.2,   -4.3,   -5.7,   -7.1,   -8.6,   -9.5,  -10.0,  -10.8,  -11.0,  -11.3,  -10.6,  999.0,  999.0,  999.0,   -1.4,   -0.9,   -2.6,   -2.0,  999.0,   -0.6,   -3.6,   -5.5,   -5.5,  999.0,  999.0,  999.0,  999.0,  999.0,  999.0,  999.0,  999.0,  999.0,  999.0,  -33.0,  -37.0,  999.0,  999.0,  999.0,  -40.7,  -36.1,  -28.4,  -22.0,  -15.9,   -9.9,   -5.4,   -0.3,    4.4,    9.6,   14.2,   18.1,  999.0,  999.0,  999.0,  999.0,  999.0,  999.0,  999.0,  999.0,  999.0,  999.0,  999.0,  999.0,  999.0,  999.0,  999.0,  999.0,  999.0,  999.0,  999.0,  999.0,  999.0,  999.0
2004/02/10 10:50,   -2.9,   -2.5,   -0.7,    0.5,    1.6,    2.5,    3.6,    5.5,    3.1,    3.1,    4.1,    2.8,    2.2,    1.9,    1.9,    1.3,    0.9,    1.1,    1.6,    2.9,    3.5,    3.8,    3.9,    2.3,    0.2,   -2.1,   -2.6,   -2.3,   -1.7,   -1.6,   -2.6,   -3.1,   -3.0,   -4.6,   -4.4,   -4.8,   -2.7,   -3.1,   -5.3,   -7.0,   -8.8,   -9.5,   -8.3,   -7.9,   -8.2,   -8.1,   -7.8,   -7.6,   -4.8,   -4.1,   -4.6,   -6.5,   -8.1,   -8.9,   -9.5,  -10.4,   -9.6,  -11.4,  -10.7,   -9.4,   -8.0,  999.0,   -1.0,   -0.5,   -1.1,   -1.1,   -1.1,  999.0,   -4.1,   -5.9,   -4.5,  999.0,  999.0,  999.0,  999.0,  999.0,  999.0,  999.0,  999.0,  999.0,  -29.3,  -32.3,  -37.6,  999.0,  999.0,  999.0,  -39.4,  -34.4,  -28.5,  -22.5,  -15.0,  -10.5,   -5.1,   -0.2,    4.2,   10.6,   15.2,  999.0,  999.0,  999.0,  999.0,  999.0,  999.0,  999.0,  999.0,  999.0,  999.0,  999.0,  999.0,  999.0,  999.0,  999.0,  999.0,  999.0,  999.0,  999.0,  999.0,  999.0,  999.0,  999.0
2004/02/10 11:00,   -1.7,   -2.2,    0.1,    1.9,    2.1,    2.9,    4.5,    5.4,    3.3,    3.6,    4.1,    2.6,    1.5,    1.1,    1.1,    1.0,    1.0,    1.0,    1.9,    3.3,    4.1,    3.9,    3.0,    1.1,   -0.7,   -1.7,   -2.6,   -1.6,   -1.1,   -1.4,   -2.7,   -3.0,   -3.9,   -4.2,   -4.5,   -4.3,   -2.7,   -3.2,   -5.5,   -7.1,   -8.8,   -9.4,   -8.0,   -7.4,   -7.7,   -8.1,   -7.1,   -7.2,   -5.7,   -4.3,   -3.9,   -5.8,   -7.1,   -8.5,   -9.2,   -9.7,  -10.4,  -11.5,  -11.5,   -8.3,   -8.4,  999.0,   -1.8,   -1.1,   -0.5,   -0.9,   -1.1,   -1.3,   -4.1,   -7.6,   -4.3,  -11.8,  999.0,  -15.2,  -16.8,  -18.9,  -20.6,  -23.1,  -25.8,  999.0,  -29.0,  -33.4,  -36.6,  -40.9,  999.0,  999.0,  -38.3,  -33.4,  -27.0,  -21.8,  -14.1,   -9.4,   -5.9,   -0.1,    4.5,    9.4,   14.0,  999.0,  999.0,  999.0,  999.0,  999.0,  999.0,  999.0,  999.0,  999.0,  999.0,  999.0,  999.0,  999.0,  999.0,  999.0,  999.0,    7.4,  999.0,  999.0,  999.0,  999.0,  999.0,  999.0
2004/02/10 11:10,   -3.1,  999.0,  999.0,    2.5,    2.2,    2.8,    4.4,    5.4,    3.1,    3.9,    3.9,    2.8,    1.9,    0.7,    0.8,    0.9,    1.1,    1.2,    1.5,    3.2,    4.2,    4.0,    3.0,    1.3,   -1.2,   -2.4,   -2.8,   -1.6,   -1.1,   -1.3,   -1.8,   -1.9,   -3.7,   -3.8,   -4.1,   -3.7,   -2.2,   -3.1,   -5.0,   -6.7,   -8.6,   -9.3,   -8.0,   -7.7,   -7.8,   -8.2,   -7.9,   -7.5,   -7.2,   -4.8,   -4.4,   -5.9,   -7.0,   -8.4,   -9.1,   -9.6,  -10.8,  -12.0,  -11.9,  -10.4,   -8.7,  999.0,   -2.7,   -2.3,   -2.0,   -1.5,   -1.7,   -1.3,   -3.7,   -7.6,   -5.4,  -11.5,  999.0,  -14.4,  -16.9,  -18.9,  999.0,  -23.8,  -24.5,  -27.7,  -30.2,  -33.2,  -36.9,  999.0,  999.0,  999.0,  -37.3,  -32.0,  -25.2,  -20.3,  -13.3,   -8.6,   -4.5,   -0.4,    4.2,    9.1,   13.0,   17.9,  999.0,  999.0,  999.0,  999.0,  999.0,  999.0,  999.0,  999.0,  999.0,  999.0,  999.0,  999.0,  999.0,  999.0,    7.4,    7.3,  999.0,    1.1,   -1.6,  999.0,  999.0,  999.0
2004/02/10 11:20,   -3.6,   -1.7,    1.5,    2.9,    2.6,    3.0,    4.7,    5.1,    2.7,    3.6,    3.1,    2.8,    2.4,    1.6,    1.4,    1.0,    0.9,    0.7,    1.3,    2.7,    3.5,    3.3,    2.4,    1.3,   -1.2,   -2.4,   -2.5,   -1.7,   -1.2,   -1.6,   -2.1,   -1.8,   -3.9,   -3.9,   -4.4,   -3.3,   -2.5,   -4.0,   -5.3,   -7.2,   -8.8,   -9.1,   -7.8,   -7.9,   -8.1,   -8.3,   -7.8,   -7.3,   -6.9,   -4.7,   -4.1,   -5.7,   -7.0,   -8.6,   -8.9,  -10.0,  -10.8,  -12.3,  -11.5,  -10.7,   -8.9,  999.0,   -4.2,   -3.4,   -2.1,   -1.9,   -1.5,   -2.3,   -4.6,   -7.7,   -5.5,  -11.1,  -13.0,  -14.8,  -17.3,  999.0,  999.0,  999.0,  -25.0,  999.0,  -31.0,  999.0,  -36.4,  -40.4,  999.0,  999.0,  -35.2,  -30.6,  -24.7,  -19.4,  -13.3,   -9.0,   -3.9,   -0.8,    4.5,    8.5,   12.4,   16.4,  999.0,  999.0,  999.0,  999.0,  999.0,  999.0,  999.0,  999.0,  999.0,  999.0,  999.0,   13.0,  999.0,  999.0,  999.0,    6.5,    4.4,    2.8,  999.0,  999.0,  999.0,  999.0
2004/02/10 11:30,   -2.7,   -2.3,    0.2,    2.2,    2.8,    3.3,    4.5,    5.1,    2.6,    3.5,    3.4,    2.8,    2.3,    1.9,    2.0,    1.1,    0.8,    0.8,    1.8,    2.8,    3.4,    3.2,    2.6,    1.3,   -1.0,   -1.7,   -2.3,   -1.9,   -1.0,   -2.0,   -2.5,   -2.4,   -4.0,   -4.0,   -4.4,   -3.5,   -2.7,   -4.2,   -5.6,   -7.3,   -9.0,   -9.1,   -7.7,   -7.9,   -7.9,   -8.3,   -7.2,   -6.7,   -6.0,   -4.0,   -3.6,   -5.2,   -6.9,   -8.2,   -8.9,   -9.6,  -10.5,  -12.2,  -12.7,  -10.7,  999.0,   -7.1,   -5.0,   -2.0,   -2.4,   -2.2,   -1.1,  999.0,   -5.6,   -8.5,  -10.4,  -11.5,  -14.2,  -16.5,  -19.0,  999.0,  -21.1,  -22.4,  999.0,  -27.8,  -30.6,  -32.3,  -36.1,  -42.6,  999.0,  -38.3,  -37.5,  -30.6,  -25.1,  -19.9,  -14.2,   -9.9,   -4.6,   -0.6,    4.4,    8.4,   12.9,   17.7,  999.0,  999.0,  999.0,  999.0,  999.0,   16.7,  999.0,  999.0,  999.0,   13.6,   11.9,   13.2,  999.0,  999.0,    8.0,    7.1,    4.4,  999.0,  999.0,  999.0,   -7.6,  999.0
2004/02/10 11:40,   -2.4,   -3.1,   -0.4,    1.8,    2.4,    3.0,    4.1,    4.8,    2.5,    3.3,    3.2,    2.3,    1.9,    1.9,    1.5,    1.1,    1.2,    1.4,    1.5,    2.5,    3.3,    2.6,    2.2,    0.6,   -1.1,   -1.9,   -2.0,   -1.5,   -1.5,   -2.1,   -2.9,   -2.7,   -3.9,   -4.1,   -4.4,   -3.3,   -2.6,   -4.3,   -5.5,   -7.3,   -9.2,   -9.1,   -7.8,   -7.9,   -7.7,   -7.5,   -6.5,   -6.4,   -6.1,   -3.6,   -3.7,   -6.0,   -7.7,   -8.3,   -9.3,  -10.2,  -11.8,  -12.6,  -13.2,  -10.6,   -9.0,   -7.6,   -4.4,   -1.5,   -1.9,   -2.2,   -1.7,   -3.2,   -5.9,   -8.4,  -10.4,  -12.1,  -14.3,  -16.4,  -18.6,  -19.3,  -20.2,  -22.0,  -23.7,  -26.7,  -30.0,  -32.7,  -36.8,  -42.3,  -42.7,  -37.3,  -39.2,  -31.4,  -25.0,  -20.5,  -15.0,   -9.7,   -5.3,   -0.8,    3.1,    7.8,   12.1,   17.0,  999.0,  999.0,  999.0,  999.0,  999.0,  999.0,  999.0,  999.0,  999.0,  999.0,  999.0,  999.0,  999.0,  999.0,  999.0,  999.0,  999.0,  999.0,  999.0,   -2.9,   -6.9,  999.0
2004/02/10 11:50,   -2.5,  999.0,   -0.8,    1.3,    2.5,    3.6,    4.8,    5.5,    3.4,    3.1,    3.3,    2.3,    2.1,    1.8,    1.6,    1.4,    1.1,    1.3,    2.3,    3.2,    3.6,    3.0,    2.3,    0.2,   -1.3,   -2.5,   -1.9,   -1.4,   -1.7,   -2.2,   -2.7,   -2.5,   -3.5,   -3.6,   -4.3,   -2.8,   -2.3,   -4.2,   -5.1,   -7.0,   -9.0,   -8.6,   -7.8,   -7.9,   -7.6,   -6.9,   -6.3,   -6.2,   -5.8,   -3.4,   -3.8,   -6.1,   -7.7,   -7.9,   -9.0,   -9.4,  -10.8,  -11.9,  -12.3,  -10.1,  999.0,  999.0,   -2.3,   -1.3,   -1.4,   -1.2,   -1.4,   -3.8,   -6.4,   -8.6,  -10.0,  -12.2,  -13.9,  -15.8,  999.0,  -18.0,  -19.6,  -21.7,  -24.2,  -26.9,  -30.8,  -33.0,  -37.6,  -42.1,  999.0,  -37.6,  -39.6,  -34.0,  -26.4,  -19.9,  -15.4,  -10.1,   -5.3,   -0.7,    2.4,    8.3,   13.1,   17.3,   21.0,  999.0,  999.0,  999.0,  999.0,  999.0,  999.0,  999.0,  999.0,  999.0,  999.0,  999.0,  999.0,  999.0,  999.0,  999.0,  999.0,  999.0,  999.0,  999.0,  999.0,  999.0
2004/02/10 12:00,   -1.6,   -1.2,    0.0,    1.7,    2.4,    3.0,    4.4,    5.5,    4.4,    2.8,    3.7,    2.0,    1.3,    1.2,    1.5,    1.4,    1.1,    1.2,    2.8,    3.5,    3.7,    2.8,    2.1,    0.0,   -1.9,   -3.0,   -2.1,   -1.4,   -1.6,   -2.1,   -2.7,   -2.3,   -3.3,   -3.4,   -3.9,   -2.7,   -2.6,   -4.7,   -6.0,   -7.7,   -9.4,   -8.8,   -8.6,   -8.2,   -7.7,   -6.6,   -6.4,   -6.1,   -5.8,  999.0,   -4.3,   -6.3,   -7.6,   -7.8,   -8.8,   -9.3,  -10.6,  -12.0,  -11.8,   -9.8,   -9.1,  999.0,   -1.5,   -1.1,   -1.3,   -0.7,   -1.3,   -4.4,   -7.1,   -9.2,  -10.1,  -12.1,  -14.0,  -15.9,  999.0,  -18.4,  -19.8,  -22.7,  -25.5,  -28.7,  -32.0,  -35.2,  -39.1,  -44.0,  999.0,  -39.8,  -40.0,  -35.2,  -27.7,  -21.5,  -16.8,  -10.4,   -5.4,   -0.7,    1.9,    7.3,   12.2,   17.0,  999.0,  999.0,  999.0,  999.0,  999.0,  999.0,  999.0,  999.0,  999.0,  999.0,  999.0,  999.0,  999.0,  999.0,  999.0,  999.0,  999.0,  999.0,  999.0,  999.0,  999.0,  999.0
2004/02/10 12:10,   -0.5,   -0.1,   -0.1,    1.5,    2.7,    3.5,    4.7,    5.8,    5.1,    3.1,    3.5,    2.3,    1.5,    1.4,    1.4,    1.6,    1.6,    1.7,    3.4,    4.0,    4.1,    3.2,    2.9,   -0.1,   -1.2,   -2.0,   -1.3,   -1.0,   -1.1,   -1.6,   -2.5,   -2.4,   -2.8,   -3.4,   -4.0,   -2.6,   -2.8,   -4.7,   -5.9,   -8.1,   -9.2,   -8.4,   -8.7,   -8.2,   -7.3,   -6.8,   -6.5,   -6.1,   -5.8,   -3.6,   -5.4,   -6.8,   -8.0,   -8.8,   -8.9,  -10.6,  -12.1,  -12.8,  -11.1,   -9.8,   -7.4,   -5.6,   -1.0,   -1.1,   -0.8,   -0.6,   -1.9,   -5.2,   -7.2,   -9.4,  -10.7,  -12.1,  -13.7,  -15.7,  999.0,  -18.4,  -20.7,  -23.7,  -26.1,  -29.3,  -32.6,  -36.5,  -40.0,  -44.7,  999.0,  -39.6,  -41.1,  -34.4,  -26.2,  -20.6,  -15.9,   -9.7,   -5.1,   -0.6,    3.4,    8.3,   12.4,   17.2,  999.0,  999.0,  999.0,  999.0,  999.0,  999.0,  999.0,  999.0,  999.0,  999.0,  999.0,   15.9,  999.0,  999.0,  999.0,    8.1,    2.0,  999.0,  999.0,   -3.3,  999.0,  999.0
2004/02/10 12:20,    0.2,   -0.1,    0.4,    1.4,    2.5,    3.3,    4.6,    6.0,    5.2,    4.1,    3.6,    2.0,    1.5,    1.0,    0.9,    1.4,    1.0,    1.9,    3.0,    3.6,    3.5,    2.1,    2.4,   -0.4,   -1.8,   -1.7,   -1.5,   -1.0,   -1.8,   -2.4,   -2.9,   -2.6,   -3.0,   -3.8,   -4.7,   -3.4,   -3.1,   -4.7,   -5.9,   -7.9,   -8.4,   -8.4,   -8.4,   -7.8,   -5.9,   -6.3,   -6.2,   -5.6,   -4.8,   -3.0,   -5.3,   -6.8,   -7.8,   -8.9,   -9.0,  -10.6,  -11.9,  -11.9,  -10.5,   -9.7,   -7.1,   -6.0,   -1.3,   -0.7,   -0.6,   -0.6,   -2.3,   -4.4,   -7.0,   -8.5,  -10.1,  999.0,  999.0,  999.0,  999.0,  -18.6,  -20.9,  -23.1,  -25.3,  -27.5,  -31.6,  999.0,  999.0,  999.0,  999.0,  999.0,  -39.2,  -32.8,  -25.5,  -19.8,  -14.4,   -8.4,   -4.7,    0.0,    5.3,   10.7,   14.8,   19.6,  999.0,  999.0,  999.0,  999.0,  999.0,  999.0,  999.0,  999.0,  999.0,  999.0,  999.0,  999.0,  999.0,  999.0,  999.0,  999.0,  999.0,  999.0,   -0.1,   -4.1,  999.0,  999.0
2004/02/10 12:30,   -1.2,    0.1,    1.0,    1.4,    2.2,    3.7,    5.0,    5.3,    5.2,    4.1,    3.1,    2.1,    1.2,    1.3,    0.9,    1.2,    1.2,    2.3,    2.9,    3.3,    3.5,    2.2,    1.8,   -0.3,   -1.4,   -1.8,   -1.0,   -1.1,   -1.7,   -2.3,   -2.6,   -2.5,   -3.0,   -3.8,   -4.5,   -2.8,   -3.1,   -4.5,   -5.8,   -7.8,   -8.2,   -8.1,   -8.1,   -7.5,   -6.6,   -6.5,   -6.3,   -5.4,   -4.0,   -3.3,   -5.5,   -7.1,   -7.8,   -8.5,   -9.8,  -11.4,  -13.3,  -12.7,   -9.9,   -9.0,   -7.7,   -6.6,  999.0,   -1.2,    2.0,   -0.6,   -2.6,   -4.7,   -7.2,   -7.5,   -9.5,  999.0,  999.0,  999.0,  999.0,  999.0,  999.0,  -21.7,  -25.0,  -26.7,  -27.4,  999.0,  999.0,  999.0,  999.0,  -35.0,  -35.8,  -28.8,  -23.6,  -18.2,  -11.6,   -7.6,   -3.5,   -0.7,    5.5,   10.3,   15.1,   17.1,   18.1,  999.0,   17.8,  999.0,  999.0,  999.0,  999.0,  999.0,  999.0,  999.0,  999.0,  999.0,  999.0,  999.0,  999.0,  999.0,  999.0,   -0.3,  999.0,  999.0,  999.0,  999.0
2004/02/10 12:40,   -1.5,    0.2,    1.1,    1.1,    1.5,    3.4,    4.2,    4.4,    4.0,    2.8,    2.7,    2.4,    1.2,    1.4,    0.8,    0.8,    1.2,    2.5,    3.1,    3.3,    3.8,    2.2,    1.3,   -0.7,   -2.0,   -1.9,   -1.2,   -1.6,   -2.3,   -2.9,   -3.1,   -3.0,   -3.8,   -4.8,   -5.7,   -3.4,   -3.9,   -5.0,   -6.5,   -8.0,   -8.4,   -8.7,   -7.9,   -7.4,   -7.0,   -6.9,   -6.2,   -5.0,   -3.1,   -3.7,   -5.9,   -7.1,   -7.8,   -8.6,  -10.2,  -12.2,  -14.4,  -10.9,  999.0,   -8.7,   -7.8,   -5.3,   -3.0,  999.0,  999.0,   -0.9,   -2.8,   -5.0,   -7.1,   -7.0,   -9.3,  999.0,  999.0,  999.0,  -17.0,  -18.5,  999.0,  999.0,  999.0,  999.0,  -30.0,  999.0,  -36.2,  999.0,  999.0,  999.0,  -35.6,  -28.8,  -24.1,  -18.0,  -13.1,   -7.8,   -3.1,   -0.7,    3.1,  999.0,  999.0,  999.0,  999.0,  999.0,  999.0,  999.0,  999.0,  999.0,  999.0,  999.0,  999.0,  999.0,  999.0,  999.0,  999.0,  999.0,  999.0,  999.0,  999.0,  999.0,  999.0,  999.0,  999.0,  999.0
2004/02/10 12:50,   -1.3,   -0.3,    0.2,    0.8,    1.3,    2.7,    4.7,    4.9,    4.8,    3.3,    3.1,    3.1,    1.8,    1.4,    1.0,    1.3,    2.0,    2.9,    3.6,    4.5,    3.0,    2.5,    0.7,   -0.5,   -2.2,   -1.7,   -1.3,   -1.4,   -2.3,   -2.8,   -2.8,   -2.8,   -3.4,   -3.8,   -4.4,   -2.5,   -2.9,   -3.6,   -5.2,   -7.1,   -7.1,   -7.7,   -6.5,   -6.0,   -5.8,   -5.8,   -5.9,   -4.5,   -3.0,   -4.2,   -5.7,   -6.5,   -7.4,   -9.0,  -10.6,  -13.0,  999.0,  999.0,  999.0,  999.0,   -5.7,  999.0,   -2.0,  999.0,    0.1,   -1.3,   -3.2,   -6.1,  999.0,   -7.9,  999.0,  999.0,  -13.4,  -15.2,  -18.5,  999.0,  999.0,  999.0,  -25.5,  999.0,  -29.4,  -33.5,  -37.2,  999.0,  999.0,  -37.2,  -38.8,  -32.8,  -26.9,  -21.5,  -14.2,   -8.8,   -4.0,    0.3,    3.3,    6.5,  999.0,  999.0,  999.0,  999.0,  999.0,  999.0,  999.0,  999.0,  999.0,  999.0,  999.0,  999.0,  999.0,  999.0,  999.0,  999.0,  999.0,  999.0,  999.0,  999.0,  999.0,  999.0,  999.0,  999.0
2004/02/10 13:00,   -0.4,    1.3,    0.9,    1.8,    1.6,    3.0,    3.3,    4.0,    3.9,    3.2,    3.2,    2.9,    1.0,    0.8,    0.1,    1.5,    1.5,    2.5,    2.8,    3.7,    1.7,    1.2,   -0.4,   -1.5,   -2.0,   -0.9,   -0.6,   -1.0,   -1.9,   -2.6,   -2.7,   -2.6,   -3.4,   -3.8,   -4.4,   -2.5,   -3.2,   -4.2,   -6.2,   -7.9,   -8.1,   -8.1,   -6.6,   -6.5,   -6.8,   -6.6,   -6.4,   -4.7,   -2.9,   -5.0,   -6.7,   -7.2,   -8.6,  -10.3,  -12.3,  -14.0,  -14.1,  999.0,   -9.2,   -7.2,   -5.7,   -3.4,   -1.9,    0.1,   -0.0,   -1.7,   -4.7,   -7.0,   -8.0,  999.0,  999.0,  999.0,  -13.6,  -16.6,  999.0,  999.0,  999.0,  -24.2,  -25.9,  999.0,  -30.5,  -33.8,  -38.0,  999.0,  999.0,  999.0,  -39.8,  -35.7,  -28.0,  -22.7,  -16.5,  -10.2,   -4.6,    0.8,    4.2,    7.6,   11.9,   15.9,  999.0,  999.0,  999.0,  999.0,  999.0,  999.0,  999.0,  999.0,  999.0,  999.0,  999.0,  999.0,  999.0,  999.0,  999.0,  999.0,    1.0,  999.0,  999.0,   -3.4,  999.0,  999.0
2004/02/10 13:10,   -0.1,   -0.7,   -0.9,   -1.1,   -0.3,    0.6,    3.9,    3.9,    4.1,    2.8,    2.7,    1.8,    0.8,    1.1,    0.5,    1.0,    2.4,    3.4,    4.1,    4.2,    3.4,    1.4,   -0.1,   -2.0,   -1.6,   -0.7,  999.0,   -0.8,   -2.1,   -2.0,   -1.9,   -1.8,   -3.0,   -3.1,   -3.7,   -2.3,   -2.5,   -3.9,   -5.3,   -7.4,   -7.8,   -7.6,   -7.0,   -6.2,   -6.5,   -6.4,   -6.0,   -4.7,   -2.7,   -4.8,   -6.2,   -7.0,   -8.2,   -9.8,  -11.6,  -13.6,  -13.8,   -9.6,   -8.5,   -6.1,   -5.0,   -2.8,   -1.7,   -0.2,   -0.1,   -2.2,   -4.4,   -6.5,   -7.4,   -8.4,  -10.3,  -11.5,  -13.3,  -16.1,  -17.6,  -19.5,  999.0,  -23.6,  -25.0,  -27.3,  -29.9,  -32.6,  -36.6,  -37.0,  999.0,  -36.4,  -38.8,  -34.0,  -26.8,  -21.6,  -15.9,  -10.3,   -4.6,   -0.4,    2.5,    7.2,   11.6,   14.9,  999.0,  999.0,  999.0,  999.0,  999.0,  999.0,  999.0,  999.0,  999.0,  999.0,  999.0,  999.0,  999.0,  999.0,  999.0,    5.8,    1.6,  999.0,   -2.0,   -3.1,  999.0,  -11.0
2004/02/10 13:20,   -1.4,   -3.7,   -4.2,   -3.3,   -2.4,   -1.3,   -0.5,   -0.1,    3.1,    3.2,    2.0,    0.2,    0.4,    0.8,    0.8,    1.9,    2.5,    3.6,    4.1,    3.9,    2.5,    1.6,   -0.5,   -1.2,   -1.2,   -0.4,   -0.3,   -0.9,   -1.9,   -1.7,   -2.1,   -2.0,   -2.7,   -3.2,   -3.7,   -2.3,   -2.5,   -4.0,   -4.9,   -7.2,   -7.6,   -7.3,   -6.9,   -5.9,   -6.5,   -6.6,   -6.2,   -4.9,   -2.6,   -4.8,   -6.0,   -7.0,   -8.1,   -9.8,  -11.8,  -13.5,  -13.4,   -9.6,   -8.2,   -5.9,   -4.7,   -2.9,   -1.7,    0.0,   -0.2,   -2.2,   -4.3,   -6.1,   -7.3,   -8.0,   -9.0,  -11.2,  -12.8,  -15.0,  -16.8,  -18.8,  -20.4,  -22.4,  -24.5,  -26.3,  -28.2,  -31.8,  -35.3,  -36.7,  -40.2,  -35.6,  999.0,  -32.4,  -26.3,  -20.2,  -14.8,   -9.5,   -4.9,   -1.3,    3.1,    6.7,   10.9,   14.1,  999.0,  999.0,  999.0,  999.0,  999.0,  999.0,  999.0,  999.0,  999.0,  999.0,   10.9,  999.0,  999.0,  999.0,  999.0,  999.0,  999.0,  999.0,   -2.1,   -3.5,  999.0,  -10.7
2004/02/10 13:30,   -1.2,   -9.8,   -3.4,   -6.8,   -3.8,   -5.7,  999.0,   -7.5,   -4.8,   -1.7,    1.5,    0.9,    0.5,    0.9,    1.6,    2.8,    2.5,    3.2,    3.5,    2.6,    1.8,    1.1,   -0.4,   -1.4,   -0.9,   -0.0,  999.0,   -0.9,   -1.6,   -1.4,   -2.3,   -1.9,   -2.3,   -2.9,   -3.8,   -2.0,   -2.2,   -3.4,   -4.1,   -6.6,   -7.7,   -7.4,   -6.7,   -6.2,   -6.7,   -6.4,   -6.5,   -4.6,   -3.6,   -4.0,   -5.6,   -6.9,   -8.3,   -9.9,  -12.1,  -13.8,  -12.4,   -9.9,   -8.2,   -6.8,   -4.9,   -3.8,   -2.3,   -0.4,   -0.9,   -2.9,   -5.5,   -7.3,   -7.6,   -8.9,   -9.8,  999.0,  -12.4,  999.0,  -16.5,  -18.3,  -19.6,  -22.0,  -24.0,  -25.9,  -28.6,  -32.1,  -36.0,  -39.5,  -40.8,  -34.5,  -39.1,  -33.5,  -27.3,  -20.8,  -15.3,  -10.5,   -5.5,   -2.3,    2.1,    6.9,   10.5,   14.4,  999.0,  999.0,  999.0,  999.0,  999.0,  999.0,  999.0,  999.0,  999.0,  999.0,  999.0,  999.0,  999.0,  999.0,    6.3,  999.0,    4.3,  999.0,  999.0,   -3.3,   -7.0,  999.0
2004/02/10 13:40,   -0.5,   -1.5,   -0.9,   -2.9,   -1.8,   -1.5,   -6.5,   -6.7,   -5.8,   -5.5,   -5.9,   -1.2,   -0.2,    3.4,    7.7,  999.0,    2.9,    3.1,    3.3,    3.1,    2.6,    1.7,    1.4,   -1.8,   -1.3,   -0.4,   -0.1,   -0.8,   -1.3,   -1.3,   -1.8,   -1.6,   -2.5,   -2.7,   -3.1,   -1.7,   -1.5,   -2.9,   -4.3,   -6.1,   -7.3,   -7.2,   -6.4,   -6.2,   -6.3,   -6.5,   -6.6,   -4.9,   -4.7,   -3.1,   -5.3,   -6.7,   -7.8,   -9.6,  -11.4,  -13.9,  -13.1,  -10.3,   -7.8,   -7.1,   -4.8,   -3.9,   -2.2,   -0.5,   -0.8,   -2.5,   -4.9,   -6.6,   -8.2,   -9.4,  999.0,  -11.3,  999.0,  -13.7,  -16.3,  -18.7,  -20.5,  -22.3,  -25.2,  -27.3,  -30.1,  -33.0,  -37.4,  -41.4,  -41.6,  999.0,  -38.6,  -33.5,  -27.6,  -20.9,  -15.4,  -11.3,   -5.5,   -2.0,    1.3,    7.1,   10.6,   14.7,  999.0,  999.0,  999.0,  999.0,  999.0,  999.0,  999.0,  999.0,  999.0,  999.0,  999.0,   13.6,  999.0,  999.0,    6.6,    5.4,    3.5,  999.0,   -2.2,   -3.4,  999.0,  -12.2
2004/02/10 13:50,    2.6,  999.0,    2.6,    2.5,    4.7,    2.5,    0.8,    2.9,    2.5,    3.1,  999.0,    3.5,    3.9,    6.4,  999.0,    0.3,    0.5,    0.6,    0.8,    0.5,    0.3,   -0.7,   -1.1,   -1.7,   -1.3,   -0.1,   -0.3,   -1.1,   -1.2,   -1.6,   -2.3,   -2.4,   -3.1,   -3.1,   -3.6,   -1.1,   -1.2,   -2.5,   -4.0,   -6.4,   -7.1,   -6.9,   -6.4,   -6.1,   -6.3,   -7.0,   -7.1,   -5.2,   -4.4,   -2.7,   -4.4,   -5.7,   -6.6,   -8.2,  -10.1,  -12.4,  -12.3,   -9.4,   -8.2,   -6.2,   -4.4,   -3.3,   -1.8,   -0.3,   -0.5,   -2.6,   -4.3,   -5.9,   -7.7,   -9.3,  -10.0,  999.0,  -12.0,  -14.3,  -17.0,  -19.0,  -20.9,  -22.5,  -25.6,  -28.0,  -31.2,  -34.1,  -38.9,  -40.6,  999.0,  -37.5,  -39.2,  -34.1,  -27.7,  -21.8,  -16.9,  -10.8,   -6.2,   -2.4,    1.6,  999.0,    9.7,   13.2,   18.1,   21.1,  999.0,  999.0,  999.0,  999.0,  999.0,  999.0,  999.0,  999.0,  999.0,  999.0,  999.0,  999.0,    7.2,    4.3,    3.1,  999.0,   -2.0,   -3.5,  999.0,  999.0
2004/02/10 14:00,    1.2,    1.8,    3.4,    3.8,    4.1,    3.1,    3.7,    3.1,    5.3,    5.7,    0.4,   -0.4,    3.7,    5.5,  999.0,   -3.5,   -2.3,    1.6,   -1.4,  999.0,  999.0,   -0.7,   -0.0,   -1.5,   -2.6,   -1.1,   -1.4,   -2.0,   -1.8,   -2.3,   -2.6,   -2.9,   -3.4,   -3.5,   -2.2,   -1.3,   -1.4,   -2.5,   -3.9,   -6.4,   -6.3,   -5.6,   -5.8,   -6.0,   -6.5,   -7.0,   -6.7,   -4.9,   -4.1,   -3.3,   -4.7,   -6.1,   -7.4,   -9.0,  -10.9,  -12.5,  -11.1,   -9.0,   -7.4,   -5.5,   -3.8,   -2.7,   -0.6,    0.3,   -1.0,   -2.1,   -4.0,   -5.5,   -7.4,   -8.3,  999.0,  999.0,  -12.5,  -14.6,  -16.6,  -18.6,  -20.4,  -22.4,  -25.4,  -27.3,  -30.6,  -34.4,  -38.7,  -41.9,  999.0,  -39.0,  -39.3,  -36.5,  -30.4,  -23.7,  -18.2,  -12.4,   -7.6,   -3.6,    0.6,    5.6,    8.3,   12.3,   15.4,   19.6,  999.0,  999.0,  999.0,  999.0,  999.0,  999.0,  999.0,  999.0,  999.0,  999.0,  999.0,  999.0,  999.0,  999.0,    1.5,  999.0,   -2.2,  999.0,  999.0,  999.0
2004/02/10 14:10,    2.2,    2.3,    3.6,    4.2,    3.8,    4.6,    3.6,    0.0,    1.2,    3.3,    0.4,   -0.1,   -1.6,   -2.0,   -2.2,    0.4,   -3.1,    5.1,    4.8,    6.8,  999.0,    2.1,  999.0,   -1.1,   -1.9,   -1.0,   -1.2,   -2.1,   -2.4,   -3.0,   -2.7,   -3.5,   -4.0,   -4.6,   -1.8,   -1.8,   -2.5,   -3.9,   -5.2,   -7.4,   -7.1,   -6.3,   -6.3,   -6.7,   -7.1,   -7.4,   -6.9,   -5.1,   -4.1,   -4.9,   -6.4,   -7.7,   -9.5,  -11.8,  -14.6,  -14.0,  -10.4,   -9.0,   -7.1,   -5.2,   -3.9,   -2.0,   -0.2,    0.7,   -0.4,   -0.9,   -3.8,   -5.2,   -6.8,   -7.6,   -9.1,  -10.9,  -12.5,  -14.3,  -16.7,  -18.7,  -20.4,  -22.5,  -25.1,  -26.9,  -29.3,  -33.0,  -36.7,  -40.0,  -42.3,  999.0,  -38.4,  -37.9,  -29.5,  -22.6,  -17.5,  -12.5,   -7.7,   -2.3,    0.9,    5.6,    8.3,   12.5,   16.4,   20.7,  999.0,  999.0,  999.0,  999.0,  999.0,  999.0,  999.0,  999.0,  999.0,  999.0,  999.0,    5.0,  999.0,  999.0,    1.2,  999.0,  999.0,  999.0,  999.0,  999.0
2004/02/10 14:20,    1.2,    2.4,    3.6,    3.8,    3.1,    3.2,    3.7,    2.3,   -0.4,   -0.3,    1.0,    0.8,   -0.5,    0.5,    1.1,    2.4,    4.3,    6.2,    5.4,    4.5,    3.7,    2.0,   -0.6,   -2.3,   -1.7,   -1.5,   -0.6,   -1.6,   -1.6,  999.0,   -1.9,   -2.7,   -3.2,   -3.4,   -2.2,   -1.3,   -2.0,   -3.1,   -4.4,   -6.6,   -6.8,   -6.2,   -6.2,   -6.3,   -7.2,   -6.5,   -6.6,   -4.3,   -3.4,   -4.2,   -5.1,   -6.5,   -8.6,  -10.8,  -13.0,  -11.6,   -9.3,   -7.4,   -5.4,   -4.0,   -2.4,    0.5,    1.0,    1.2,    0.1,   -1.0,   -3.5,   -5.5,   -7.0,   -7.9,   -9.5,  -11.7,  -13.4,  -15.5,  -17.7,  -19.0,  -20.1,  -22.6,  -25.3,  -26.9,  -30.1,  -33.2,  -37.9,  -39.7,  999.0,  -36.8,  -40.2,  -35.3,  -30.0,  -22.1,  -16.4,  -10.7,   -7.1,   -1.5,    3.0,    7.2,   10.5,   14.0,   16.8,   22.1,  999.0,  999.0,  999.0,  999.0,  999.0,  999.0,  999.0,  999.0,  999.0,   13.3,  999.0,    8.3,    7.3,    6.1,  999.0,  999.0,  999.0,  999.0,  999.0,  999.0
2004/02/10 14:30,  999.0,   -0.1,   -0.2,    1.2,    0.9,    1.7,    1.7,    2.3,    1.9,    1.1,    1.7,    1.8,    1.2,    1.8,    3.3,    3.2,    3.9,    4.9,    4.4,    3.2,    2.3,    0.8,   -0.8,   -1.4,   -0.9,   -0.7,   -0.1,    0.2,   -0.3,   -0.9,   -1.5,   -1.9,   -1.9,   -2.6,   -1.7,   -1.4,   -1.8,   -2.6,   -3.2,   -5.9,   -6.9,   -6.3,   -6.9,   -5.5,   -7.3,   -6.7,   -7.2,   -5.1,   -3.8,   -4.6,   -5.6,   -6.8,   -8.6,  -10.3,  -12.7,  -11.0,   -9.5,   -7.5,   -6.1,   -4.5,   -2.5,   -0.1,    1.0,    0.6,   -0.2,   -1.6,   -3.6,   -5.8,   -6.7,   -8.7,  -10.4,  -12.8,  -14.8,  -17.1,  -19.6,  -20.7,  -22.6,  -25.1,  -27.3,  -30.0,  -32.1,  -34.6,  999.0,  999.0,  -40.2,  999.0,  -38.3,  -35.1,  -28.2,  -22.1,  -16.5,  -10.8,   -4.5,   -0.1,    4.1,    7.5,   10.7,   13.7,   17.3,   23.7,  999.0,  999.0,  999.0,  999.0,  999.0,  999.0,  999.0,  999.0,  999.0,   12.7,  999.0,  999.0,  999.0,  999.0,  999.0,  999.0,  999.0,  999.0,  999.0,  999.0
2004/02/10 14:40,    0.9,    0.2,    1.0,    2.7,    2.7,    3.3,    2.4,    2.3,    3.2,    2.8,    1.9,    1.2,    0.8,    1.2,    1.3,    1.4,    1.4,    1.5,    2.4,    1.7,    0.1,   -0.5,   -1.0,   -1.4,   -1.0,    0.0,    0.1,    0.1,   -1.0,   -1.0,   -0.5,   -0.8,   -0.1,   -1.5,   -0.1,    0.1,   -0.3,   -1.4,   -2.2,   -4.3,   -6.1,   -5.7,   -5.7,   -5.1,   -5.4,   -6.3,   -6.4,   -5.2,   -4.0,   -4.0,   -4.8,   -6.0,   -7.5,   -9.2,  -11.7,  999.0,   -9.3,   -6.4,   -5.8,   -4.0,   -1.6,    0.2,    1.5,    0.9,    0.8,   -0.3,   -2.5,   -4.8,   -6.3,   -7.7,  -10.6,  -12.7,  -14.4,  -17.6,  -19.1,  -20.6,  -23.2,  -25.5,  -28.5,  -30.9,  -31.6,  999.0,  999.0,  -38.7,  -40.7,  999.0,  -36.4,  -34.7,  -27.7,  -20.6,  -16.1,  -10.4,   -5.4,   -0.7,    3.1,    6.8,   10.2,   14.0,   17.6,  999.0,  999.0,  999.0,  999.0,  999.0,  999.0,  999.0,  999.0,   15.1,  999.0,   12.0,  999.0,  999.0,  999.0,  999.0,  999.0,  999.0,  999.0,  999.0,  999.0,  999.0
2004/02/10 14:50,  999.0,   -0.3,    1.2,    1.7,    2.4,    2.5,    3.3,    3.8,    4.1,    5.0,    4.0,    4.1,    3.3,    3.8,    2.8,    1.2,    1.5,    1.0,    3.1,    2.8,    0.8,   -1.7,   -3.0,   -2.7,   -2.1,   -0.9,   -0.7,   -1.4,   -1.9,   -1.9,   -2.2,   -3.3,   -3.2,   -4.3,   -4.8,   -3.6,   -3.8,   -4.3,   -5.5,   -6.8,   -8.9,   -8.1,   -8.4,   -7.3,   -8.1,   -8.9,   -7.7,   -5.8,   -4.9,   -5.8,   -7.8,   -8.6,  -10.5,  -12.6,  -13.6,  999.0,   -9.6,   -8.1,   -6.1,   -4.2,   -1.6,    0.3,    1.5,    0.6,    0.1,   -0.6,   -3.3,   -5.6,   -7.4,   -9.6,  -11.7,  -13.9,  -15.5,  -18.4,  -21.0,  -22.3,  -25.0,  -25.9,  -28.5,  -30.5,  -33.6,  -35.5,  999.0,  999.0,  -38.8,  999.0,  -37.0,  -35.2,  -28.7,  -23.3,  -17.1,  -11.1,   -5.8,   -1.7,    2.2,    6.3,   10.3,   14.3,   17.7,  999.0,  999.0,  999.0,  999.0,  999.0,  999.0,  999.0,  999.0,  999.0,  999.0,   12.6,  999.0,  999.0,  999.0,    5.8,    4.5,  999.0,  999.0,  999.0,  999.0,  -13.4
2004/02/10 15:00,   -0.1,   -1.3,    1.8,    3.6,    4.5,    5.1,    4.6,    4.3,    4.4,    5.2,    4.8,    5.8,    4.5,    3.5,    2.6,    1.1,    1.8,    2.0,    4.1,    3.5,    2.2,   -0.4,   -2.0,   -2.9,   -3.0,   -2.2,   -0.9,   -0.4,   -1.0,   -1.0,   -1.1,   -1.9,   -2.0,   -2.9,   -3.5,   -2.5,   -2.5,   -2.8,   -4.3,   -4.7,   -7.8,   -7.9,   -7.6,   -7.2,   -7.4,   -8.3,   -7.9,   -5.8,   -5.6,   -5.4,   -7.4,   -8.8,  -10.6,  -12.5,  -13.6,  -13.1,  -10.7,   -8.1,   -6.0,   -3.8,   -2.1,   -0.0,    1.5,    0.4,   -0.4,   -1.5,   -3.4,   -6.5,   -8.6,  -11.1,  -13.2,  -15.0,  -15.8,  -18.9,  -20.7,  -23.8,  -25.5,  -26.2,  -29.1,  -31.1,  -33.6,  -36.9,  -39.2,  -44.2,  999.0,  999.0,  -41.8,  -37.3,  -30.4,  -23.5,  -17.8,  -11.8,   -6.0,   -0.7,    3.0,    7.0,   11.0,   15.5,   18.8,  999.0,   26.8,  999.0,  999.0,  999.0,  999.0,  999.0,   16.8,   15.3,   13.7,   13.5,  999.0,  999.0,  999.0,    5.6,    3.7,  999.0,   -1.7,   -5.1,   -8.4,  999.0
2004/02/10 15:10,   -0.6,   -0.8,    0.6,    2.6,    3.1,    3.6,    3.7,    4.3,    4.2,    4.8,    5.9,    6.0,    4.3,    2.8,    2.1,    0.7,    0.2,    1.3,    2.1,    1.2,    1.2,   -0.7,   -1.5,   -2.2,   -2.4,   -0.7,   -0.3,   -0.8,   -1.8,   -1.3,   -1.2,   -1.6,   -2.6,   -2.6,   -3.0,   -1.9,   -1.5,   -2.1,   -3.4,   -4.6,   -7.3,   -7.7,   -7.8,   -7.9,   -7.4,   -8.1,   -8.2,   -6.8,   -6.0,   -5.1,   -6.9,   -8.3,   -9.7,  -11.3,  -13.5,  -14.4,  -10.9,   -9.6,   -7.3,   -5.5,   -3.4,   -1.0,    0.5,    0.5,   -0.2,   -1.8,   -3.5,   -5.9,   -8.6,  -10.8,  -12.5,  -14.1,  -15.8,  -18.4,  -19.4,  -22.1,  -23.4,  -25.6,  -27.3,  -30.3,  -32.7,  -35.9,  -38.9,  -44.5,  999.0,  999.0,  -40.4,  -33.6,  -27.0,  -20.7,  -14.8,   -9.9,   -3.8,    0.6,    4.3,    8.4,   12.0,   16.0,   21.3,   21.1,  999.0,  999.0,  999.0,  999.0,   20.3,   21.2,   17.4,   16.6,   14.2,   13.6,  999.0,  999.0,    8.3,    4.7,    2.6,    0.8,   -0.9,   -3.2,  999.0,  999.0
2004/02/10 15:20,   -0.1,   -1.1,    0.1,   -0.2,    1.2,    1.5,    3.7,    4.3,    4.1,    5.9,    6.4,    5.5,    4.7,    3.1,    1.4,    0.9,    0.4,    0.5,    1.0,    1.3,    0.6,   -1.0,   -1.2,   -2.6,   -2.1,   -0.7,    0.0,   -0.3,   -0.3,   -0.7,   -0.6,   -0.7,   -1.3,   -1.7,   -2.4,   -2.1,   -1.6,   -2.1,   -3.1,   -4.1,   -7.6,   -8.6,   -8.1,   -8.2,   -8.0,   -8.4,   -8.8,   -8.4,   -6.6,   -5.7,   -6.6,   -7.9,   -9.3,  -11.0,  -13.2,  -14.7,  -13.2,  -11.2,   -9.9,   -7.7,   -5.9,   -3.4,   -1.3,   -0.3,   -0.9,   -2.7,   -4.2,   -6.5,   -8.6,  -11.7,  -12.6,  -14.2,  -16.0,  -17.7,  -18.6,  -20.7,  -22.6,  -24.6,  -27.0,  -28.9,  -32.5,  -35.5,  -39.4,  999.0,  999.0,  -37.9,  -37.4,  -33.1,  -25.0,  -19.2,  -13.4,   -9.1,   -4.0,    0.3,    4.2,    8.1,   11.9,   15.3,   19.3,  999.0,  999.0,   20.6,  999.0,  999.0,   20.0,   21.1,   16.7,   16.8,  999.0,   12.9,  999.0,  999.0,    7.5,  999.0,    3.4,  999.0,  999.0,   -2.7,  999.0,  999.0
2004/02/10 15:30,   -0.5,   -0.8,   -1.3,   -1.9,   -1.7,    2.6,    4.4,    5.5,    3.7,    3.1,    3.7,    2.8,    1.6,    1.9,    0.9,    0.8,    0.7,    0.7,   -0.1,    0.3,   -0.2,   -1.3,   -1.8,   -2.4,   -2.0,   -0.9,    0.0,    0.0,   -0.2,    0.3,   -0.4,   -1.0,   -1.1,   -1.6,   -2.4,   -0.4,    1.3,   -0.1,   -2.3,   -3.8,   -4.7,   -6.3,   -6.6,   -6.7,   -6.2,   -6.8,   -7.0,   -7.4,   -5.0,   -4.7,   -5.1,   -6.3,   -7.8,   -8.8,  -11.2,  -12.7,  -12.7,  -10.0,   -9.5,   -7.5,   -6.1,   -4.0,   -1.4,   -0.4,   -0.5,   -2.5,   -4.3,   -6.9,   -8.9,  -11.5,  -12.8,  -14.7,  -16.3,  -18.2,  -18.7,  -20.1,  -21.9,  -24.9,  -27.7,  -30.8,  -34.1,  -37.0,  -40.7,  -43.2,  -44.2,  -38.9,  -38.2,  -35.3,  -28.7,  -19.7,  -14.3,   -9.2,   -3.0,    1.5,    5.6,    9.9,   14.1,   17.7,   18.5,  999.0,  999.0,  999.0,  999.0,  999.0,   20.2,  999.0,   17.1,   16.4,  999.0,   12.8,  999.0,    7.2,    7.0,  999.0,    4.4,  999.0,  999.0,  999.0,  999.0,  -12.7
2004/02/10 15:40,   -0.4,   -0.4,   -0.3,    0.7,    1.3,    2.6,    4.4,    4.0,    2.9,    2.2,    2.3,    1.3,    0.7,    1.0,   -0.3,   -0.0,    0.2,    0.2,    0.7,    1.1,    0.6,   -0.6,   -1.2,   -1.4,   -1.0,   -0.2,    1.7,    1.1,   -0.8,   -1.3,   -1.2,   -0.8,    0.7,   -0.3,   -0.3,    1.0,    1.5,    0.5,   -1.2,   -3.9,   -6.1,   -6.3,   -6.7,   -6.3,   -6.8,   -7.2,   -7.6,   -8.4,   -5.6,   -5.3,   -5.4,   -6.6,   -8.0,   -9.1,  -12.1,  -13.4,  -14.2,  -10.2,   -9.4,   -7.7,   -6.2,   -4.0,   -1.9,   -0.7,   -1.2,   -2.1,   -4.6,   -6.7,   -9.4,  -11.7,  -13.3,  -15.6,  -16.1,  -18.0,  -19.3,  -20.2,  -21.8,  -24.1,  -28.0,  -31.2,  -35.0,  -38.0,  -42.3,  -44.5,  -44.9,  -40.3,  -39.9,  -36.9,  -28.8,  -21.9,  -16.3,  -10.3,   -4.1,   -0.0,    4.6,    9.4,   13.7,   17.9,   21.3,  999.0,  999.0,  999.0,  999.0,  999.0,   19.2,  999.0,   17.4,  999.0,   11.5,   11.8,  999.0,  999.0,  999.0,    4.8,    3.8,  999.0,   -1.0,   -4.6,  999.0,   -8.4
2004/02/10 15:50,   -0.4,    0.8,    0.3,   -0.1,    0.1,    1.1,    1.1,    1.3,    0.5,   -0.6,    0.1,    1.2,    2.1,    4.3,    1.5,   -0.4,   -0.7,   -0.5,    1.1,    1.5,    0.4,   -0.5,   -1.4,   -1.7,   -1.8,   -0.1,    1.2,    0.9,    0.1,   -0.7,   -0.5,   -0.7,   -1.1,   -2.7,   -1.6,    0.2,    0.3,   -1.1,   -3.1,   -5.0,   -7.8,   -8.6,   -7.6,   -7.7,   -7.6,   -8.5,   -8.0,   -8.4,   -5.9,   -5.1,   -5.1,   -6.5,   -7.7,   -9.5,  -12.7,  -14.4,  -14.5,  -11.5,  -10.0,   -8.2,   -6.6,   -5.1,   -2.4,   -1.2,   -1.3,   -2.3,   -4.9,   -6.8,   -9.0,  -11.5,  -13.1,  -15.0,  -16.3,  -17.2,  -18.2,  -18.9,  -21.5,  -23.5,  -27.1,  -30.0,  -33.6,  -37.9,  999.0,  999.0,  999.0,  -37.9,  -37.4,  -33.0,  -26.8,  -19.9,  -14.5,   -9.5,   -4.3,    1.7,    6.3,   10.4,   15.0,   20.2,  999.0,  999.0,  999.0,  999.0,  999.0,  999.0,  999.0,  999.0,  999.0,  999.0,   12.3,  999.0,  999.0,  999.0,  999.0,    3.9,    3.6,  999.0,   -2.2,   -3.8,  999.0,  999.0
2004/02/10 16:00,   -0.2,    0.1,   -0.4,   -1.6,    0.7,    0.9,    0.7,   -0.0,   -0.9,   -0.2,   -0.4,    0.9,    2.1,    3.0,    0.2,   -0.7,   -0.5,   -0.7,    0.8,    1.6,    0.6,   -1.2,   -0.8,   -1.1,   -1.2,   -0.5,    0.0,    0.6,   -0.3,   -0.9,   -0.3,   -1.0,   -1.9,   -3.1,   -1.2,    0.1,   -0.2,   -0.8,   -1.8,   -2.5,   -6.0,   -7.5,   -7.2,   -7.6,   -6.7,   -7.2,   -7.3,   -6.8,   -5.6,   -4.7,   -4.8,   -6.1,   -7.4,   -9.2,  -11.7,  -12.6,  -12.6,  -11.3,   -8.8,   -7.3,   -5.9,   -4.5,   -2.4,   -1.4,   -1.8,   -3.4,   -5.8,   -7.5,   -9.9,  -11.5,  -12.9,  -14.6,  -15.6,  -16.6,  -17.8,  -18.5,  -21.3,  -23.2,  -26.7,  -29.7,  -32.8,  -36.1,  999.0,  999.0,  -44.2,  999.0,  -35.2,  -30.5,  -23.5,  -18.4,  -13.6,   -8.5,   -5.3,    1.5,    5.9,    9.5,   13.5,   19.2,  999.0,  999.0,  999.0,  999.0,  999.0,  999.0,  999.0,  999.0,  999.0,  999.0,   11.1,  999.0,  999.0,  999.0,  999.0,    4.6,    3.3,  999.0,  999.0,   -2.4,  999.0,  999.0
2004/02/10 16:10,   -0.2,    1.8,    3.6,    0.1,    1.1,    1.2,    2.5,    4.1,    5.1,    6.4,    5.9,    7.0,    7.6,    3.9,    1.7,    0.4,   -0.2,   -1.0,    1.7,    1.5,   -0.0,   -1.3,   -1.1,   -0.5,   -1.3,   -0.2,   -0.0,   -0.8,   -0.6,   -0.2,   -0.4,   -0.2,   -0.4,   -1.1,   -0.4,    0.3,    0.8,    0.5,   -0.7,   -1.6,   -5.5,   -5.8,   -5.8,   -5.7,   -5.8,   -6.4,   -6.1,   -6.0,   -5.3,   -4.7,   -5.4,   -6.7,   -8.2,  -10.1,  -11.5,  -12.5,  -12.5,  -10.6,   -8.6,   -7.1,   -6.2,   -4.6,   -3.0,   -1.9,   -2.8,   -4.0,   -6.4,   -7.7,  -10.0,  -11.8,  -14.0,  -14.5,  -15.6,  -17.0,  -17.8,  -21.1,  -22.1,  -24.4,  -27.2,  -31.2,  -34.0,  -36.7,  999.0,  -42.5,  -44.6,  -39.0,  -36.6,  -32.6,  -23.9,  -18.5,  -13.6,  -10.1,   -5.1,    0.3,    3.5,    8.3,   12.3,   17.5,   20.4,  999.0,  999.0,  999.0,  999.0,  999.0,  999.0,  999.0,   16.6,  999.0,   11.2,   11.4,  999.0,  999.0,  999.0,    5.3,    3.4,  999.0,  999.0,   -2.5,  999.0,  999.0
2004/02/10 16:20,    0.0,  999.0,    5.8,    6.5,    4.0,    5.4,   -0.5,    6.5,    9.9,    7.8,    6.5,    4.9,    2.4,  999.0,    1.2,   -2.0,   -5.2,   -4.4,   -2.6,   -0.1,    1.0,    3.3,    3.9,    4.0,  999.0,   -0.3,    1.1,   -4.4,   -2.1,   -2.8,   -3.1,   -0.5,   -0.0,   -0.8,   -0.9,    0.0,    0.7,    0.7,   -1.4,   -3.9,   -6.6,   -6.5,   -6.7,   -6.7,   -7.1,   -7.4,   -7.0,   -6.0,   -5.4,   -5.5,   -7.3,   -9.0,  -10.7,  -12.7,  -14.4,  -14.5,  -13.5,  -11.5,   -9.1,   -7.6,   -6.6,   -4.7,   -3.3,   -3.1,   -3.3,   -5.0,   -6.9,   -8.3,  -10.5,  -12.3,  -13.6,  -15.3,  -15.5,  -17.1,  -19.5,  -21.1,  -24.6,  -26.1,  -27.0,  -32.0,  -34.8,  -38.8,  999.0,  -42.8,  999.0,  -39.1,  -38.5,  -34.4,  -26.4,  -19.7,  -15.2,  -10.7,   -5.9,   -0.6,    3.0,    7.7,   10.9,   15.3,   19.9,  999.0,  999.0,  999.0,  999.0,  999.0,  999.0,  999.0,  999.0,  999.0,  999.0,   12.0,  999.0,  999.0,  999.0,  999.0,    3.2,  999.0,  999.0,  999.0,  999.0,  -10.7
2004/02/10 16:30,    0.2,  999.0,    0.0,    0.3,   -0.8,   -5.1,   -4.7,   -1.6,  999.0,    1.9,   -0.6,   -3.5,   -4.0,   -2.6,   -2.0,    1.7,   -0.1,    0.1,    0.7,    1.1,    1.9,    0.8,    0.8,   -0.5,   -2.3,   -0.5,    1.9,    0.7,    0.8,    1.0,    1.1,    0.6,    0.9,    1.2,   -0.6,   -0.2,    0.9,   -0.1,   -0.7,   -3.4,   -6.8,   -6.3,   -7.1,   -7.0,   -7.5,   -7.6,   -7.4,   -6.1,   -5.6,   -6.0,   -7.6,   -9.1,  -10.9,  -13.1,  -14.8,  -15.3,  -13.3,  -10.8,   -9.4,   -8.0,   -6.5,   -4.6,   -3.1,   -3.1,   -4.1,   -5.5,   -7.1,   -8.6,  -10.9,  -11.7,  -12.8,  -14.6,  -14.4,  -16.7,  -19.6,  -23.1,  -23.6,  -24.9,  -26.7,  -29.5,  -33.2,  -36.5,  999.0,  999.0,  -43.4,  999.0,  -34.8,  -31.1,  -24.9,  -19.7,  -14.2,  -10.6,   -4.4,    0.5,    4.9,    9.6,   13.7,   17.7,  999.0,  999.0,  999.0,  999.0,  999.0,  999.0,  999.0,  999.0,  999.0,  999.0,  999.0,   12.1,  999.0,  999.0,    7.2,    5.5,    2.6,  999.0,  999.0,   -3.4,   -7.1,  999.0
2004/02/10 16:40,    2.0,    3.8,    4.8,    1.8,    2.6,    2.3,    2.9,    4.0,    3.1,    2.6,    3.3,    2.7,    0.6,    1.1,    1.7,    0.5,    0.7,    2.9,    3.7,    3.1,    2.2,    0.2,   -0.3,   -1.6,   -2.3,   -0.9,    0.4,   -0.1,   -1.3,   -1.5,   -1.4,   -0.7,   -0.4,   -0.1,   -1.4,   -0.2,    0.6,    0.6,   -0.9,   -4.2,   -6.5,   -6.7,   -7.1,   -6.8,   -6.9,   -7.5,   -6.9,   -5.9,   -5.3,   -5.7,   -7.5,   -8.8,  -10.5,  -12.9,  -14.2,  -14.8,  -13.9,  -10.1,   -9.3,   -7.0,   -5.9,   -4.3,   -3.0,   -2.7,   -3.7,   -5.4,   -7.2,   -8.2,  -10.0,  -10.7,  -11.4,  -13.2,  -15.3,  -17.0,  -19.4,  -21.6,  -22.3,  -24.0,  -27.5,  -29.0,  -31.9,  -35.1,  -36.5,  999.0,  -39.7,  999.0,  -34.2,  -30.0,  -24.4,  -19.3,  -13.7,   -6.9,   -2.8,    1.9,    6.8,   11.1,   15.0,   19.8,  999.0,  999.0,  999.0,  999.0,  999.0,  999.0,  999.0,  999.0,  999.0,  999.0,  999.0,   11.5,  999.0,  999.0,  999.0,    5.3,    3.9,  999.0,  999.0,   -4.8,   -7.0,  999.0
2004/02/10 16:50,   -0.5,   -0.9,    1.9,    2.1,    2.9,    3.7,    5.1,    5.9,    5.0,    1.9,    1.2,    1.5,    1.1,    2.0,    0.8,    0.9,    1.2,    3.7,    3.2,    2.3,    0.7,   -0.6,   -0.9,   -1.3,   -1.7,   -1.1,    0.8,    0.8,   -0.9,   -1.2,   -0.8,   -0.7,    0.7,    0.1,   -0.2,    0.7,    1.0,    0.9,   -1.6,   -5.0,   -5.6,   -5.5,   -5.6,   -5.9,   -6.2,   -5.3,   -6.0,   -5.4,   -4.5,   -5.2,   -7.2,   -8.8,  -10.2,  -12.0,  -13.6,  999.0,  -11.4,  -10.0,   -9.2,   -6.8,   -5.9,   -4.9,   -4.1,   -3.3,   -4.4,   -6.6,   -8.5,   -8.9,   -9.6,  -10.6,  -12.1,  -10.7,  -14.6,  -15.6,  -22.5,  -23.8,  -25.6,  -26.4,  -28.4,  -30.4,  -32.3,  -36.3,  999.0,  -40.5,  999.0,  -40.6,  -36.9,  -30.5,  -28.2,  -22.0,  -14.1,   -6.1,   -1.6,    1.9,  999.0,  999.0,   14.4,   17.4,  999.0,  999.0,  999.0,  999.0,  999.0,  999.0,  999.0,  999.0,  999.0,  999.0,  999.0,  999.0,  999.0,  999.0,  999.0,  999.0,  999.0,  999.0,  999.0,  999.0,  -14.0,  999.0
2004/02/10 17:00,   -0.6,   -1.1,    1.3,    2.2,    2.4,    2.9,    4.6,    5.1,    3.8,    2.1,   -1.2,   -1.6,   -1.9,   -0.3,    0.4,    0.1,    2.1,    3.3,    2.3,    1.0,    0.1,    0.4,    0.4,   -0.4,   -0.2,   -0.2,    0.6,    1.0,   -1.0,   -1.5,   -1.5,   -1.2,   -1.1,   -0.9,   -1.2,    0.1,    0.2,   -0.6,   -2.9,   -5.4,   -5.8,   -5.9,   -3.6,   -4.0,   -5.9,  999.0,   -5.4,   -4.9,   -4.1,   -3.9,   -5.7,   -6.5,   -8.6,  -10.6,  -11.8,  -12.5,  -10.2,   -9.1,   -7.6,   -6.0,   -5.1,   -3.8,   -3.5,   -4.1,   -7.3,   -9.7,  -10.3,  -10.6,  -11.1,  -13.5,  -16.5,  -16.8,  -19.9,  999.0,  -20.0,  -21.1,  -24.6,  999.0,  999.0,  -31.9,  -33.7,  -38.3,  -36.9,  -38.1,  -38.2,  -40.2,  -37.9,  -33.1,  -27.5,  -20.3,  -16.6,   -9.2,   -1.5,  999.0,  999.0,  999.0,  999.0,  999.0,   -3.1,   -3.1,   -3.6,   -3.6,  999.0,   -7.3,   -8.9,   -4.1,  999.0,   -0.4,  999.0,  999.0,  999.0,  999.0,  999.0,    4.1,  999.0,  999.0,  999.0,  999.0,  -14.5,  999.0
2004/02/10 17:10,   -0.3,   -0.1,    1.4,    2.3,    2.7,    2.6,    4.0,    4.5,    3.5,    1.8,   -0.4,   -1.6,   -0.6,    0.7,   -0.2,    0.2,    2.1,    3.7,    3.2,    1.3,    0.5,    0.3,   -0.9,   -1.1,   -0.8,   -0.1,    0.8,    1.3,    0.6,   -0.4,   -0.6,   -0.9,   -0.7,   -0.9,   -0.5,   -0.0,    0.6,   -0.0,   -2.1,   -5.4,   -5.8,   -5.1,   -5.3,   -4.1,   -5.4,   -5.6,   -4.8,   -4.5,   -3.5,   -4.0,   -5.2,   -6.6,   -8.1,  -10.0,  -11.0,  -10.6,   -9.8,   -8.5,   -7.3,   -5.9,   -4.7,   -3.6,   -5.0,   -7.7,  -10.0,  -10.7,  -11.4,  -11.9,  -12.9,  -13.6,  -14.5,  -16.5,  -18.0,  -21.5,  -22.2,  999.0,  -23.4,  -22.6,  999.0,  999.0,  999.0,  999.0,  999.0,  -36.4,  999.0,  -39.8,  -39.6,  -32.2,  -25.7,  -21.6,  -16.0,  -11.9,  999.0,  999.0,  999.0,  999.0,  999.0,   -3.8,    0.3,   -3.2,   -4.0,   -4.3,   -4.8,   -4.6,   -4.5,   -5.6,  999.0,   -7.9,  999.0,  999.0,  999.0,  999.0,  999.0,  999.0,  999.0,  999.0,  999.0,  999.0,   -6.9,  -18.8
2004/02/10 17:20,   -0.8,   -0.9,   -0.1,    1.3,    1.6,    2.2,    3.7,    4.1,    3.4,    2.6,    2.6,    1.2,    2.6,    1.1,    0.5,    1.6,    2.6,    4.3,    4.9,    2.4,    0.4,    0.3,   -0.2,   -1.4,   -1.0,   -0.1,    0.8,    1.3,    0.4,   -0.0,   -0.5,   -0.8,   -1.3,   -1.0,   -1.0,   -0.7,    0.2,   -0.5,   -3.0,   -4.9,   -5.2,   -4.4,   -4.6,   -5.0,   -5.6,   -5.0,   -4.3,   -3.9,   -4.4,   -6.2,   -7.6,   -9.0,  -10.5,  -11.4,  -12.0,  -11.3,   -9.8,   -8.4,   -6.8,   -5.6,   -4.6,   -3.8,   -5.8,   -7.7,   -9.8,  -10.6,  -11.4,  -11.8,  -12.6,  -13.6,  -14.6,  -16.4,  999.0,  999.0,  999.0,  -19.9,  -22.6,  -23.3,  -27.3,  -31.1,  -32.3,  -33.1,  999.0,  999.0,  999.0,  -40.8,  -36.5,  -28.5,  -23.6,  -17.3,  -12.2,   -8.7,   -4.1,  999.0,  999.0,  999.0,  999.0,  999.0,  999.0,  999.0,  999.0,  999.0,  999.0,  999.0,  999.0,  999.0,  999.0,  999.0,  999.0,  999.0,  999.0,  999.0,  999.0,  999.0,    3.3,  999.0,  999.0,  999.0,   -8.7,  -16.2
2004/02/10 17:30,   -0.8,   -1.0,   -0.0,    0.9,    1.4,    1.7,    2.5,    3.0,    3.0,    1.8,    1.3,    3.1,    4.3,    0.8,    0.5,    2.1,    2.7,    3.6,    3.5,    2.1,    0.3,   -0.7,   -1.1,   -1.8,   -1.9,   -1.2,    1.3,    0.6,   -0.4,   -0.8,   -0.4,   -0.7,   -0.8,    0.1,    0.4,   -0.1,    0.1,   -1.0,   -2.4,   -5.4,   -6.1,   -5.8,   -5.8,   -6.0,   -6.1,   -5.7,   -5.5,   -6.0,   -6.5,   -7.8,   -9.3,  -10.7,  -11.6,  -12.6,  -12.5,  -10.7,   -9.6,   -8.3,   -6.4,   -5.4,   -5.0,   -5.5,   -6.2,   -8.0,   -9.3,  -10.8,  -11.5,  -12.5,  -13.6,  -14.5,  -15.9,  -17.2,  -20.4,  -20.6,  -21.2,  -22.7,  -25.4,  -26.4,  -28.1,  -30.4,  -31.3,  -35.4,  -40.1,  -42.8,  999.0,  -39.0,  -38.5,  -31.4,  -25.6,  -18.9,  -15.2,  -11.1,   -6.8,   -2.3,    1.1,    5.5,    9.4,   14.9,   17.3,   13.0,  999.0,  999.0,  999.0,  999.0,  999.0,  999.0,  999.0,  999.0,  999.0,   10.5,  999.0,  999.0,  999.0,  999.0,    3.6,    3.2,   -0.8,   -3.4,   -6.7,  -10.3
2004/02/10 17:40,   -0.6,    0.0,    0.3,    1.0,    0.8,    1.5,    2.3,    2.6,    2.3,    0.6,    0.5,    1.2,    1.3,    1.1,    0.7,    0.7,    2.3,    2.4,    2.9,    2.2,   -0.1,   -1.0,   -1.2,   -2.0,   -1.9,   -1.1,    0.6,   -0.0,   -0.7,   -0.7,   -0.4,   -0.5,   -0.6,    0.8,    1.7,    1.1,    1.2,   -0.4,   -2.4,   -5.5,   -5.9,   -5.9,   -6.6,   -7.4,   -7.0,   -6.8,   -6.7,   -7.5,   -7.5,   -8.7,   -9.5,  -10.2,  -11.4,  -11.4,  -10.7,   -9.8,   -8.5,   -7.3,   -6.2,   -6.0,   -6.2,   -6.2,   -6.8,   -8.2,   -9.1,  -10.6,  -11.9,  -12.7,  -13.9,  -15.1,  -16.7,  -18.6,  -19.6,  -20.5,  -22.3,  -23.6,  -25.3,  -26.2,  -27.6,  -28.4,  -30.8,  -34.8,  -39.5,  -44.2,  999.0,  -39.8,  -38.6,  -32.5,  -26.6,  -21.2,  -16.4,  -11.4,   -7.5,   -1.6,    2.9,    7.3,   12.3,   16.3,  999.0,  999.0,  999.0,  999.0,  999.0,  999.0,  999.0,  999.0,  999.0,  999.0,  999.0,   11.3,   10.9,  999.0,  999.0,  999.0,    3.4,    2.7,   -1.5,   -4.8,   -7.0,  -10.5
2004/02/10 17:50,  999.0,  999.0,  999.0,    1.1,    1.6,    2.1,    3.0,    3.3,    3.7,    0.8,   -0.7,   -0.5,    0.9,    0.8,    0.0,   -0.6,    1.4,    2.1,    2.9,    2.1,   -0.4,   -1.2,   -1.3,   -2.2,   -2.0,   -1.6,    0.1,   -1.1,   -1.4,   -1.3,   -1.1,   -0.9,  999.0,    1.5,    2.1,    2.3,    2.3,    0.5,   -0.6,   -4.3,   -4.5,   -5.0,   -5.2,   -5.3,   -5.5,   -5.8,   -6.0,   -6.7,   -7.8,   -9.5,  -11.7,  -12.8,  -13.0,  -11.6,  -10.1,   -8.7,   -7.8,   -6.7,   -5.8,   -4.8,   -4.7,   -5.6,   -6.9,   -8.3,   -9.1,  -10.5,  -12.2,  -13.4,  -14.7,  -16.1,  -17.3,  -18.6,  -19.4,  -20.2,  -21.7,  -23.0,  -24.5,  -25.7,  -27.5,  -28.5,  -29.9,  -33.9,  -37.9,  999.0,  -41.5,  -37.8,  -36.2,  -30.5,  -24.2,  -18.4,  -13.9,   -8.1,   -4.5,   -0.1,    3.8,    8.4,   13.3,   18.8,  999.0,  999.0,  999.0,  999.0,  999.0,  999.0,  999.0,  999.0,  999.0,  999.0,  999.0,  999.0,  999.0,  999.0,  999.0,  999.0,    3.6,    1.8,   -0.9,   -3.9,   -6.3,   -9.5
2004/02/10 18:00,   -0.7,    0.2,    0.5,    1.3,    1.7,    2.8,    3.1,    3.3,    3.2,    0.6,   -0.9,   -0.7,    0.1,    0.2,   -0.2,   -0.7,    1.3,    2.6,    3.6,    3.1,    0.2,    0.0,   -0.7,   -1.4,   -1.6,   -1.2,   -0.3,   -0.5,   -0.7,   -0.6,   -0.6,   -0.8,    1.3,    2.7,    2.4,    2.3,    1.3,    0.1,   -1.8,   -5.6,   -6.1,   -5.8,   -5.5,   -4.9,   -4.9,   -5.7,   -5.3,   -7.2,   -8.8,  -10.7,  -12.4,  -13.4,  -13.6,  -13.8,  -12.7,   -9.7,   -7.1,   -6.0,   -5.4,   -5.1,   -5.1,   -6.0,   -6.8,   -8.1,   -9.1,  -10.4,  -12.1,  -13.2,  -14.9,  -15.9,  -17.6,  -19.5,  -20.0,  -20.5,  -21.1,  -22.7,  -24.2,  -26.2,  -29.9,  -26.6,  -29.3,  -33.6,  -37.3,  -42.4,  999.0,  -37.7,  -36.0,  -28.5,  -22.8,  -16.7,  -11.7,   -6.9,   -3.6,    0.9,    4.3,    8.4,   13.8,   19.0,  999.0,  999.0,  999.0,  999.0,  999.0,  999.0,  999.0,  999.0,  999.0,  999.0,  999.0,  999.0,    6.6,  999.0,  999.0,  999.0,    2.8,    2.9,   -0.4,   -2.6,   -6.7,   -9.2
2004/02/10 18:10,   -0.2,   -0.4,    0.4,    1.4,    2.0,    3.0,    3.8,    3.2,    2.9,    1.5,   -0.3,    0.0,    0.6,    1.7,    1.0,   -1.5,    0.4,    2.0,    2.9,    1.9,   -0.5,   -1.1,   -0.9,   -1.0,   -1.7,   -1.4,   -0.7,   -0.4,   -0.6,    0.0,    0.3,    0.4,    1.8,    2.8,    2.6,    2.6,    1.1,   -0.4,   -4.1,   -6.3,   -6.4,   -5.3,   -4.9,   -5.0,   -5.7,   -6.1,   -6.1,   -7.1,   -8.2,   -9.8,  -11.2,  -12.6,  -13.4,  -14.1,  -13.6,  -10.2,   -6.5,   -5.2,   -4.5,   -3.8,   -4.6,   -6.0,   -7.2,   -9.0,   -9.8,  -11.1,  -12.1,  -13.5,  -14.8,  -16.1,  -17.4,  -18.9,  -19.1,  -19.9,  -20.4,  -21.0,  -22.7,  999.0,  999.0,  -25.3,  -29.5,  -33.3,  -37.0,  999.0,  999.0,  -35.9,  -34.5,  -27.8,  -22.1,  -15.8,  -11.1,   -6.5,   -3.1,    1.6,    5.5,    9.9,   14.8,   19.7,   21.8,  999.0,  999.0,  999.0,   16.1,  999.0,  999.0,  999.0,  999.0,  999.0,  999.0,   10.2,  999.0,  999.0,  999.0,  999.0,    3.1,    2.8,   -0.4,  999.0,   -6.9,   -9.8
2004/02/10 18:20,   -0.1,   -0.2,    0.4,    0.9,    2.8,    3.4,    4.5,    3.9,    3.0,    1.6,   -0.0,    0.1,    1.0,    1.0,    0.4,   -0.8,    0.8,    2.0,    2.6,    2.2,   -0.2,   -1.0,   -1.1,   -1.5,   -1.0,   -1.1,   -0.3,    0.3,   -0.7,   -1.1,   -0.6,    0.3,    1.5,    1.8,    2.1,    2.5,    2.0,    0.6,   -1.8,   -3.8,   -3.6,   -3.9,   -5.2,   -5.4,   -5.4,   -5.5,   -5.5,   -5.9,   -6.0,   -7.9,   -9.2,  -10.9,  -12.2,  -13.6,  -11.2,   -9.1,   -7.0,   -4.7,   -3.2,   -2.6,   -3.8,   -6.4,   -8.4,   -9.5,  -11.1,  -12.9,  -13.9,  -15.3,  -16.0,  -17.4,  -17.8,  -19.3,  -19.8,  999.0,  -22.4,  999.0,  999.0,  999.0,  -24.7,  -27.8,  -31.6,  -35.5,  -39.2,  999.0,  999.0,  -38.7,  -35.9,  -30.1,  -24.3,  -18.2,  -12.8,   -7.4,   -3.8,    1.6,    6.0,   10.5,   15.0,   19.0,  999.0,  999.0,  999.0,  999.0,   16.0,  999.0,  999.0,  999.0,  999.0,  999.0,  999.0,   10.8,  999.0,  999.0,  999.0,  999.0,    3.0,    1.9,  999.0,  999.0,   -6.5,   -9.8
2004/02/10 18:30,   -0.4,   -0.4,    0.1,    2.5,    3.5,    4.6,    5.6,    4.0,    3.0,    1.7,    0.5,   -0.1,   -0.3,   -0.3,   -0.9,   -1.8,    0.1,    1.3,    1.7,    1.8,    1.5,   -0.1,   -0.7,   -0.8,   -0.6,   -0.6,  999.0,    0.7,    0.3,    0.5,    0.5,    1.2,    1.7,    1.5,    1.4,    1.6,    1.3,    0.0,   -1.9,   -4.7,   -4.3,   -4.9,   -5.6,   -6.4,   -6.9,   -6.5,   -5.7,   -5.8,   -6.6,   -8.2,   -9.5,  -11.3,  -12.6,  -13.3,  -10.0,   -8.3,   -6.9,   -4.3,   -3.3,   -3.3,   -4.1,   -6.0,   -7.7,   -9.4,  -11.7,  -13.7,  -14.4,  -15.2,  -15.7,  -16.7,  -18.0,  -19.0,  -20.3,  -22.6,  999.0,  999.0,  999.0,  -23.0,  -25.6,  -29.6,  -32.8,  -36.0,  -38.9,  -44.5,  999.0,  -39.4,  -35.6,  -30.2,  -24.1,  -19.6,  -14.7,   -8.8,   -3.6,    1.1,    5.9,   10.7,   14.9,   19.5,  999.0,  999.0,  999.0,  999.0,  999.0,  999.0,  999.0,  999.0,  999.0,  999.0,  999.0,  999.0,  999.0,  999.0,  999.0,  999.0,    3.6,    1.7,  999.0,   -4.1,   -6.8,   -9.8
2004/02/10 18:40,   -0.7,   -0.8,   -0.2,    1.9,    3.0,    4.7,    5.5,    4.1,    2.7,    1.6,    0.3,   -0.3,    0.5,    0.5,    0.0,   -1.6,    1.3,    1.6,    2.4,    2.0,    1.3,   -0.1,   -0.5,   -0.7,   -0.4,   -0.2,    1.0,    0.9,    0.9,    0.4,    1.0,    1.7,    1.8,    1.8,    1.3,    1.2,    0.9,   -0.8,   -2.6,   -4.8,   -5.0,   -4.9,   -5.4,   -6.5,   -7.1,   -6.7,   -5.6,   -6.0,   -6.8,   -8.1,   -9.4,  -10.8,  -12.3,  -12.3,   -8.9,   -7.4,   -6.1,   -4.1,   -3.0,   -3.5,   -5.3,   -6.4,   -7.8,  -10.0,  -11.5,  -12.7,  -13.3,  -14.2,  -14.8,  -16.5,  -17.8,  -18.5,  -20.9,  -22.2,  999.0,  999.0,  999.0,  -23.6,  -25.4,  -28.5,  -30.7,  -33.5,  -37.2,  -40.0,  -40.2,  -38.9,  -33.2,  -28.4,  -24.3,  -18.9,  -15.4,   -9.0,   -4.2,    1.9,    5.8,   10.6,   14.6,   20.7,  999.0,  999.0,  999.0,  999.0,  999.0,  999.0,  999.0,  999.0,  999.0,   12.6,  999.0,  999.0,   10.8,  999.0,  999.0,    5.7,    3.0,    2.2,   -0.5,  999.0,   -6.5,   -9.2
2004/02/10 18:50,   -1.3,   -1.1,   -0.3,    1.7,    2.6,    4.4,    5.5,    3.8,    2.3,    1.3,    0.0,   -0.9,    0.5,    0.4,   -0.6,   -0.1,    1.9,    2.7,    2.5,    1.7,    0.5,   -0.3,   -0.6,   -0.5,   -0.7,   -0.8,    0.6,    1.8,    1.6,    0.7,    1.6,    2.2,    2.5,    1.9,    1.3,    1.3,    1.1,   -0.7,   -2.2,   -4.7,   -3.6,  999.0,   -5.0,   -6.0,   -5.7,   -4.9,   -4.9,   -5.2,   -6.3,   -6.9,   -9.6,  -11.2,  -12.2,  -11.2,   -8.2,   -7.1,   -6.1,   -4.5,   -3.4,   -3.8,   -5.2,   -6.9,   -8.7,  -10.4,  -11.3,  -12.7,  -13.5,  -14.9,  -15.9,  -17.1,  -18.1,  -20.0,  999.0,  999.0,  999.0,  999.0,  -23.9,  -25.0,  -27.3,  -30.1,  -32.9,  -36.3,  -39.1,  -41.9,  -43.8,  -38.8,  -35.3,  -28.6,  -24.7,  -19.7,  -15.6,  -10.9,   -6.1,   -0.5,    3.8,    9.4,   13.6,   18.7,  999.0,  999.0,  999.0,  999.0,  999.0,  999.0,  999.0,  999.0,  999.0,  999.0,  999.0,  999.0,  999.0,  999.0,  999.0,  999.0,  999.0,    1.7,   -0.6,  999.0,  999.0,   -7.9
2004/02/10 19:00,   -1.8,   -1.5,   -0.5,    2.0,    2.8,    5.1,    5.4,    3.6,    2.3,    1.1,   -0.1,   -1.0,   -1.2,   -0.7,   -0.9,    0.1,    1.2,    1.9,    2.2,    1.5,    0.4,   -0.5,   -0.6,   -0.9,   -1.0,   -0.2,    1.9,    1.8,    1.2,    0.5,    2.0,    2.0,    1.9,    0.8,    1.1,    1.0,    0.5,   -0.8,   -1.8,   -5.1,   -4.8,   -5.1,   -5.4,   -6.2,   -6.2,   -6.2,   -4.9,   -5.2,   -6.2,   -7.1,  -10.3,  -12.1,  -12.6,  -11.8,  -10.5,   -8.3,   -7.3,   -5.9,   -4.7,   -4.3,   -5.6,   -7.8,   -9.8,  -11.1,  -11.9,  -13.7,  -14.9,  -15.5,  -17.0,  -17.5,  -18.5,  -19.3,  -21.5,  -22.9,  999.0,  -22.4,  -24.8,  -27.4,  -30.8,  -33.9,  -36.0,  -38.5,  -41.4,  -42.1,  -46.2,  -40.7,  -37.5,  -31.3,  -26.2,  -20.3,  -14.9,  -10.8,   -5.1,    1.0,    5.2,   10.9,   15.3,  999.0,  999.0,   14.9,  999.0,  999.0,  999.0,  999.0,  999.0,  999.0,  999.0,  999.0,  999.0,  999.0,  999.0,  999.0,  999.0,  999.0,    2.4,    2.1,   -0.6,   -1.6,   -3.8,   -7.6
2004/02/10 19:10,   -1.8,   -1.9,   -0.9,    1.8,    3.2,    5.9,    6.2,    4.1,    2.8,    1.7,    0.1,   -0.7,   -1.3,   -0.8,   -0.8,    0.2,    1.4,    2.7,    2.7,    1.9,    1.0,    0.1,   -0.4,   -0.6,   -0.7,    0.3,    1.4,    1.5,    0.9,    1.2,    2.6,    2.4,    2.2,    0.9,    1.2,    1.5,    1.0,   -0.1,   -1.5,   -3.8,  999.0,   -5.5,   -4.9,   -6.0,   -5.6,   -5.4,   -4.4,   -5.5,   -5.8,   -8.0,  -10.2,  -11.4,  -11.5,  -11.6,   -9.0,   -8.4,   -8.1,   -6.8,   -5.9,   -4.5,   -4.6,   -6.0,   -8.0,   -9.6,  -10.9,  -12.6,  -14.3,  -15.1,  -16.2,  -19.3,  999.0,  999.0,  -19.1,  -19.8,  -20.4,  -22.5,  -25.3,  -27.5,  -30.4,  -33.0,  -35.5,  -37.1,  -38.3,  -41.6,  -43.6,  -38.0,  -35.6,  -30.2,  -25.1,  -19.1,  -13.3,   -8.2,   -2.7,    1.8,    6.4,   11.8,   17.7,  999.0,  999.0,  999.0,  999.0,  999.0,  999.0,  999.0,  999.0,  999.0,  999.0,  999.0,  999.0,  999.0,  999.0,  999.0,  999.0,    6.2,  999.0,    1.6,   -0.4,  999.0,   -4.5,   -8.4
2004/02/10 19:20,   -1.8,   -1.9,   -1.5,    0.7,    2.4,    5.0,    6.0,    4.9,    3.4,    1.9,    0.4,   -0.5,   -1.5,   -1.1,   -0.8,   -0.5,    1.9,    2.7,    2.7,    2.0,    1.1,    0.5,    0.2,   -0.0,    0.0,    0.9,    1.7,    1.5,    1.3,    1.9,    2.9,    2.7,    1.2,    0.7,    1.0,    1.1,    0.3,   -0.5,   -1.7,   -3.0,   -4.4,   -5.0,   -5.8,   -6.3,   -6.6,   -5.6,   -5.7,   -6.2,   -7.1,   -9.4,  -11.1,  -11.9,  -11.1,  -10.9,   -9.3,   -8.3,   -8.6,   -8.1,   -7.1,   -6.1,   -5.3,   -4.6,   -5.1,   -8.3,  -10.0,  -11.8,  -13.5,  -15.1,  999.0,  999.0,  999.0,  -17.1,  -18.9,  -20.1,  -20.9,  -22.4,  -25.8,  -27.9,  -30.7,  -33.5,  -36.6,  -37.2,  -39.1,  -42.9,  999.0,  -38.3,  -36.4,  -30.6,  -25.7,  -19.3,  -14.0,   -7.7,   -3.3,    1.0,    5.6,   10.8,   15.5,  999.0,  999.0,  999.0,  999.0,  999.0,  999.0,  999.0,  999.0,  999.0,  999.0,  999.0,  999.0,  999.0,  999.0,  999.0,  999.0,  999.0,    3.4,    1.9,   -0.2,   -1.5,   -5.3,   -8.6
2004/02/10 19:30,   -2.7,   -1.9,   -0.7,    1.5,    3.1,    5.4,    6.6,    4.4,    3.0,    1.5,    0.2,   -0.8,    0.4,    0.5,   -0.7,   -0.5,    2.3,    2.7,    3.0,    2.2,    1.2,    0.8,    0.1,    0.0,    0.1,    1.0,    1.7,    0.9,    0.7,    2.2,    2.5,    0.2,   -1.2,   -0.2,    1.1,    1.4,    0.5,   -0.0,   -1.2,   -1.9,   -3.2,   -4.2,   -5.2,   -5.6,   -6.0,   -5.5,   -5.8,   -5.8,   -7.0,   -8.9,  -10.5,  -12.0,  -11.3,  -10.3,   -8.9,   -7.3,   -7.4,   -7.0,   -6.4,   -6.5,   -5.7,   -5.2,   -5.9,   -8.0,   -9.2,  -10.9,  -12.7,  -14.9,  -16.4,  -16.5,  -17.1,  -17.8,  -19.5,  -20.4,  -21.5,  -23.7,  -25.9,  -28.8,  -32.6,  -35.4,  -38.5,  999.0,  -40.8,  -48.6,  -44.2,  -41.4,  -38.2,  -33.4,  -26.5,  -20.7,  -13.6,   -8.4,   -3.3,    1.3,    5.7,   10.5,   14.4,  999.0,  999.0,  999.0,  999.0,  999.0,  999.0,  999.0,  999.0,  999.0,  999.0,  999.0,  999.0,  999.0,    9.7,  999.0,  999.0,  999.0,    2.8,    1.7,   -0.4,  999.0,   -5.8,   -8.5
2004/02/10 19:40,   -2.4,   -2.4,   -0.8,    1.8,    3.6,    6.3,    6.9,    5.7,    3.7,    1.9,   -0.1,   -1.3,   -0.5,   -0.4,   -1.0,   -0.1,    2.0,    2.8,    2.8,    1.6,    1.2,    0.6,   -0.4,   -0.1,   -0.0,    0.3,    1.2,    0.9,    0.1,    1.9,    2.4,   -0.0,   -1.4,   -0.5,    0.1,    1.4,    0.5,   -0.1,   -1.1,   -2.2,   -4.4,   -5.0,   -5.6,   -6.1,   -6.8,   -5.7,   -5.8,   -5.4,   -7.0,   -8.9,  -10.5,  -12.1,  -12.3,  -10.8,   -9.0,   -7.7,   -7.6,   -6.9,   -6.7,   -6.3,   -6.0,   -6.5,   -7.3,   -8.5,   -9.5,  -10.6,  -12.4,  -14.3,  -16.0,  -16.8,  -17.9,  -18.5,  -20.0,  -20.0,  -21.5,  -24.2,  -27.0,  -30.0,  -31.9,  -35.3,  -38.7,  999.0,  -39.4,  999.0,  999.0,  -39.9,  -37.5,  -32.2,  -25.2,  -19.5,  -13.4,   -7.4,   -2.7,    3.3,    6.8,   11.8,   17.7,   21.8,   18.7,  999.0,  999.0,  999.0,  999.0,  999.0,  999.0,  999.0,  999.0,  999.0,  999.0,  999.0,    9.3,  999.0,    5.6,  999.0,    2.1,    1.7,   -0.4,   -2.3,   -5.9,   -8.2
2004/02/10 19:50,   -1.8,   -1.9,   -0.6,    1.2,    3.1,    5.5,    6.5,    6.8,    4.2,    3.0,    0.3,   -1.2,   -1.6,   -1.3,   -1.2,   -0.6,    1.7,    2.9,    3.0,    2.0,    0.8,    0.6,    0.1,    0.2,   -0.4,    0.1,    1.2,    0.4,   -0.5,    0.5,    1.5,   -0.1,   -0.6,   -0.6,    0.5,    1.9,    1.6,    0.6,   -0.9,   -3.1,   -4.9,   -5.2,   -5.5,   -6.2,   -6.8,   -5.9,   -5.7,   -5.4,   -7.1,   -8.8,  -10.7,  -12.5,  -12.4,  -11.8,  -10.6,   -9.6,   -8.8,   -8.0,   -7.4,   -7.1,   -6.9,   -7.5,   -8.5,   -9.6,  -10.5,  -12.3,  -13.7,  -15.2,  -16.2,  -17.5,  -18.7,  -18.4,  -20.1,  -21.0,  -23.3,  -25.5,  -28.3,  -30.8,  -32.5,  -35.3,  999.0,  999.0,  999.0,  999.0,  999.0,  999.0,  -37.0,  -32.6,  -26.0,  -20.3,  -14.8,   -8.0,   -3.5,    1.7,    7.0,   11.1,   15.2,   18.3,   19.0,   18.5,  999.0,  999.0,  999.0,  999.0,  999.0,  999.0,  999.0,  999.0,  999.0,  999.0,   11.2,  999.0,  999.0,  999.0,    2.5,    1.3,  999.0,  999.0,   -6.0,   -8.1
2004/02/10 20:00,   -1.6,   -2.0,   -0.5,    1.4,    3.0,    5.5,    6.4,    7.5,    4.5,    3.4,    0.6,   -1.1,   -1.8,   -1.7,   -1.5,   -1.1,    1.1,    2.1,    2.2,    1.9,    1.0,    0.4,   -0.0,   -0.2,   -0.6,    0.3,    0.5,   -0.2,   -1.2,   -0.2,    0.0,   -0.9,   -0.9,   -0.7,    0.5,    1.4,    1.5,    0.5,   -0.8,   -2.9,   -4.2,   -5.0,   -5.3,   -5.8,   -6.1,   -5.0,   -5.5,   -5.1,   -7.3,   -9.4,  -10.9,  -12.1,  -12.2,  -11.7,  -11.4,   -9.3,   -9.0,   -7.8,   -7.3,   -7.4,   -6.8,   -7.6,   -8.3,   -9.1,  -10.8,  -12.9,  -14.3,  -15.5,  -16.5,  -17.4,  -18.2,  -18.5,  -19.2,  -21.7,  -23.9,  -25.3,  -27.1,  -28.9,  -32.4,  -35.3,  999.0,  999.0,  999.0,  -45.3,  999.0,  999.0,  -35.6,  -31.5,  -26.7,  -20.4,  -15.8,  -10.2,   -0.8,    3.3,    8.0,   12.4,   16.8,   21.5,  999.0,  999.0,   20.0,  999.0,  999.0,  999.0,  999.0,  999.0,  999.0,  999.0,  999.0,  999.0,   11.3,  999.0,  999.0,  999.0,    2.2,    1.2,   -1.7,  999.0,   -6.2,   -8.4
2004/02/10 20:10,   -1.8,   -2.2,   -0.8,    1.1,    2.6,    4.7,    5.8,    6.6,    6.4,    3.5,    1.5,   -0.7,   -1.6,   -2.1,   -2.1,   -0.8,    1.1,    2.2,    2.4,    1.7,    1.0,    0.3,    0.4,    0.3,   -0.0,    0.0,    0.4,    0.3,   -1.1,    0.4,   -0.7,   -1.0,   -1.0,   -0.9,    0.8,    0.7,    0.6,   -0.3,   -1.8,   -2.7,   -4.1,   -5.0,   -5.1,   -5.2,   -6.0,   -4.9,   -4.9,   -4.6,   -6.9,   -8.8,  -10.5,  -11.8,  -11.7,  -10.8,  -10.4,   -9.5,   -8.5,   -8.2,   -7.0,   -7.4,   -7.0,   -7.9,   -8.0,   -9.2,  -10.7,  -12.6,  -13.9,  -15.3,  -16.0,  -16.9,  -17.2,  -17.5,  -19.2,  -21.3,  -23.2,  -25.2,  -26.5,  -28.3,  -30.3,  999.0,  999.0,  999.0,  999.0,  999.0,  999.0,  999.0,  -33.3,  -28.0,  -24.1,  -18.4,  -13.6,   -7.9,   -3.2,    2.5,    6.1,    9.8,   14.5,   18.5,  999.0,  999.0,  999.0,  999.0,  999.0,  999.0,  999.0,  999.0,  999.0,  999.0,  999.0,   10.5,    8.6,  999.0,  999.0,    3.4,  999.0,    1.3,  999.0,   -2.8,   -6.0,   -8.7
2004/02/10 20:20,   -1.7,   -1.4,   -0.1,    1.3,    3.1,    5.0,    5.7,    6.3,    6.5,    3.3,    1.3,   -0.2,   -2.4,   -2.5,   -2.1,   -1.1,    0.7,    1.8,    2.2,    1.3,    1.1,    0.2,    0.4,    0.4,   -0.1,   -0.4,    0.6,    0.6,   -0.7,   -0.8,   -0.9,   -0.8,  999.0,   -0.9,    0.1,    0.2,   -0.6,   -1.4,   -2.2,   -2.5,   -3.7,   -4.6,   -5.1,   -5.4,   -5.6,   -5.0,   -4.6,   -4.2,   -5.8,   -8.0,   -9.5,  -11.0,  -11.3,  -11.0,  -10.1,   -9.2,   -8.5,   -8.4,   -7.2,   -7.3,   -7.7,   -7.9,   -8.4,  -10.3,  -12.1,  -13.3,  -14.6,  -15.7,  -15.8,  -17.2,  -17.1,  -19.7,  -21.5,  -23.0,  -25.4,  -27.6,  -30.3,  999.0,  999.0,  -36.2,  999.0,  999.0,  999.0,  999.0,  999.0,  999.0,  999.0,  -33.2,  -28.3,  -22.4,  -17.3,   -9.5,   -4.2,    0.4,    5.0,   10.2,   15.1,  999.0,  999.0,  999.0,  999.0,  999.0,  999.0,  999.0,  999.0,  999.0,  999.0,  999.0,  999.0,  999.0,  999.0,  999.0,  999.0,  999.0,  999.0,  999.0,  999.0,  999.0,   -5.8,   -7.5
2004/02/10 20:30,   -1.5,   -1.3,   -0.4,    1.2,    2.8,    5.0,    5.7,    6.0,    6.1,    3.3,    1.2,   -0.6,   -2.1,   -2.6,   -2.3,   -1.2,    0.1,    2.1,    2.3,    1.5,    1.2,    0.4,    0.9,    1.1,    0.2,   -0.5,    0.3,    0.3,   -0.4,   -0.6,   -0.7,   -0.1,    0.2,   -1.1,   -0.9,    0.3,   -0.9,   -1.5,   -2.8,   -2.9,   -4.3,   -4.8,   -5.3,   -5.4,   -5.7,   -4.8,   -4.5,   -4.0,   -6.1,   -8.1,   -9.4,  -10.6,  -11.5,  -11.1,   -9.9,   -8.7,   -7.6,   -7.4,   -6.8,   -7.6,   -7.8,   -7.4,   -8.9,  -10.8,  -11.6,  -12.0,  -12.5,  -13.8,  -14.8,  -15.8,  -17.3,  -19.6,  -21.6,  -23.2,  -23.6,  -25.6,  999.0,  999.0,  999.0,  -34.9,  999.0,  999.0,  999.0,  999.0,  999.0,  999.0,  -32.9,  -27.5,  -21.6,  -16.7,  -11.5,   -6.1,   -2.9,    0.5,    6.4,   12.1,   16.7,   18.1,  999.0,  999.0,  999.0,  999.0,  999.0,  999.0,  999.0,  999.0,  999.0,  999.0,  999.0,  999.0,  999.0,  999.0,  999.0,  999.0,    1.6,   -0.1,  999.0,  999.0,   -5.8,   -7.7
2004/02/10 20:40,   -2.1,   -2.6,   -0.3,    1.3,    2.6,    4.7,    5.4,    5.8,    5.6,    3.1,    1.5,   -1.1,   -2.7,   -3.4,   -2.9,   -1.7,    0.0,    1.2,    1.5,    1.4,    1.5,    1.0,    1.0,    1.0,    0.0,   -0.5,    0.2,    0.4,  999.0,   -0.5,    0.3,    0.7,    0.3,   -1.2,   -0.8,  999.0,   -1.3,   -1.7,   -3.2,   -2.9,   -4.3,   -5.0,   -5.3,   -5.2,   -5.9,   -4.4,   -4.3,   -3.7,   -6.5,   -8.6,  -10.5,  -11.2,  -12.2,  -10.7,   -9.8,   -8.7,   -7.9,   -7.1,   -6.8,   -7.2,   -6.8,   -7.0,   -8.4,   -9.9,  -10.7,  -11.3,  -12.3,  -13.4,  -14.9,  -16.9,  -18.4,  -20.7,  -23.0,  -25.4,  -24.6,  -27.8,  999.0,  -31.0,  999.0,  999.0,  999.0,  -34.9,  -37.7,  999.0,  -36.0,  -34.9,  -32.2,  -26.8,  -21.2,  -15.0,  -10.9,   -6.3,   -3.6,   -0.7,    4.4,    8.0,   13.0,   16.8,  999.0,  999.0,  999.0,  999.0,  999.0,  999.0,  999.0,  999.0,  999.0,  999.0,  999.0,  999.0,  999.0,    7.9,    3.9,  999.0,    1.1,    1.2,  999.0,   -4.1,   -6.1,   -8.5
2004/02/10 20:50,   -1.9,   -2.1,   -0.6,    1.6,    2.9,    4.4,    4.7,    5.3,    4.7,    2.4,    0.5,   -1.5,   -3.2,   -4.0,   -3.2,   -1.2,   -0.5,    1.1,    1.3,    1.0,    1.3,    0.8,    0.8,    0.5,   -0.7,   -0.8,    0.7,    0.2,   -0.9,   -0.6,    0.4,    0.6,  999.0,   -1.0,   -0.6,  999.0,   -0.5,   -1.2,   -2.8,   -2.9,   -3.1,   -4.0,   -4.3,   -4.5,   -5.0,   -3.8,   -3.5,   -3.3,   -5.6,   -7.9,  -10.0,  -11.3,  -11.5,  -11.0,   -8.7,   -8.7,   -8.4,   -7.3,   -6.2,   -6.5,   -6.6,   -7.5,   -8.7,   -9.7,  -10.8,  -11.4,  -12.3,  -13.8,  -15.3,  -17.4,  -18.9,  -21.2,  -23.8,  -26.3,  -27.9,  -30.1,  999.0,  999.0,  -35.5,  999.0,  999.0,  -37.6,  -40.9,  999.0,  -38.7,  -38.4,  -35.8,  -28.5,  -22.9,  -17.2,  -12.0,   -6.6,   -2.7,    0.2,    3.4,    8.2,   12.3,   16.6,   18.2,  999.0,  999.0,  999.0,  999.0,  999.0,  999.0,  999.0,  999.0,  999.0,  999.0,  999.0,    9.8,  999.0,    6.2,  999.0,  999.0,   -0.1,  999.0,   -3.7,   -6.1,   -7.9
2004/02/10 21:00,   -1.6,   -1.7,   -0.6,    0.5,    2.9,    4.3,    5.1,    5.0,    5.2,    2.7,    0.6,   -1.2,   -1.0,   -1.7,   -1.5,   -1.4,   -0.8,    1.3,    1.6,    0.8,    0.7,    0.3,    0.1,   -0.5,   -1.5,   -1.1,    0.2,   -0.1,   -0.9,   -0.7,    0.5,    0.7,    1.0,   -0.8,   -0.6,    0.0,   -0.1,   -1.6,   -2.8,   -3.0,   -2.9,   -3.9,   -4.2,   -4.5,   -4.7,   -3.1,   -2.9,   -3.3,   -5.4,   -7.9,  -10.1,  -10.9,  -10.6,   -9.2,   -7.6,   -8.1,   -7.6,   -7.5,   -6.6,   -6.7,   -7.1,   -7.9,   -9.1,  -10.2,  -11.3,  -12.7,  -12.9,  -14.7,  -16.7,  -18.2,  -20.0,  -22.2,  -24.3,  -27.1,  -28.6,  999.0,  -31.7,  -30.7,  -34.3,  999.0,  999.0,  -35.8,  -39.9,  999.0,  -37.9,  -37.0,  -35.0,  -28.3,  -22.5,  -17.7,  -12.9,   -8.5,   -4.8,   -0.8,    3.6,    8.0,   12.6,   15.8,   17.3,  999.0,  999.0,  999.0,  999.0,  999.0,  999.0,  999.0,  999.0,  999.0,  999.0,  999.0,  999.0,    8.4,    6.2,  999.0,  999.0,   -0.0,   -1.5,  999.0,  999.0,   -7.6
2004/02/10 21:10,   -2.5,   -2.8,   -0.9,    0.6,    3.0,    4.2,    4.6,    4.8,    6.2,    3.5,    1.0,   -0.4,   -1.0,   -2.5,   -1.6,   -1.5,   -0.4,    1.2,    1.6,    0.5,    0.5,    0.4,   -0.1,  999.0,   -1.0,   -1.1,    0.6,    0.8,   -0.6,   -1.0,   -0.4,    0.7,    0.6,   -0.1,  999.0,    0.5,    0.6,   -0.8,   -2.0,   -3.3,   -2.5,   -2.8,   -3.6,   -4.0,   -4.1,   -3.2,   -2.7,   -3.8,   -5.4,   -7.6,   -9.9,  -10.7,   -9.9,   -8.8,   -7.2,   -6.6,   -7.0,   -7.8,   -7.7,   -7.4,   -7.4,   -7.6,   -8.7,   -9.4,  -10.7,  -11.8,  -13.1,  -14.7,  -16.2,  -18.1,  -20.4,  -23.2,  -25.1,  -26.9,  999.0,  -29.4,  999.0,  999.0,  999.0,  999.0,  999.0,  -36.7,  -39.5,  999.0,  -37.7,  -38.7,  -35.5,  -28.9,  -21.6,  -17.7,  -13.2,   -7.6,   -4.6,   -0.4,    2.1,    8.1,   12.3,   16.8,   19.3,  999.0,  999.0,  999.0,  999.0,  999.0,  999.0,  999.0,  999.0,  999.0,  999.0,  999.0,  999.0,    9.2,    6.3,  999.0,  999.0,    0.8,  999.0,   -3.3,   -5.6,   -7.6
2004/02/10 21:20,   -2.0,   -2.8,   -1.0,    0.4,    2.9,    3.6,    3.7,    4.2,    5.3,    3.4,    1.7,   -0.6,   -1.3,   -2.2,   -1.8,   -1.6,   -0.5,    0.9,    1.1,    0.4,    0.5,    0.5,   -0.1,   -0.4,   -0.9,   -1.3,    0.1,  999.0,   -0.8,   -0.9,    0.2,    1.0,    1.1,  999.0,    0.9,    0.7,    0.6,   -0.7,   -1.9,   -2.7,   -2.8,   -3.0,   -3.7,   -4.2,   -4.1,   -3.3,   -3.6,   -5.1,   -6.6,   -8.7,  -10.6,  -11.3,  -10.5,   -9.0,   -7.3,   -6.1,   -6.3,   -7.0,   -7.2,   -7.0,   -7.2,   -7.9,   -9.0,  -10.0,  -10.8,  -12.1,  -13.6,  -15.1,  -16.2,  -17.8,  -21.0,  -23.7,  -25.5,  -25.8,  999.0,  999.0,  999.0,  -30.0,  999.0,  999.0,  999.0,  -34.6,  -37.8,  999.0,  -35.7,  -37.7,  -35.2,  -28.9,  -22.2,  -17.4,  -13.8,   -8.1,   -4.6,   -0.4,    3.3,    8.0,   12.2,   16.2,  999.0,  999.0,  999.0,  999.0,  999.0,  999.0,  999.0,  999.0,  999.0,  999.0,  999.0,  999.0,   10.1,    9.3,    6.7,  999.0,  999.0,    2.8,  999.0,   -2.8,   -5.6,   -7.9
2004/02/10 21:30,   -2.2,   -1.8,   -1.7,    0.1,    2.3,    3.3,    3.2,    3.4,    4.0,    3.3,    1.2,   -0.1,   -0.7,   -1.1,   -1.2,   -1.3,   -0.6,    0.9,    1.0,    1.1,    0.6,    0.6,   -0.1,   -0.1,   -0.3,   -1.0,    0.5,    0.0,   -1.2,   -1.1,    0.6,    0.9,    1.3,    0.9,    1.5,    1.3,    0.8,    0.1,   -1.3,   -2.3,   -2.9,   -2.9,   -3.3,   -4.0,   -4.2,   -2.9,   -3.4,   -4.9,   -6.2,   -8.6,  -10.1,  -11.0,  -11.2,   -9.9,   -8.3,   -7.0,   -6.0,   -6.0,   -7.0,   -7.9,   -7.4,   -7.8,   -8.9,  -10.7,  -11.8,  -13.2,  -14.6,  -16.0,  -16.4,  -18.0,  -20.7,  -23.4,  -25.2,  999.0,  999.0,  999.0,  999.0,  -32.3,  999.0,  999.0,  999.0,  -36.5,  -41.0,  -36.9,  -40.7,  -40.6,  -36.0,  -29.7,  -23.3,  -18.8,  -14.5,   -9.2,   -4.4,    0.7,    5.0,   10.2,   14.0,   17.5,  999.0,  999.0,  999.0,  999.0,  999.0,  999.0,  999.0,   15.1,  999.0,  999.0,  999.0,  999.0,  999.0,    9.8,  999.0,  999.0,    3.1,   -0.3,    0.8,   -3.1,   -6.2,   -8.8
2004/02/10 21:40,   -2.8,   -4.1,   -2.6,    0.6,    2.3,    3.2,    3.5,    3.7,    4.2,    4.1,    1.7,    0.2,   -0.8,   -1.4,   -1.5,   -1.6,   -0.7,    0.5,    1.9,    1.9,    1.0,    1.0,    0.4,  999.0,   -0.7,   -0.5,    0.5,    0.5,   -0.7,   -1.2,    0.4,  999.0,    1.1,    0.2,    1.2,    1.2,    0.7,    0.1,   -1.6,   -2.4,   -3.0,   -3.2,   -3.2,   -4.0,   -4.7,   -3.4,   -3.3,   -4.8,   -6.1,   -7.6,   -9.7,  -10.9,  -11.5,  -11.3,   -9.2,   -8.0,   -6.8,   -6.6,   -6.6,   -7.1,   -7.3,   -8.0,   -9.2,  -10.7,  -11.8,  -13.5,  -14.8,  -15.6,  -16.9,  -18.7,  -20.7,  -23.3,  -25.5,  -26.9,  999.0,  999.0,  999.0,  999.0,  999.0,  999.0,  999.0,  -36.2,  -42.0,  -34.2,  -38.5,  -38.8,  -35.0,  -27.8,  -22.1,  -16.8,  -12.5,   -5.7,   -0.7,    2.8,    8.3,   12.1,   16.5,   19.4,  999.0,  999.0,  999.0,  999.0,  999.0,  999.0,   11.3,   15.5,  999.0,  999.0,  999.0,  999.0,  999.0,    8.8,    6.5,  999.0,    3.0,    2.6,  999.0,   -3.6,   -5.6,   -8.6
2004/02/10 21:50,   -2.2,   -2.9,   -1.4,    0.7,    2.2,    2.9,    3.2,    3.9,    4.3,    4.5,    1.6,    0.6,  999.0,   -0.9,   -1.5,   -1.2,   -0.7,    0.6,    1.9,    1.9,    1.1,    1.0,    0.2,  999.0,  999.0,   -1.0,    0.6,    0.1,   -1.4,   -1.8,   -0.3,  999.0,  999.0,    0.3,    0.8,    1.2,    0.6,   -0.1,   -1.2,   -2.3,   -3.1,   -3.5,   -3.4,   -4.5,   -4.8,   -3.6,   -3.4,   -4.6,   -5.4,   -7.9,  -10.0,  -11.2,  -11.6,  -11.2,   -9.6,   -8.8,   -8.1,   -7.0,   -6.8,   -6.1,   -6.5,   -8.1,   -9.7,  -11.0,  -12.7,  -13.7,  -15.1,  -16.9,  -17.8,  -19.7,  -22.0,  -24.3,  -25.8,  -25.7,  999.0,  999.0,  999.0,  999.0,  999.0,  -33.0,  999.0,  -37.5,  999.0,  999.0,  -37.0,  -37.7,  -32.6,  -27.5,  -20.6,  -15.9,  -10.3,   -5.0,   -0.8,    4.2,    8.4,   12.0,   15.7,  999.0,  999.0,  999.0,  999.0,  999.0,  999.0,  999.0,  999.0,   14.2,  999.0,   13.1,  999.0,  999.0,  999.0,    7.5,    6.0,  999.0,    3.0,  999.0,  999.0,  999.0,   -6.2,   -8.2
2004/02/10 22:00,   -1.9,   -2.5,   -1.5,   -0.3,    1.7,    2.2,    3.3,    4.2,    4.4,    4.5,    2.3,    1.3,    0.6,   -0.2,   -1.3,   -1.7,   -0.6,    0.4,    1.7,    2.1,    1.3,    1.3,    0.1,    0.0,   -0.4,   -0.5,    0.7,    0.1,   -1.1,   -0.8,   -0.2,    0.1,    0.3,   -0.6,    0.3,    0.3,    0.1,   -0.2,   -2.0,   -2.3,   -3.8,   -3.4,   -4.0,   -5.1,   -4.4,   -3.4,   -3.3,   -4.3,   -5.1,   -7.6,   -9.3,  -10.2,  -11.1,  -11.5,  -11.2,   -9.9,   -8.4,   -7.8,   -6.9,   -5.7,   -5.3,   -6.9,   -8.7,   -9.9,  -12.0,  -13.4,  -15.4,  -17.8,  -18.9,  -19.6,  -21.3,  -23.9,  -25.4,  -26.6,  -28.8,  999.0,  -28.2,  999.0,  999.0,  -33.6,  -34.2,  -38.6,  999.0,  999.0,  -37.5,  -41.1,  -33.5,  -27.8,  -21.2,  -15.9,  -10.9,   -4.9,   -0.3,    3.2,    7.8,   11.8,   15.0,  999.0,  999.0,   16.8,  999.0,  999.0,   18.7,  999.0,  999.0,   13.4,  999.0,  999.0,  999.0,  999.0,  999.0,  999.0,    5.8,  999.0,  999.0,  999.0,  999.0,   -2.8,   -5.4,  999.0
2004/02/10 22:10,   -1.9,   -2.1,   -1.4,   -0.6,    1.9,    3.4,    4.3,    5.1,    4.7,    4.6,    1.8,    0.8,    0.5,   -0.0,   -1.2,   -2.3,   -0.9,   -0.5,    1.9,    2.2,    1.5,    1.5,    0.3,    0.0,   -0.4,   -0.6,    0.3,   -0.6,   -1.1,   -1.1,   -0.3,   -0.1,    0.1,   -0.5,    0.5,    0.0,   -0.1,   -0.7,  999.0,   -2.4,   -3.8,   -3.4,   -3.8,   -4.9,   -4.4,   -3.4,   -3.1,   -4.1,   -5.4,   -7.1,   -9.0,   -9.9,  -11.1,  -11.7,  -11.8,  -11.7,   -9.2,   -7.9,   -6.8,   -5.7,   -4.6,   -5.6,   -6.8,   -8.1,  -10.8,  -12.9,  -15.0,  -17.2,  -18.3,  -19.2,  -21.5,  -23.3,  -24.9,  999.0,  999.0,  -29.1,  999.0,  999.0,  999.0,  999.0,  999.0,  -36.7,  999.0,  999.0,  -37.7,  -41.0,  -33.8,  -27.1,  -21.7,  -14.8,  -10.4,   -4.2,    0.4,    4.8,    9.1,   13.2,  999.0,  999.0,  999.0,   17.1,  999.0,  999.0,  999.0,  999.0,  999.0,   13.8,  999.0,  999.0,  999.0,  999.0,  999.0,  999.0,  999.0,  999.0,  999.0,  999.0,  999.0,  999.0,   -6.2,   -8.2
2004/02/10 22:20,   -1.7,   -2.0,   -1.2,    0.6,    2.8,    3.8,    4.6,    5.5,    4.9,    4.5,  999.0,  999.0,  999.0,   -0.4,   -0.7,   -2.1,   -0.6,    0.1,    1.9,    1.9,    1.4,    1.3,    0.5,    0.1,   -0.3,   -0.6,    0.5,  999.0,   -0.8,   -0.9,  999.0,   -0.0,   -0.5,   -0.2,  999.0,   -0.0,   -0.5,   -1.2,  999.0,   -2.9,   -4.0,   -3.8,   -4.0,   -4.4,   -4.2,   -3.8,   -3.0,   -3.8,   -4.8,   -6.8,   -8.5,   -9.0,   -9.8,  -10.8,  -11.6,  -11.9,   -9.3,   -8.0,   -6.7,   -5.7,   -5.6,   -6.1,   -7.5,   -9.3,  -10.9,  -13.1,  -15.1,  -17.2,  -18.0,  -19.3,  -21.7,  -23.4,  -25.5,  999.0,  -26.9,  999.0,  -30.2,  999.0,  999.0,  999.0,  999.0,  -35.8,  -35.2,  999.0,  -36.4,  -38.5,  -30.8,  -24.9,  -19.1,  -13.2,   -9.2,   -3.6,    0.7,    5.1,   10.0,   13.0,  999.0,  999.0,  999.0,   17.7,  999.0,  999.0,  999.0,  999.0,  999.0,   13.4,  999.0,  999.0,  999.0,  999.0,  999.0,    9.1,    7.1,  999.0,    3.1,  999.0,  999.0,   -0.6,   -3.7,   -7.6
2004/02/10 22:30,   -3.3,   -3.2,   -0.6,    1.5,    3.3,    3.9,    4.9,    5.4,    5.2,    4.7,    1.9,    0.9,    0.4,   -0.7,   -0.9,   -0.8,   -0.5,    0.8,    2.0,    1.8,    1.5,    1.0,    0.8,   -0.0,   -0.5,   -0.7,    0.6,  999.0,   -0.8,   -0.7,    0.2,    0.3,    0.0,   -0.2,    0.2,    0.1,   -0.4,   -1.0,   -2.2,   -3.3,   -4.2,   -4.2,   -4.7,   -4.7,   -4.6,   -4.3,   -3.1,   -3.9,   -5.1,   -7.0,   -8.4,   -9.3,   -9.4,  -10.5,  -11.8,  -12.3,   -8.8,   -8.7,   -8.0,   -7.0,   -6.4,   -7.0,   -8.5,  -10.6,  -11.0,  -13.2,  -15.3,  -17.4,  -18.5,  -20.4,  -22.9,  -23.6,  999.0,  999.0,  -27.0,  999.0,  -30.3,  999.0,  999.0,  999.0,  -34.0,  999.0,  -35.4,  999.0,  -36.2,  -38.1,  -32.9,  -25.8,  -21.2,  -14.5,   -9.0,   -3.6,    0.4,    4.4,    9.7,   13.3,  999.0,  999.0,  999.0,  999.0,  999.0,  999.0,  999.0,  999.0,  999.0,   13.0,  999.0,  999.0,  999.0,  999.0,  999.0,   10.0,  999.0,  999.0,    2.5,    2.9,    1.0,  999.0,   -3.5,   -7.7
2004/02/10 22:40,   -3.7,   -3.7,   -0.9,    1.0,    3.1,    3.8,    4.4,    5.8,    5.8,    5.0,    2.5,    0.9,   -0.6,   -0.5,   -1.3,   -1.1,   -1.1,    0.9,    1.4,    1.2,    1.1,    0.4,    0.0,   -0.3,   -0.7,   -0.3,    1.1,    0.1,   -0.9,   -0.8,    0.0,    0.5,   -0.0,   -0.8,   -0.1,    0.0,   -0.2,   -0.3,   -1.6,   -3.0,   -4.3,  999.0,   -4.7,   -4.6,   -5.0,   -4.5,   -3.0,   -3.6,   -4.8,   -6.5,   -7.7,   -8.8,   -8.9,  -10.4,  -11.4,  -11.7,  999.0,   -8.1,   -7.9,   -7.2,   -7.0,   -8.5,   -9.5,  -10.8,  -12.3,  -14.8,  -16.6,  -18.0,  -19.1,  -21.3,  -24.3,  999.0,  999.0,  999.0,  -26.5,  -29.4,  999.0,  999.0,  999.0,  999.0,  999.0,  999.0,  -36.4,  -32.7,  -34.5,  -36.6,  -31.4,  -25.3,  -19.7,  -13.6,   -8.3,   -3.3,    0.8,    5.2,    9.3,   13.6,   17.3,  999.0,  999.0,  999.0,  999.0,  999.0,  999.0,  999.0,  999.0,  999.0,  999.0,  999.0,  999.0,  999.0,  999.0,   10.2,    7.7,  999.0,  999.0,    2.4,    0.7,   -0.8,   -4.9,   -8.2
2004/02/10 22:50,   -3.6,   -2.8,   -0.7,    1.1,    3.1,    4.1,    4.6,    5.5,    5.7,    4.6,    1.9,    0.7,   -0.3,   -1.3,   -1.4,   -1.6,   -1.5,    1.0,    1.7,    1.9,    1.4,    0.8,  999.0,   -0.3,   -0.7,   -0.7,    0.9,    0.3,   -0.2,   -0.2,    1.0,    0.8,    0.1,   -0.5,   -0.1,    0.1,   -0.3,   -0.5,   -1.9,   -3.7,   -4.4,   -4.1,   -4.3,   -4.5,   -4.9,   -4.2,   -3.0,   -3.6,   -4.4,   -6.1,   -7.3,   -8.2,   -9.4,  -10.6,  -10.9,   -9.1,   -7.8,   -7.9,   -7.3,   -7.7,   -8.7,   -9.8,  -11.1,  -12.1,  -13.9,  -15.4,  -17.7,  -18.7,  -19.6,  -21.6,  999.0,  999.0,  999.0,  999.0,  999.0,  999.0,  999.0,  999.0,  999.0,  999.0,  999.0,  999.0,  999.0,  -32.0,  -34.0,  -35.4,  -31.4,  -25.4,  -18.6,  -13.5,   -9.0,   -4.2,   -1.1,    2.9,    6.2,   10.3,  999.0,  999.0,  999.0,  999.0,  999.0,  999.0,  999.0,  999.0,  999.0,  999.0,  999.0,  999.0,  999.0,  999.0,  999.0,  999.0,  999.0,  999.0,  999.0,    3.0,    0.8,   -1.0,   -4.5,  999.0
2004/02/10 23:00,   -4.2,   -2.6,   -0.2,    1.4,    2.9,    3.8,    4.3,    4.8,    4.9,    4.5,    2.9,    1.5,    0.7,   -0.0,   -0.8,   -1.1,   -1.5,    0.3,    1.1,    1.7,    1.7,    0.9,    0.3,    0.0,   -0.5,    0.3,    1.1,    0.6,   -0.8,   -0.5,   -0.1,   -0.1,   -0.8,   -0.8,   -0.1,    0.1,   -0.3,   -1.3,   -2.4,   -4.3,   -4.5,   -4.2,   -4.4,   -4.9,   -4.7,   -4.1,   -2.7,   -2.9,   -3.7,   -6.2,   -7.2,   -7.7,   -9.3,   -9.7,   -9.0,   -6.8,   -7.8,   -8.1,   -7.8,   -8.9,   -9.9,  -11.5,  -13.0,  -13.9,  -16.0,  -17.4,  -19.1,  -21.2,  999.0,  -22.1,  999.0,  999.0,  999.0,  -26.4,  -26.3,  -28.7,  999.0,  -31.6,  -34.0,  999.0,  999.0,  -37.2,  -41.3,  999.0,  -41.2,  -40.8,  -36.9,  -28.7,  -22.6,  -16.7,  -11.9,   -6.0,   -1.3,    3.0,    7.4,   11.8,   15.4,  999.0,  999.0,  999.0,  999.0,  999.0,  999.0,  999.0,  999.0,  999.0,  999.0,  999.0,  999.0,  999.0,  999.0,    9.2,    9.3,  999.0,    3.1,    2.2,    0.8,   -1.6,   -5.5,   -8.5
2004/02/10 23:10,   -4.1,   -2.4,    0.2,    1.7,    3.1,    3.8,    4.3,    5.0,    4.3,    4.1,    2.5,    0.8,    1.0,    0.9,   -0.3,   -1.3,  999.0,    0.3,    1.9,    2.3,    2.2,    1.4,    0.8,    0.2,   -0.6,  999.0,    1.0,    0.8,   -0.8,   -0.6,   -0.5,   -0.7,   -1.6,   -1.0,   -0.4,   -0.4,   -0.5,   -1.7,   -2.7,   -4.1,   -4.2,   -4.0,   -4.1,   -4.9,   -4.7,   -4.3,   -2.6,   -2.6,   -3.3,   -5.2,   -6.5,   -6.7,   -8.4,   -9.4,   -8.6,   -6.6,   -7.7,   -8.0,   -8.0,   -8.7,   -9.8,  -11.3,  -12.9,  -14.2,  -14.9,  -16.3,  999.0,  999.0,  999.0,  999.0,  999.0,  999.0,  999.0,  999.0,  -25.6,  -27.6,  -29.0,  999.0,  -31.7,  999.0,  -30.0,  -33.6,  -36.9,  -39.5,  -36.3,  -37.7,  -29.6,  -23.9,  -18.9,  -13.6,   -9.3,   -5.8,   -1.0,    3.1,    8.1,   13.0,   17.6,   20.7,   18.3,  999.0,  999.0,  999.0,  999.0,  999.0,  999.0,  999.0,  999.0,  999.0,  999.0,  999.0,  999.0,  999.0,  999.0,  999.0,    3.3,  999.0,   -0.5,   -2.3,   -4.9,   -7.6
2004/02/10 23:20,   -4.3,   -2.8,    0.2,    2.1,    3.2,    4.2,    5.2,    6.0,    5.4,    4.9,    4.1,    2.0,    1.3,    0.2,   -0.2,  999.0,  999.0,    1.2,    2.1,    2.2,    2.1,    1.8,    0.7,    0.1,   -0.4,    0.6,    1.3,    0.8,   -0.1,   -0.2,   -0.3,   -0.2,   -0.9,   -0.3,    0.5,   -0.2,   -0.4,   -1.5,   -3.0,   -3.9,   -4.1,   -4.1,   -4.6,   -5.2,   -5.2,   -4.6,   -3.2,   -2.9,   -4.2,   -6.1,   -7.2,   -8.0,   -9.5,  -10.2,   -9.0,   -7.2,   -7.6,   -8.4,   -9.1,   -9.9,  -11.2,  -12.7,  -14.5,  -15.8,  -14.6,  -13.9,   -9.0,  -10.3,  -10.7,  999.0,  999.0,  999.0,  999.0,  -25.4,  -27.2,  999.0,  999.0,  999.0,  999.0,  999.0,  999.0,  -32.1,  -35.7,  -37.7,  -35.7,  -36.4,  -30.4,  -23.5,  -17.6,  -13.0,   -7.4,   -4.5,   -0.2,    2.6,    7.2,   11.1,   15.2,   18.1,  999.0,  999.0,  999.0,  999.0,  999.0,  999.0,  999.0,  999.0,  999.0,  999.0,  999.0,  999.0,  999.0,  999.0,  999.0,  999.0,    3.6,  999.0,    0.8,  999.0,   -5.2,   -8.6
2004/02/10 23:30,   -4.9,   -3.1,   -0.8,    1.0,    2.3,    3.2,    5.2,    6.6,    6.3,    4.9,    3.8,    2.1,    1.0,    0.8,    0.5,  999.0,   -0.1,    2.0,    2.2,    2.3,    2.2,    1.7,    1.1,    0.0,   -0.3,    0.5,    1.1,    0.8,  999.0,   -0.0,    0.4,    0.1,   -0.7,   -0.0,    0.5,   -0.5,   -0.8,   -1.7,   -3.6,   -4.0,   -4.3,   -4.0,   -4.6,   -5.0,   -5.0,   -4.7,   -3.8,   -2.4,   -2.9,   -5.1,   -5.9,   -8.1,   -9.5,  -10.3,   -9.2,   -7.1,   -7.1,   -8.0,   -9.0,  -10.3,  -12.0,  -13.8,  -16.2,  -15.6,  -16.1,   -8.6,   -8.8,  -10.2,  -11.2,  -11.5,  999.0,  999.0,  999.0,  -25.5,  -27.8,  -28.0,  -31.3,  999.0,  999.0,  999.0,  999.0,  -32.9,  -37.3,  -40.7,  -39.0,  -40.1,  -31.1,  -25.1,  -19.2,  -13.6,   -8.5,   -4.1,    1.0,    3.8,    9.1,   12.7,   17.1,   18.5,  999.0,   17.1,  999.0,  999.0,  999.0,  999.0,  999.0,  999.0,  999.0,  999.0,  999.0,  999.0,  999.0,    8.9,  999.0,    6.8,    6.2,    2.4,    1.0,   -2.5,   -5.8,  -10.2
2004/02/10 23:40,   -4.4,  999.0,   -1.4,  999.0,    2.2,    3.3,    5.9,    7.1,    6.1,    4.6,    3.7,    1.6,    1.3,    0.8,    0.4,  999.0,    0.0,    2.1,    2.1,    2.6,    2.5,    1.5,    0.6,   -0.4,   -0.5,    0.9,    1.2,    0.2,   -0.7,   -0.5,  999.0,   -0.5,   -1.0,   -0.5,   -0.5,   -1.2,   -1.5,   -2.5,   -3.5,   -3.9,   -3.6,   -4.0,   -4.6,   -4.8,   -4.6,   -4.2,   -3.3,   -1.8,   -2.3,   -4.4,   -5.4,   -8.3,   -9.4,   -9.8,   -9.9,   -7.0,   -7.5,   -7.9,   -8.5,  -10.0,  -11.7,  -13.5,  -15.2,  999.0,  999.0,   -7.6,   -8.8,  -10.4,  -10.9,  -11.4,  -12.3,  999.0,  999.0,  -25.2,  -27.4,  -27.6,  -30.2,  999.0,  999.0,  999.0,  -31.7,  -34.0,  -35.9,  -38.1,  -36.1,  -35.2,  -29.5,  -22.8,  -18.4,  -13.7,   -9.1,   -4.3,   -0.9,    3.0,    7.4,   11.9,   16.2,   20.7,   17.6,  999.0,   16.5,  999.0,  999.0,  999.0,  999.0,  999.0,   11.9,  999.0,  999.0,  999.0,  999.0,  999.0,  999.0,    8.8,  999.0,    2.5,    1.3,   -2.7,   -5.6,  -10.3
